| time (UTC) | temp C | wind direction | speed KPH | gust KPH | rain 1hr cm | rain 24hr cm | rain mn cm | humidity % | barometer mb |
| 20260509045504 | 6 | 24 | 3.2 | 6.4 | 0.00 | 0.00 | 0.00 | 95 | 1008.6 |
| 20260509045404 | 6 | 22 | 3.2 | 6.4 | 0.00 | 0.00 | 0.00 | 95 | 1008.8 |
| 20260509045306 | 6 | 23 | 3.2 | 6.4 | 0.00 | 0.00 | 0.00 | 95 | 1008.7 |
| 20260509045204 | 6 | 22 | 3.2 | 6.4 | 0.00 | 0.00 | 0.00 | 95 | 1008.5 |
| 20260509045103 | 6 | 23 | 3.2 | 6.4 | 0.00 | 0.00 | 0.00 | 95 | 1008.7 |
| 20260509045004 | 6 | 23 | 3.2 | 6.4 | 0.00 | 0.00 | 0.00 | 95 | 1008.7 |
| 20260509044903 | 6 | 25 | 3.2 | 6.4 | 0.00 | 0.00 | 0.00 | 95 | 1008.6 |
| 20260509044804 | 6 | 26 | 3.2 | 6.4 | 0.00 | 0.00 | 0.00 | 95 | 1008.6 |
| 20260509044703 | 6 | 28 | 3.2 | 6.4 | 0.00 | 0.00 | 0.00 | 95 | 1008.6 |
| 20260509044604 | 6 | 30 | 3.2 | 6.4 | 0.00 | 0.00 | 0.00 | 95 | 1008.5 |
| 20260509044504 | 6 | 29 | 3.2 | 6.4 | 0.00 | 0.00 | 0.00 | 95 | 1008.4 |
| 20260509044404 | 6 | 33 | 3.2 | 6.4 | 0.00 | 0.00 | 0.00 | 95 | 1008.4 |
| 20260509044303 | 6 | 34 | 3.2 | 6.4 | 0.00 | 0.00 | 0.00 | 95 | 1008.5 |
| 20260509044203 | 6 | 35 | 3.2 | 6.4 | 0.00 | 0.00 | 0.00 | 95 | 1008.6 |
| 20260509044125 | 6 | 36 | 3.2 | 6.4 | 0.00 | 0.00 | 0.00 | 95 | 1008.4 |
| 20260509044003 | 6 | 34 | 3.2 | 6.4 | 0.00 | 0.00 | 0.00 | 95 | 1008.5 |
| 20260509043904 | 6 | 32 | 3.2 | 6.4 | 0.00 | 0.00 | 0.00 | 95 | 1008.6 |
| 20260509043803 | 6 | 30 | 3.2 | 6.4 | 0.00 | 0.00 | 0.00 | 95 | 1008.6 |
| 20260509043725 | 6 | 30 | 3.2 | 6.4 | 0.00 | 0.00 | 0.00 | 95 | 1008.7 |
| 20260509043604 | 6 | 32 | 3.2 | 6.4 | 0.00 | 0.00 | 0.00 | 95 | 1008.7 |
| 20260509043504 | 6 | 33 | 3.2 | 6.4 | 0.00 | 0.00 | 0.00 | 95 | 1008.7 |
| 20260509043425 | 6 | 35 | 3.2 | 6.4 | 0.00 | 0.00 | 0.00 | 95 | 1008.6 |
| 20260509043303 | 6 | 35 | 3.2 | 6.4 | 0.00 | 0.00 | 0.00 | 95 | 1008.5 |
| 20260509043203 | 6 | 34 | 3.2 | 6.4 | 0.00 | 0.00 | 0.00 | 95 | 1008.8 |
| 20260509043103 | 6 | 34 | 3.2 | 6.4 | 0.00 | 0.00 | 0.00 | 95 | 1008.7 |
| 20260509043004 | 6 | 39 | 3.2 | 6.4 | 0.00 | 0.00 | 0.00 | 95 | 1008.2 |
| 20260509042904 | 6 | 41 | 3.2 | 6.4 | 0.00 | 0.00 | 0.00 | 95 | 1008.5 |
| 20260509042824 | 6 | 40 | 3.2 | 6.4 | 0.00 | 0.00 | 0.00 | 95 | 1008.4 |
| 20260509042703 | 6 | 42 | 3.2 | 6.4 | 0.00 | 0.00 | 0.00 | 95 | 1008.6 |
| 20260509042603 | 6 | 40 | 3.2 | 6.4 | 0.00 | 0.00 | 0.00 | 95 | 1008.5 |
| 20260509042503 | 6 | 45 | 3.2 | 6.4 | 0.00 | 0.00 | 0.00 | 95 | 1008.7 |
| 20260509042404 | 6 | 46 | 3.2 | 6.4 | 0.00 | 0.00 | 0.00 | 95 | 1008.6 |
| 20260509042306 | 6 | 47 | 3.2 | 6.4 | 0.00 | 0.00 | 0.00 | 95 | 1008.4 |
| 20260509042225 | 6 | 50 | 3.2 | 6.4 | 0.00 | 0.00 | 0.00 | 95 | 1008.5 |
| 20260509042103 | 6 | 56 | 3.2 | 6.4 | 0.00 | 0.00 | 0.00 | 95 | 1008.5 |
| 20260509042004 | 6 | 55 | 3.2 | 6.4 | 0.00 | 0.00 | 0.00 | 95 | 1008.4 |
| 20260509041903 | 6 | 58 | 4.8 | 6.4 | 0.00 | 0.00 | 0.00 | 95 | 1008.7 |
| 20260509041804 | 6 | 62 | 4.8 | 6.4 | 0.00 | 0.00 | 0.00 | 95 | 1008.4 |
| 20260509041704 | 6 | 64 | 4.8 | 6.4 | 0.00 | 0.00 | 0.00 | 95 | 1008.4 |
| 20260509041624 | 6 | 65 | 4.8 | 6.4 | 0.00 | 0.00 | 0.00 | 94 | 1008.5 |
| 20260509041504 | 6 | 66 | 4.8 | 6.4 | 0.00 | 0.00 | 0.00 | 94 | 1008.3 |
| 20260509041403 | 6 | 65 | 4.8 | 6.4 | 0.00 | 0.00 | 0.00 | 94 | 1008.6 |
| 20260509041304 | 6 | 64 | 4.8 | 6.4 | 0.00 | 0.00 | 0.00 | 94 | 1008.6 |
| 20260509041203 | 6 | 64 | 4.8 | 6.4 | 0.00 | 0.00 | 0.00 | 94 | 1008.4 |
| 20260509041104 | 6 | 63 | 4.8 | 6.4 | 0.00 | 0.00 | 0.00 | 94 | 1008.4 |
| 20260509041003 | 6 | 62 | 4.8 | 6.4 | 0.00 | 0.00 | 0.00 | 94 | 1008.5 |
| 20260509040925 | 6 | 61 | 4.8 | 6.4 | 0.00 | 0.00 | 0.00 | 94 | 1008.4 |
| 20260509040804 | 6 | 60 | 3.2 | 6.4 | 0.00 | 0.00 | 0.00 | 94 | 1008.3 |
| 20260509040704 | 6 | 59 | 3.2 | 6.4 | 0.00 | 0.00 | 0.00 | 94 | 1008.5 |
| 20260509040604 | 6 | 59 | 3.2 | 6.4 | 0.00 | 0.00 | 0.00 | 94 | 1008.3 |
| 20260509040503 | 6 | 58 | 3.2 | 6.4 | 0.00 | 0.00 | 0.00 | 94 | 1008.4 |
| 20260509040403 | 6 | 59 | 3.2 | 6.4 | 0.00 | 0.00 | 0.00 | 94 | 1008.2 |
| 20260509040303 | 6 | 60 | 1.6 | 4.8 | 0.00 | 0.00 | 0.00 | 94 | 1008.2 |
| 20260509040225 | 6 | 59 | 3.2 | 4.8 | 0.00 | 0.00 | 0.00 | 94 | 1008.3 |
| 20260509040124 | 6 | 58 | 3.2 | 4.8 | 0.00 | 0.00 | 0.00 | 94 | 1008.4 |
| 20260509040003 | 6 | 59 | 3.2 | 4.8 | 0.00 | 0.00 | 0.00 | 94 | 1008.3 |
| 20260509035903 | 6 | 57 | 3.2 | 4.8 | 0.00 | 0.00 | 0.00 | 94 | 1008.2 |
| 20260509035803 | 6 | 54 | 1.6 | 4.8 | 0.00 | 0.00 | 0.00 | 94 | 1008.4 |
| 20260509035704 | 6 | 52 | 1.6 | 4.8 | 0.00 | 0.00 | 0.00 | 94 | 1008.1 |
| 20260509035604 | 6 | 49 | 1.6 | 4.8 | 0.00 | 0.00 | 0.00 | 94 | 1008.2 |
| 20260509035503 | 6 | 48 | 1.6 | 4.8 | 0.00 | 0.00 | 0.00 | 94 | 1008.1 |
| 20260509035404 | 6 | 45 | 1.6 | 4.8 | 0.00 | 0.00 | 0.00 | 94 | 1008.3 |
| 20260509035306 | 6 | 42 | 1.6 | 4.8 | 0.00 | 0.00 | 0.00 | 94 | 1008.3 |
| 20260509035204 | 6 | 39 | 1.6 | 4.8 | 0.00 | 0.00 | 0.00 | 94 | 1008.2 |
| 20260509035103 | 6 | 39 | 1.6 | 4.8 | 0.00 | 0.00 | 0.00 | 94 | 1008.1 |
| 20260509035004 | 6 | 35 | 1.6 | 3.2 | 0.00 | 0.00 | 0.00 | 94 | 1008.2 |
| 20260509034924 | 6 | 36 | 1.6 | 3.2 | 0.00 | 0.00 | 0.00 | 94 | 1008.2 |
| 20260509034804 | 6 | 40 | 1.6 | 3.2 | 0.00 | 0.00 | 0.00 | 94 | 1008.4 |
| 20260509034703 | 6 | 41 | 1.6 | 4.8 | 0.00 | 0.00 | 0.00 | 94 | 1008.4 |
| 20260509034604 | 6 | 41 | 1.6 | 4.8 | 0.00 | 0.00 | 0.00 | 94 | 1008.2 |
| 20260509034503 | 6 | 45 | 1.6 | 4.8 | 0.00 | 0.00 | 0.00 | 94 | 1008.5 |
| 20260509034404 | 6 | 49 | 1.6 | 4.8 | 0.00 | 0.00 | 0.00 | 94 | 1008.2 |
| 20260509034304 | 6 | 51 | 1.6 | 4.8 | 0.00 | 0.00 | 0.00 | 94 | 1008.2 |
| 20260509034225 | 6 | 52 | 1.6 | 4.8 | 0.00 | 0.00 | 0.00 | 94 | 1008.2 |
| 20260509034103 | 6 | 56 | 1.6 | 4.8 | 0.00 | 0.00 | 0.00 | 94 | 1008.3 |
| 20260509034004 | 6 | 59 | 1.6 | 4.8 | 0.00 | 0.00 | 0.00 | 94 | 1008.4 |
| 20260509033903 | 6 | 58 | 1.6 | 4.8 | 0.00 | 0.00 | 0.00 | 94 | 1008.5 |
| 20260509033804 | 6 | 57 | 1.6 | 4.8 | 0.00 | 0.00 | 0.00 | 94 | 1008.4 |
| 20260509033704 | 6 | 56 | 1.6 | 4.8 | 0.00 | 0.00 | 0.00 | 94 | 1008.4 |
| 20260509033603 | 6 | 56 | 1.6 | 4.8 | 0.00 | 0.00 | 0.00 | 94 | 1008.5 |
| 20260509033504 | 6 | 52 | 1.6 | 4.8 | 0.00 | 0.00 | 0.00 | 94 | 1008.5 |
| 20260509033403 | 6 | 48 | 1.6 | 4.8 | 0.00 | 0.00 | 0.00 | 94 | 1008.5 |
| 20260509033304 | 6 | 46 | 1.6 | 3.2 | 0.00 | 0.00 | 0.00 | 94 | 1008.4 |
| 20260509033203 | 6 | 44 | 1.6 | 3.2 | 0.00 | 0.00 | 0.00 | 94 | 1008.3 |
| 20260509033104 | 6 | 42 | 1.6 | 3.2 | 0.00 | 0.00 | 0.00 | 94 | 1008.5 |
| 20260509033003 | 7 | 44 | 1.6 | 3.2 | 0.00 | 0.00 | 0.00 | 94 | 1008.6 |
| 20260509032903 | 7 | 46 | 1.6 | 3.2 | 0.00 | 0.00 | 0.00 | 94 | 1008.7 |
| 20260509032803 | 7 | 48 | 1.6 | 3.2 | 0.00 | 0.00 | 0.00 | 94 | 1008.5 |
| 20260509032703 | 7 | 53 | 1.6 | 4.8 | 0.00 | 0.00 | 0.00 | 94 | 1008.4 |
| 20260509032604 | 7 | 58 | 1.6 | 4.8 | 0.00 | 0.00 | 0.00 | 94 | 1008.3 |
| 20260509032524 | 7 | 62 | 1.6 | 4.8 | 0.00 | 0.00 | 0.00 | 94 | 1008.5 |
| 20260509032404 | 6 | 70 | 1.6 | 4.8 | 0.00 | 0.00 | 0.00 | 94 | 1008.3 |
| 20260509032306 | 6 | 73 | 1.6 | 4.8 | 0.00 | 0.00 | 0.00 | 94 | 1008.3 |
| 20260509032203 | 6 | 76 | 1.6 | 4.8 | 0.00 | 0.00 | 0.00 | 94 | 1008.4 |
| 20260509032125 | 6 | 78 | 3.2 | 4.8 | 0.00 | 0.00 | 0.00 | 94 | 1008.4 |
| 20260509032003 | 6 | 81 | 3.2 | 6.4 | 0.00 | 0.00 | 0.00 | 94 | 1008.4 |
| 20260509031903 | 6 | 83 | 3.2 | 6.4 | 0.00 | 0.00 | 0.00 | 94 | 1008.2 |
| 20260509031803 | 6 | 84 | 3.2 | 6.4 | 0.00 | 0.00 | 0.00 | 94 | 1008.3 |
| 20260509031704 | 6 | 85 | 3.2 | 6.4 | 0.00 | 0.00 | 0.00 | 94 | 1008.6 |
| 20260509031603 | 6 | 85 | 4.8 | 6.4 | 0.00 | 0.00 | 0.00 | 94 | 1008.8 |
| 20260509031504 | 6 | 84 | 4.8 | 6.4 | 0.00 | 0.00 | 0.00 | 94 | 1008.5 |
| 20260509031403 | 6 | 85 | 4.8 | 6.4 | 0.00 | 0.00 | 0.00 | 94 | 1008.4 |
| 20260509031304 | 6 | 82 | 4.8 | 6.4 | 0.00 | 0.00 | 0.00 | 94 | 1008.3 |
| 20260509031224 | 6 | 82 | 4.8 | 6.4 | 0.00 | 0.00 | 0.00 | 94 | 1008.3 |
| 20260509031103 | 6 | 80 | 4.8 | 6.4 | 0.00 | 0.00 | 0.00 | 94 | 1008.1 |
| 20260509031024 | 6 | 80 | 4.8 | 6.4 | 0.00 | 0.00 | 0.00 | 94 | 1008.4 |
| 20260509030903 | 6 | 77 | 4.8 | 9.7 | 0.00 | 0.00 | 0.00 | 94 | 1008.4 |
| 20260509030804 | 6 | 75 | 6.4 | 11.3 | 0.00 | 0.00 | 0.00 | 94 | 1008.4 |
| 20260509030724 | 6 | 74 | 6.4 | 11.3 | 0.00 | 0.00 | 0.00 | 94 | 1008.1 |
| 20260509030603 | 7 | 73 | 6.4 | 11.3 | 0.00 | 0.00 | 0.00 | 93 | 1008.4 |
| 20260509030503 | 7 | 72 | 6.4 | 11.3 | 0.00 | 0.00 | 0.00 | 93 | 1008.4 |
| 20260509030424 | 7 | 71 | 6.4 | 11.3 | 0.00 | 0.00 | 0.00 | 93 | 1008.2 |
| 20260509030303 | 7 | 71 | 6.4 | 11.3 | 0.00 | 0.00 | 0.00 | 93 | 1008.6 |
| 20260509030203 | 7 | 70 | 4.8 | 11.3 | 0.00 | 0.00 | 0.00 | 93 | 1008.3 |
| 20260509030125 | 7 | 71 | 4.8 | 11.3 | 0.00 | 0.00 | 0.00 | 93 | 1008.5 |
| 20260509030024 | 7 | 69 | 4.8 | 11.3 | 0.00 | 0.00 | 0.00 | 92 | 1008.3 |
| 20260509025903 | 7 | 67 | 4.8 | 11.3 | 0.00 | 0.00 | 0.00 | 92 | 1008.2 |
| 20260509025803 | 7 | 64 | 3.2 | 11.3 | 0.00 | 0.00 | 0.00 | 92 | 1008.2 |
| 20260509025703 | 7 | 61 | 3.2 | 11.3 | 0.00 | 0.00 | 0.00 | 92 | 1008.4 |
| 20260509025603 | 7 | 57 | 3.2 | 11.3 | 0.00 | 0.00 | 0.00 | 92 | 1008.3 |
| 20260509025525 | 7 | 54 | 3.2 | 6.4 | 0.00 | 0.00 | 0.00 | 92 | 1008.2 |
| 20260509025403 | 7 | 48 | 1.6 | 6.4 | 0.00 | 0.00 | 0.00 | 92 | 1008.5 |
| 20260509025306 | 7 | 45 | 1.6 | 6.4 | 0.00 | 0.00 | 0.00 | 92 | 1008.3 |
| 20260509025203 | 7 | 38 | 1.6 | 3.2 | 0.00 | 0.00 | 0.00 | 92 | 1008.2 |
| 20260509025103 | 7 | 34 | 1.6 | 3.2 | 0.00 | 0.00 | 0.00 | 92 | 1008.2 |
| 20260509025024 | 7 | 37 | 1.6 | 9.7 | 0.00 | 0.00 | 0.00 | 92 | 1008.3 |
| 20260509024903 | 7 | 37 | 1.6 | 9.7 | 0.00 | 0.00 | 0.00 | 92 | 1008.4 |
| 20260509024803 | 7 | 41 | 1.6 | 9.7 | 0.00 | 0.00 | 0.00 | 92 | 1008.2 |
| 20260509024703 | 7 | 44 | 1.6 | 9.7 | 0.00 | 0.00 | 0.00 | 92 | 1008.2 |
| 20260509024603 | 7 | 48 | 1.6 | 9.7 | 0.00 | 0.00 | 0.00 | 92 | 1008.2 |
| 20260509024503 | 7 | 50 | 3.2 | 9.7 | 0.00 | 0.00 | 0.00 | 92 | 1008.2 |
| 20260509024403 | 7 | 52 | 3.2 | 9.7 | 0.00 | 0.00 | 0.00 | 92 | 1008.1 |
| 20260509024304 | 7 | 52 | 3.2 | 9.7 | 0.00 | 0.00 | 0.00 | 92 | 1008.3 |
| 20260509024203 | 7 | 54 | 3.2 | 9.7 | 0.00 | 0.00 | 0.00 | 92 | 1008.4 |
| 20260509024103 | 7 | 56 | 3.2 | 9.7 | 0.00 | 0.00 | 0.00 | 92 | 1008.2 |
| 20260509024003 | 7 | 57 | 3.2 | 9.7 | 0.00 | 0.00 | 0.00 | 92 | 1008.3 |
| 20260509023924 | 7 | 61 | 3.2 | 9.7 | 0.00 | 0.00 | 0.00 | 92 | 1008.1 |
| 20260509023803 | 7 | 60 | 3.2 | 6.4 | 0.00 | 0.00 | 0.00 | 92 | 1008.4 |
| 20260509023724 | 7 | 61 | 3.2 | 6.4 | 0.00 | 0.00 | 0.00 | 92 | 1008.5 |
| 20260509023604 | 7 | 62 | 3.2 | 6.4 | 0.00 | 0.00 | 0.00 | 92 | 1008.1 |
| 20260509023503 | 7 | 62 | 3.2 | 6.4 | 0.00 | 0.00 | 0.00 | 92 | 1008.5 |
| 20260509023403 | 7 | 61 | 3.2 | 6.4 | 0.00 | 0.00 | 0.00 | 93 | 1008.4 |
| 20260509023324 | 7 | 62 | 4.8 | 6.4 | 0.00 | 0.00 | 0.00 | 93 | 1008.5 |
| 20260509023204 | 7 | 64 | 4.8 | 6.4 | 0.00 | 0.00 | 0.00 | 93 | 1008.1 |
| 20260509023103 | 7 | 63 | 4.8 | 6.4 | 0.00 | 0.00 | 0.00 | 93 | 1008.2 |
| 20260509023003 | 7 | 64 | 4.8 | 6.4 | 0.00 | 0.00 | 0.00 | 93 | 1008.2 |
| 20260509022903 | 7 | 64 | 4.8 | 6.4 | 0.00 | 0.00 | 0.00 | 93 | 1008.2 |
| 20260509022803 | 7 | 64 | 4.8 | 6.4 | 0.00 | 0.00 | 0.00 | 93 | 1008.3 |
| 20260509022703 | 7 | 65 | 4.8 | 6.4 | 0.00 | 0.00 | 0.00 | 93 | 1008.3 |
| 20260509022604 | 7 | 65 | 4.8 | 6.4 | 0.00 | 0.00 | 0.00 | 93 | 1008.5 |
| 20260509022503 | 7 | 65 | 4.8 | 6.4 | 0.00 | 0.00 | 0.00 | 93 | 1008.6 |
| 20260509022403 | 7 | 65 | 4.8 | 6.4 | 0.00 | 0.00 | 0.00 | 93 | 1008.2 |
| 20260509022306 | 7 | 64 | 4.8 | 6.4 | 0.00 | 0.00 | 0.00 | 93 | 1008.5 |
| 20260509022203 | 7 | 64 | 4.8 | 6.4 | 0.00 | 0.00 | 0.00 | 93 | 1008.4 |
| 20260509022103 | 7 | 64 | 4.8 | 6.4 | 0.00 | 0.00 | 0.00 | 93 | 1008.3 |
| 20260509022003 | 7 | 65 | 3.2 | 6.4 | 0.00 | 0.00 | 0.00 | 93 | 1008.6 |
| 20260509021903 | 7 | 65 | 3.2 | 6.4 | 0.00 | 0.00 | 0.00 | 93 | 1008.6 |
| 20260509021824 | 7 | 65 | 3.2 | 6.4 | 0.00 | 0.00 | 0.00 | 93 | 1008.5 |
| 20260509021703 | 7 | 67 | 3.2 | 6.4 | 0.00 | 0.00 | 0.00 | 93 | 1008.7 |
| 20260509021604 | 7 | 68 | 3.2 | 6.4 | 0.00 | 0.00 | 0.00 | 93 | 1008.4 |
| 20260509021503 | 7 | 71 | 3.2 | 6.4 | 0.00 | 0.00 | 0.00 | 93 | 1008.6 |
| 20260509021404 | 7 | 73 | 3.2 | 6.4 | 0.00 | 0.00 | 0.00 | 93 | 1008.5 |
| 20260509021303 | 7 | 77 | 3.2 | 6.4 | 0.00 | 0.00 | 0.00 | 93 | 1008.3 |
| 20260509021204 | 7 | 79 | 4.8 | 6.4 | 0.00 | 0.00 | 0.00 | 93 | 1008.5 |
| 20260509021103 | 7 | 80 | 4.8 | 6.4 | 0.00 | 0.00 | 0.00 | 93 | 1008.7 |
| 20260509021004 | 7 | 81 | 4.8 | 6.4 | 0.00 | 0.00 | 0.00 | 93 | 1008.8 |
| 20260509020924 | 7 | 81 | 4.8 | 6.4 | 0.00 | 0.00 | 0.00 | 93 | 1008.5 |
| 20260509020803 | 7 | 80 | 4.8 | 9.7 | 0.00 | 0.00 | 0.00 | 93 | 1008.6 |
| 20260509020703 | 7 | 77 | 4.8 | 9.7 | 0.00 | 0.00 | 0.00 | 92 | 1008.8 |
| 20260509020603 | 7 | 76 | 4.8 | 9.7 | 0.00 | 0.00 | 0.00 | 92 | 1008.7 |
| 20260509020503 | 7 | 74 | 4.8 | 9.7 | 0.00 | 0.00 | 0.00 | 92 | 1008.5 |
| 20260509020403 | 7 | 73 | 4.8 | 9.7 | 0.00 | 0.00 | 0.00 | 92 | 1008.6 |
| 20260509020325 | 7 | 72 | 4.8 | 9.7 | 0.00 | 0.00 | 0.00 | 92 | 1008.8 |
| 20260509020203 | 7 | 67 | 3.2 | 9.7 | 0.00 | 0.00 | 0.00 | 91 | 1008.4 |
| 20260509020004 | 7 | 62 | 3.2 | 9.7 | 0.00 | 0.00 | 0.00 | 91 | 1008.6 |
| 20260509015903 | 7 | 59 | 3.2 | 9.7 | 0.00 | 0.00 | 0.00 | 91 | 1008.6 |
| 20260509015804 | 7 | 58 | 3.2 | 9.7 | 0.00 | 0.00 | 0.00 | 91 | 1008.4 |
| 20260509015703 | 7 | 54 | 3.2 | 9.7 | 0.00 | 0.00 | 0.00 | 91 | 1008.4 |
| 20260509015604 | 7 | 51 | 3.2 | 6.4 | 0.00 | 0.00 | 0.00 | 91 | 1008.6 |
| 20260509015503 | 7 | 48 | 1.6 | 6.4 | 0.00 | 0.00 | 0.00 | 91 | 1008.6 |
| 20260509015403 | 7 | 45 | 1.6 | 6.4 | 0.00 | 0.00 | 0.00 | 91 | 1008.6 |
| 20260509015324 | 7 | 41 | 1.6 | 6.4 | 0.00 | 0.00 | 0.00 | 91 | 1008.5 |
| 20260509015203 | 7 | 36 | 1.6 | 6.4 | 0.00 | 0.00 | 0.00 | 91 | 1008.7 |
| 20260509015103 | 7 | 31 | 1.6 | 4.8 | 0.00 | 0.00 | 0.00 | 91 | 1008.7 |
| 20260509015003 | 7 | 29 | 1.6 | 4.8 | 0.00 | 0.00 | 0.00 | 91 | 1008.5 |
| 20260509014925 | 7 | 27 | 1.6 | 4.8 | 0.00 | 0.00 | 0.00 | 91 | 1008.7 |
| 20260509014803 | 7 | 26 | 1.6 | 4.8 | 0.00 | 0.00 | 0.00 | 91 | 1008.6 |
| 20260509014703 | 7 | 29 | 1.6 | 4.8 | 0.00 | 0.00 | 0.00 | 91 | 1008.4 |
| 20260509014624 | 7 | 28 | 1.6 | 4.8 | 0.00 | 0.00 | 0.00 | 91 | 1008.4 |
| 20260509014504 | 7 | 28 | 1.6 | 4.8 | 0.00 | 0.00 | 0.00 | 91 | 1008.5 |
| 20260509014424 | 7 | 30 | 1.6 | 4.8 | 0.00 | 0.00 | 0.00 | 91 | 1008.5 |
| 20260509014303 | 7 | 31 | 1.6 | 4.8 | 0.00 | 0.00 | 0.00 | 91 | 1008.5 |
| 20260509014203 | 7 | 33 | 1.6 | 4.8 | 0.00 | 0.00 | 0.00 | 91 | 1008.3 |
| 20260509014103 | 7 | 34 | 1.6 | 4.8 | 0.00 | 0.00 | 0.00 | 91 | 1008.7 |
| 20260509014003 | 7 | 33 | 1.6 | 4.8 | 0.00 | 0.00 | 0.00 | 91 | 1008.5 |
| 20260509013903 | 7 | 36 | 3.2 | 4.8 | 0.00 | 0.00 | 0.00 | 91 | 1008.5 |
| 20260509013803 | 7 | 39 | 1.6 | 4.8 | 0.00 | 0.00 | 0.00 | 91 | 1008.4 |
| 20260509013703 | 7 | 41 | 3.2 | 6.4 | 0.00 | 0.00 | 0.00 | 91 | 1008.4 |
| 20260509013624 | 7 | 41 | 1.6 | 6.4 | 0.00 | 0.00 | 0.00 | 91 | 1008.3 |
| 20260509013503 | 7 | 44 | 3.2 | 6.4 | 0.00 | 0.00 | 0.00 | 91 | 1008.3 |
| 20260509013424 | 7 | 44 | 3.2 | 6.4 | 0.00 | 0.00 | 0.00 | 91 | 1008.4 |
| 20260509013303 | 7 | 46 | 3.2 | 6.4 | 0.00 | 0.00 | 0.00 | 91 | 1008.4 |
| 20260509013224 | 7 | 48 | 3.2 | 6.4 | 0.00 | 0.00 | 0.00 | 91 | 1008.6 |
| 20260509013104 | 7 | 48 | 1.6 | 6.4 | 0.00 | 0.00 | 0.00 | 91 | 1008.5 |
| 20260509013003 | 7 | 46 | 3.2 | 6.4 | 0.00 | 0.00 | 0.00 | 91 | 1008.5 |
| 20260509012903 | 7 | 47 | 3.2 | 6.4 | 0.00 | 0.00 | 0.00 | 91 | 1008.3 |
| 20260509012803 | 7 | 46 | 3.2 | 6.4 | 0.00 | 0.00 | 0.00 | 91 | 1008.5 |
| 20260509012703 | 7 | 46 | 3.2 | 6.4 | 0.00 | 0.00 | 0.00 | 91 | 1008.5 |
| 20260509012624 | 7 | 44 | 3.2 | 6.4 | 0.00 | 0.00 | 0.00 | 91 | 1008.5 |
| 20260509012524 | 7 | 44 | 3.2 | 6.4 | 0.00 | 0.00 | 0.00 | 91 | 1008.5 |
| 20260509012403 | 7 | 40 | 3.2 | 4.8 | 0.00 | 0.00 | 0.00 | 91 | 1008.3 |
| 20260509012306 | 7 | 35 | 3.2 | 4.8 | 0.00 | 0.00 | 0.00 | 91 | 1008.5 |
| 20260509012203 | 7 | 33 | 3.2 | 4.8 | 0.00 | 0.00 | 0.00 | 91 | 1008.7 |
| 20260509012103 | 7 | 31 | 3.2 | 4.8 | 0.00 | 0.00 | 0.00 | 91 | 1008.3 |
| 20260509012003 | 7 | 32 | 1.6 | 4.8 | 0.00 | 0.00 | 0.00 | 91 | 1008.6 |
| 20260509011903 | 7 | 30 | 1.6 | 4.8 | 0.00 | 0.00 | 0.00 | 91 | 1008.7 |
| 20260509011803 | 7 | 29 | 1.6 | 4.8 | 0.00 | 0.00 | 0.00 | 91 | 1008.3 |
| 20260509011724 | 7 | 26 | 1.6 | 4.8 | 0.00 | 0.00 | 0.00 | 91 | 1008.5 |
| 20260509011624 | 7 | 25 | 1.6 | 4.8 | 0.00 | 0.00 | 0.00 | 91 | 1008.3 |
| 20260509011503 | 8 | 22 | 1.6 | 4.8 | 0.00 | 0.00 | 0.00 | 91 | 1008.4 |
| 20260509011403 | 8 | 22 | 1.6 | 4.8 | 0.00 | 0.00 | 0.00 | 91 | 1008.4 |
| 20260509011304 | 8 | 25 | 1.6 | 4.8 | 0.00 | 0.00 | 0.00 | 91 | 1008.5 |
| 20260509011203 | 8 | 23 | 1.6 | 4.8 | 0.00 | 0.00 | 0.00 | 91 | 1008.6 |
| 20260509011103 | 8 | 23 | 1.6 | 4.8 | 0.00 | 0.00 | 0.00 | 91 | 1008.6 |
| 20260509011024 | 8 | 22 | 1.6 | 4.8 | 0.00 | 0.00 | 0.00 | 91 | 1008.7 |
| 20260509010904 | 8 | 20 | 1.6 | 4.8 | 0.00 | 0.00 | 0.00 | 91 | 1008.5 |
| 20260509010803 | 8 | 20 | 1.6 | 4.8 | 0.00 | 0.00 | 0.00 | 91 | 1008.6 |
| 20260509010703 | 8 | 23 | 1.6 | 4.8 | 0.00 | 0.00 | 0.00 | 91 | 1008.4 |
| 20260509010603 | 8 | 22 | 1.6 | 4.8 | 0.00 | 0.00 | 0.00 | 91 | 1008.5 |
| 20260509010503 | 8 | 24 | 1.6 | 4.8 | 0.00 | 0.00 | 0.00 | 91 | 1008.4 |
| 20260509010424 | 8 | 27 | 1.6 | 4.8 | 0.00 | 0.00 | 0.00 | 91 | 1008.6 |
| 20260509010303 | 8 | 27 | 1.6 | 4.8 | 0.00 | 0.00 | 0.00 | 91 | 1008.4 |
| 20260509010203 | 8 | 27 | 1.6 | 4.8 | 0.00 | 0.00 | 0.00 | 91 | 1008.4 |
| 20260509010124 | 8 | 26 | 1.6 | 4.8 | 0.00 | 0.00 | 0.00 | 91 | 1008.4 |
| 20260509010004 | 8 | 28 | 1.6 | 4.8 | 0.00 | 0.00 | 0.00 | 91 | 1008.4 |
| 20260509005903 | 8 | 30 | 3.2 | 4.8 | 0.00 | 0.00 | 0.00 | 91 | 1008.4 |
| 20260509005803 | 8 | 33 | 3.2 | 4.8 | 0.00 | 0.00 | 0.00 | 91 | 1008.5 |
| 20260509005703 | 8 | 32 | 3.2 | 4.8 | 0.00 | 0.00 | 0.00 | 91 | 1008.5 |
| 20260509005603 | 8 | 33 | 3.2 | 4.8 | 0.00 | 0.00 | 0.00 | 91 | 1008.4 |
| 20260509005503 | 8 | 35 | 3.2 | 4.8 | 0.00 | 0.00 | 0.00 | 91 | 1008.5 |
| 20260509005403 | 8 | 30 | 3.2 | 4.8 | 0.00 | 0.00 | 0.00 | 90 | 1008.6 |
| 20260509005306 | 8 | 30 | 3.2 | 4.8 | 0.00 | 0.00 | 0.00 | 90 | 1008.3 |
| 20260509005203 | 8 | 32 | 3.2 | 4.8 | 0.00 | 0.00 | 0.00 | 90 | 1008.3 |
| 20260509005104 | 8 | 34 | 3.2 | 4.8 | 0.00 | 0.00 | 0.00 | 90 | 1008.5 |
| 20260509005024 | 8 | 33 | 3.2 | 4.8 | 0.00 | 0.00 | 0.00 | 90 | 1008.2 |
| 20260509004903 | 8 | 34 | 3.2 | 4.8 | 0.00 | 0.00 | 0.00 | 90 | 1008.5 |
| 20260509004803 | 8 | 35 | 3.2 | 4.8 | 0.00 | 0.00 | 0.00 | 90 | 1008.4 |
| 20260509004703 | 8 | 34 | 3.2 | 4.8 | 0.00 | 0.00 | 0.00 | 90 | 1008.4 |
| 20260509004603 | 8 | 33 | 3.2 | 4.8 | 0.00 | 0.00 | 0.00 | 90 | 1008.4 |
| 20260509004503 | 8 | 31 | 3.2 | 6.4 | 0.00 | 0.00 | 0.00 | 90 | 1008.4 |
| 20260509004403 | 8 | 33 | 3.2 | 6.4 | 0.00 | 0.00 | 0.00 | 90 | 1008.5 |
| 20260509004303 | 8 | 29 | 3.2 | 9.7 | 0.00 | 0.00 | 0.00 | 90 | 1008.3 |
| 20260509004203 | 8 | 26 | 3.2 | 9.7 | 0.00 | 0.00 | 0.00 | 90 | 1008.2 |
| 20260509004103 | 8 | 28 | 3.2 | 9.7 | 0.00 | 0.00 | 0.00 | 90 | 1008.4 |
| 20260509004003 | 8 | 27 | 3.2 | 9.7 | 0.00 | 0.00 | 0.00 | 90 | 1008.4 |
| 20260509003924 | 8 | 27 | 3.2 | 9.7 | 0.00 | 0.00 | 0.00 | 89 | 1008.5 |
| 20260509003824 | 8 | 26 | 3.2 | 9.7 | 0.00 | 0.00 | 0.00 | 89 | 1008.3 |
| 20260509003724 | 8 | 25 | 3.2 | 9.7 | 0.00 | 0.00 | 0.00 | 89 | 1008.3 |
| 20260509003603 | 8 | 27 | 3.2 | 9.7 | 0.00 | 0.00 | 0.00 | 89 | 1008.4 |
| 20260509003503 | 8 | 27 | 3.2 | 9.7 | 0.00 | 0.00 | 0.00 | 89 | 1008.4 |
| 20260509003403 | 8 | 27 | 3.2 | 9.7 | 0.00 | 0.00 | 0.00 | 89 | 1008.4 |
| 20260509003303 | 8 | 28 | 3.2 | 9.7 | 0.00 | 0.00 | 0.00 | 89 | 1008.5 |
| 20260509003203 | 8 | 31 | 3.2 | 9.7 | 0.00 | 0.00 | 0.00 | 89 | 1008.4 |
| 20260509003103 | 8 | 30 | 3.2 | 6.4 | 0.00 | 0.00 | 0.00 | 89 | 1008.3 |
| 20260509003003 | 8 | 30 | 3.2 | 6.4 | 0.00 | 0.00 | 0.00 | 89 | 1008.4 |
| 20260509002903 | 8 | 30 | 3.2 | 6.4 | 0.00 | 0.00 | 0.00 | 89 | 1008.5 |
| 20260509002803 | 8 | 30 | 3.2 | 6.4 | 0.00 | 0.00 | 0.00 | 89 | 1008.4 |
| 20260509002704 | 8 | 26 | 3.2 | 6.4 | 0.00 | 0.00 | 0.00 | 89 | 1008.4 |
| 20260509002603 | 8 | 28 | 3.2 | 6.4 | 0.00 | 0.00 | 0.00 | 89 | 1008.4 |
| 20260509002503 | 8 | 28 | 3.2 | 6.4 | 0.00 | 0.00 | 0.00 | 89 | 1008.3 |
| 20260509002403 | 8 | 23 | 3.2 | 6.4 | 0.00 | 0.00 | 0.00 | 89 | 1008.4 |
| 20260509002306 | 8 | 24 | 3.2 | 6.4 | 0.00 | 0.00 | 0.00 | 89 | 1008.3 |
| 20260509002203 | 8 | 22 | 3.2 | 6.4 | 0.00 | 0.00 | 0.00 | 89 | 1008.4 |
| 20260509002103 | 8 | 20 | 3.2 | 6.4 | 0.00 | 0.00 | 0.00 | 89 | 1008.3 |
| 20260509002003 | 8 | 18 | 3.2 | 6.4 | 0.00 | 0.00 | 0.00 | 89 | 1008.5 |
| 20260509001903 | 8 | 19 | 3.2 | 6.4 | 0.00 | 0.00 | 0.00 | 89 | 1008.4 |
| 20260509001803 | 8 | 21 | 3.2 | 6.4 | 0.00 | 0.00 | 0.00 | 89 | 1008.4 |
| 20260509001703 | 8 | 21 | 3.2 | 6.4 | 0.00 | 0.00 | 0.00 | 89 | 1008.3 |
| 20260509001603 | 8 | 23 | 3.2 | 6.4 | 0.00 | 0.00 | 0.00 | 89 | 1008.1 |
| 20260509001503 | 8 | 24 | 3.2 | 6.4 | 0.00 | 0.00 | 0.00 | 89 | 1008.3 |
| 20260509001403 | 8 | 25 | 3.2 | 6.4 | 0.00 | 0.00 | 0.00 | 89 | 1008.4 |
| 20260509001303 | 8 | 25 | 3.2 | 6.4 | 0.00 | 0.00 | 0.00 | 89 | 1008.4 |
| 20260509001203 | 8 | 29 | 3.2 | 6.4 | 0.00 | 0.00 | 0.00 | 89 | 1008.3 |
| 20260509001124 | 8 | 31 | 3.2 | 6.4 | 0.00 | 0.00 | 0.00 | 89 | 1008.3 |
| 20260509001003 | 8 | 35 | 3.2 | 6.4 | 0.00 | 0.00 | 0.00 | 89 | 1008.3 |
| 20260509000924 | 8 | 34 | 3.2 | 6.4 | 0.00 | 0.00 | 0.00 | 89 | 1008.4 |
| 20260509000824 | 8 | 34 | 3.2 | 6.4 | 0.00 | 0.00 | 0.00 | 89 | 1008.2 |
| 20260509000703 | 8 | 34 | 3.2 | 6.4 | 0.00 | 0.00 | 0.00 | 89 | 1008.4 |
| 20260509000624 | 8 | 32 | 3.2 | 6.4 | 0.00 | 0.00 | 0.00 | 89 | 1008.6 |
| 20260509000503 | 8 | 27 | 3.2 | 6.4 | 0.00 | 0.00 | 0.00 | 89 | 1008.4 |
| 20260509000425 | 8 | 28 | 3.2 | 6.4 | 0.00 | 0.00 | 0.00 | 89 | 1008.3 |
| 20260509000304 | 8 | 28 | 3.2 | 6.4 | 0.00 | 0.00 | 0.00 | 89 | 1008.5 |
| 20260509000204 | 8 | 27 | 3.2 | 6.4 | 0.00 | 0.00 | 0.00 | 89 | 1008.5 |
| 20260509000104 | 8 | 22 | 3.2 | 6.4 | 0.00 | 0.00 | 0.00 | 89 | 1008.5 |
| 20260509000003 | 8 | 20 | 3.2 | 6.4 | 0.00 | 0.00 | 0.00 | 89 | 1008.6 |
| 20260508235925 | 8 | 20 | 3.2 | 6.4 | 0.00 | 0.00 | 0.00 | 89 | 1008.4 |
| 20260508235824 | 8 | 18 | 3.2 | 6.4 | 0.00 | 0.00 | 0.00 | 89 | 1008.5 |
| 20260508235703 | 8 | 16 | 3.2 | 6.4 | 0.00 | 0.00 | 0.00 | 89 | 1008.5 |
| 20260508235603 | 8 | 16 | 3.2 | 6.4 | 0.00 | 0.00 | 0.00 | 89 | 1008.6 |
| 20260508235504 | 8 | 17 | 3.2 | 6.4 | 0.00 | 0.00 | 0.00 | 89 | 1008.4 |
| 20260508235403 | 8 | 18 | 3.2 | 6.4 | 0.00 | 0.00 | 0.00 | 89 | 1008.5 |
| 20260508235306 | 8 | 18 | 3.2 | 6.4 | 0.00 | 0.00 | 0.00 | 89 | 1008.4 |
| 20260508235203 | 8 | 17 | 3.2 | 6.4 | 0.00 | 0.00 | 0.00 | 89 | 1008.6 |
| 20260508235103 | 8 | 21 | 3.2 | 6.4 | 0.00 | 0.00 | 0.00 | 89 | 1008.5 |
| 20260508235025 | 8 | 21 | 3.2 | 6.4 | 0.00 | 0.00 | 0.00 | 89 | 1008.5 |
| 20260508234903 | 8 | 25 | 3.2 | 6.4 | 0.00 | 0.00 | 0.00 | 89 | 1008.7 |
| 20260508234825 | 9 | 26 | 3.2 | 6.4 | 0.00 | 0.00 | 0.00 | 89 | 1008.6 |
| 20260508234703 | 9 | 34 | 3.2 | 6.4 | 0.00 | 0.00 | 0.00 | 89 | 1008.5 |
| 20260508234603 | 9 | 39 | 3.2 | 6.4 | 0.00 | 0.00 | 0.00 | 89 | 1008.5 |
| 20260508234503 | 9 | 40 | 3.2 | 6.4 | 0.00 | 0.00 | 0.00 | 89 | 1008.4 |
| 20260508234403 | 9 | 40 | 3.2 | 6.4 | 0.00 | 0.00 | 0.00 | 89 | 1008.5 |
| 20260508234303 | 9 | 43 | 3.2 | 6.4 | 0.00 | 0.00 | 0.00 | 89 | 1008.4 |
| 20260508234224 | 9 | 43 | 3.2 | 6.4 | 0.00 | 0.00 | 0.00 | 89 | 1008.4 |
| 20260508234124 | 9 | 43 | 3.2 | 6.4 | 0.00 | 0.00 | 0.00 | 89 | 1008.6 |
| 20260508234004 | 9 | 40 | 3.2 | 9.7 | 0.00 | 0.00 | 0.00 | 89 | 1008.3 |
| 20260508233903 | 9 | 41 | 3.2 | 9.7 | 0.00 | 0.00 | 0.00 | 89 | 1008.5 |
| 20260508233803 | 9 | 41 | 3.2 | 9.7 | 0.00 | 0.00 | 0.00 | 89 | 1008.4 |
| 20260508233724 | 9 | 44 | 3.2 | 9.7 | 0.00 | 0.00 | 0.00 | 89 | 1008.5 |
| 20260508233603 | 9 | 44 | 3.2 | 9.7 | 0.00 | 0.00 | 0.00 | 88 | 1008.4 |
| 20260508233503 | 9 | 46 | 3.2 | 9.7 | 0.00 | 0.00 | 0.00 | 88 | 1008.6 |
| 20260508233403 | 9 | 47 | 3.2 | 9.7 | 0.00 | 0.00 | 0.00 | 88 | 1008.5 |
| 20260508233324 | 9 | 47 | 3.2 | 9.7 | 0.00 | 0.00 | 0.00 | 88 | 1008.6 |
| 20260508233203 | 9 | 52 | 4.8 | 11.3 | 0.00 | 0.00 | 0.00 | 88 | 1008.3 |
| 20260508233103 | 9 | 54 | 4.8 | 11.3 | 0.00 | 0.00 | 0.00 | 88 | 1008.4 |
| 20260508233024 | 9 | 57 | 4.8 | 11.3 | 0.00 | 0.00 | 0.00 | 88 | 1008.5 |
| 20260508232903 | 9 | 60 | 4.8 | 11.3 | 0.00 | 0.00 | 0.00 | 88 | 1008.7 |
| 20260508232803 | 9 | 64 | 4.8 | 11.3 | 0.00 | 0.00 | 0.00 | 88 | 1008.3 |
| 20260508232725 | 9 | 64 | 4.8 | 11.3 | 0.00 | 0.00 | 0.00 | 88 | 1008.4 |
| 20260508232603 | 9 | 66 | 4.8 | 11.3 | 0.00 | 0.00 | 0.00 | 89 | 1008.7 |
| 20260508232503 | 9 | 66 | 4.8 | 11.3 | 0.00 | 0.00 | 0.00 | 89 | 1008.4 |
| 20260508232403 | 9 | 66 | 4.8 | 11.3 | 0.00 | 0.00 | 0.00 | 89 | 1008.5 |
| 20260508232306 | 9 | 66 | 4.8 | 11.3 | 0.00 | 0.00 | 0.00 | 88 | 1008.6 |
| 20260508232203 | 9 | 64 | 4.8 | 11.3 | 0.00 | 0.00 | 0.00 | 88 | 1008.6 |
| 20260508232103 | 9 | 64 | 4.8 | 11.3 | 0.00 | 0.00 | 0.00 | 88 | 1008.5 |
| 20260508232024 | 9 | 62 | 4.8 | 11.3 | 0.00 | 0.00 | 0.00 | 88 | 1008.3 |
| 20260508231924 | 9 | 61 | 4.8 | 11.3 | 0.00 | 0.00 | 0.00 | 88 | 1008.4 |
| 20260508231803 | 9 | 57 | 3.2 | 9.7 | 0.00 | 0.00 | 0.00 | 87 | 1008.4 |
| 20260508231703 | 9 | 52 | 3.2 | 9.7 | 0.00 | 0.00 | 0.00 | 87 | 1008.3 |
| 20260508231624 | 9 | 51 | 3.2 | 9.7 | 0.00 | 0.00 | 0.00 | 87 | 1008.5 |
| 20260508231525 | 9 | 48 | 3.2 | 9.7 | 0.00 | 0.00 | 0.00 | 87 | 1008.6 |
| 20260508231424 | 9 | 45 | 3.2 | 9.7 | 0.00 | 0.00 | 0.00 | 87 | 1008.3 |
| 20260508231303 | 9 | 40 | 3.2 | 9.7 | 0.00 | 0.00 | 0.00 | 87 | 1008.4 |
| 20260508231203 | 9 | 40 | 3.2 | 4.8 | 0.00 | 0.00 | 0.00 | 87 | 1008.5 |
| 20260508231103 | 9 | 38 | 3.2 | 4.8 | 0.00 | 0.00 | 0.00 | 87 | 1008.4 |
| 20260508231003 | 9 | 40 | 3.2 | 4.8 | 0.00 | 0.00 | 0.00 | 87 | 1008.4 |
| 20260508230903 | 9 | 42 | 3.2 | 4.8 | 0.00 | 0.00 | 0.00 | 87 | 1008.6 |
| 20260508230803 | 9 | 44 | 3.2 | 4.8 | 0.00 | 0.00 | 0.00 | 87 | 1008.5 |
| 20260508230703 | 9 | 44 | 3.2 | 4.8 | 0.00 | 0.00 | 0.00 | 87 | 1008.5 |
| 20260508230603 | 9 | 43 | 3.2 | 4.8 | 0.00 | 0.00 | 0.00 | 87 | 1008.2 |
| 20260508230524 | 9 | 47 | 3.2 | 4.8 | 0.00 | 0.00 | 0.00 | 87 | 1008.4 |
| 20260508230403 | 9 | 48 | 3.2 | 4.8 | 0.00 | 0.00 | 0.00 | 87 | 1008.4 |
| 20260508230303 | 9 | 51 | 3.2 | 4.8 | 0.00 | 0.00 | 0.00 | 87 | 1008.5 |
| 20260508230203 | 9 | 49 | 3.2 | 4.8 | 0.00 | 0.00 | 0.00 | 87 | 1008.5 |
| 20260508230103 | 9 | 47 | 3.2 | 4.8 | 0.00 | 0.00 | 0.00 | 87 | 1008.5 |
| 20260508230003 | 9 | 45 | 3.2 | 4.8 | 0.00 | 0.00 | 0.00 | 88 | 1008.4 |
| 20260508225924 | 9 | 42 | 3.2 | 4.8 | 0.00 | 0.00 | 0.00 | 88 | 1008.3 |
| 20260508225824 | 9 | 40 | 3.2 | 4.8 | 0.00 | 0.00 | 0.00 | 88 | 1008.4 |
| 20260508225724 | 9 | 40 | 3.2 | 4.8 | 0.00 | 0.00 | 0.00 | 88 | 1008.5 |
| 20260508225603 | 9 | 42 | 3.2 | 4.8 | 0.00 | 0.00 | 0.00 | 88 | 1008.3 |
| 20260508225524 | 9 | 40 | 1.6 | 4.8 | 0.00 | 0.00 | 0.00 | 88 | 1008.4 |
| 20260508225424 | 9 | 37 | 3.2 | 4.8 | 0.00 | 0.00 | 0.00 | 88 | 1008.3 |
| 20260508225324 | 10 | 34 | 1.6 | 4.8 | 0.00 | 0.00 | 0.00 | 88 | 1008.5 |
| 20260508225224 | 10 | 29 | 1.6 | 4.8 | 0.00 | 0.00 | 0.00 | 88 | 1008.2 |
| 20260508225103 | 10 | 32 | 1.6 | 6.4 | 0.00 | 0.00 | 0.00 | 88 | 1008.5 |
| 20260508225003 | 10 | 30 | 1.6 | 6.4 | 0.00 | 0.00 | 0.00 | 88 | 1008.3 |
| 20260508224903 | 10 | 29 | 1.6 | 6.4 | 0.00 | 0.00 | 0.00 | 88 | 1008.4 |
| 20260508224803 | 10 | 27 | 1.6 | 6.4 | 0.00 | 0.00 | 0.00 | 89 | 1008.4 |
| 20260508224703 | 10 | 25 | 1.6 | 6.4 | 0.00 | 0.00 | 0.00 | 89 | 1008.3 |
| 20260508224603 | 10 | 21 | 1.6 | 6.4 | 0.00 | 0.00 | 0.00 | 89 | 1008.4 |
| 20260508224503 | 10 | 20 | 1.6 | 6.4 | 0.00 | 0.00 | 0.00 | 89 | 1008.2 |
| 20260508224403 | 10 | 19 | 1.6 | 6.4 | 0.00 | 0.00 | 0.00 | 89 | 1008.4 |
| 20260508224303 | 10 | 17 | 1.6 | 6.4 | 0.00 | 0.00 | 0.00 | 89 | 1008.3 |
| 20260508224203 | 10 | 17 | 1.6 | 6.4 | 0.00 | 0.00 | 0.00 | 89 | 1008.3 |
| 20260508224103 | 10 | 15 | 1.6 | 6.4 | 0.00 | 0.00 | 0.00 | 89 | 1008.2 |
| 20260508224024 | 10 | 12 | 1.6 | 6.4 | 0.00 | 0.00 | 0.00 | 90 | 1008.5 |
| 20260508223903 | 10 | 12 | 1.6 | 6.4 | 0.00 | 0.00 | 0.00 | 90 | 1008.5 |
| 20260508223803 | 10 | 11 | 1.6 | 6.4 | 0.00 | 0.00 | 0.00 | 90 | 1008.5 |
| 20260508223703 | 10 | 8 | 1.6 | 6.4 | 0.00 | 0.00 | 0.00 | 91 | 1008.3 |
| 20260508223603 | 10 | 8 | 1.6 | 4.8 | 0.00 | 0.00 | 0.00 | 91 | 1008.4 |
| 20260508223504 | 10 | 8 | 1.6 | 4.8 | 0.00 | 0.00 | 0.00 | 91 | 1008.2 |
| 20260508223424 | 10 | 7 | 1.6 | 4.8 | 0.00 | 0.00 | 0.00 | 91 | 1008.3 |
| 20260508223303 | 10 | 6 | 3.2 | 4.8 | 0.00 | 0.00 | 0.00 | 91 | 1008.5 |
| 20260508223203 | 10 | 5 | 3.2 | 4.8 | 0.00 | 0.00 | 0.00 | 91 | 1008.2 |
| 20260508223103 | 10 | 5 | 3.2 | 4.8 | 0.00 | 0.00 | 0.00 | 92 | 1008.4 |
| 20260508223003 | 10 | 5 | 1.6 | 4.8 | 0.00 | 0.00 | 0.00 | 92 | 1008.3 |
| 20260508222903 | 10 | 5 | 1.6 | 4.8 | 0.00 | 0.00 | 0.00 | 92 | 1008.1 |
| 20260508222824 | 10 | 5 | 1.6 | 4.8 | 0.00 | 0.00 | 0.00 | 92 | 1008.4 |
| 20260508222724 | 10 | 4 | 1.6 | 4.8 | 0.00 | 0.00 | 0.00 | 92 | 1008.3 |
| 20260508222603 | 10 | 3 | 1.6 | 4.8 | 0.00 | 0.00 | 0.00 | 92 | 1008.4 |
| 20260508222503 | 10 | 3 | 1.6 | 4.8 | 0.00 | 0.00 | 0.00 | 92 | 1008.3 |
| 20260508222403 | 10 | 1 | 1.6 | 4.8 | 0.00 | 0.00 | 0.00 | 92 | 1008.4 |
| 20260508222324 | 10 | 1 | 1.6 | 4.8 | 0.00 | 0.00 | 0.00 | 92 | 1008.2 |
| 20260508222203 | 10 | 1 | 1.6 | 4.8 | 0.00 | 0.00 | 0.00 | 92 | 1008.4 |
| 20260508222103 | 10 | 1 | 1.6 | 3.2 | 0.00 | 0.00 | 0.00 | 92 | 1008.4 |
| 20260508222003 | 10 | 1 | 1.6 | 3.2 | 0.00 | 0.00 | 0.00 | 92 | 1008.5 |
| 20260508221903 | 10 | 1 | 1.6 | 3.2 | 0.00 | 0.00 | 0.00 | 92 | 1008.3 |
| 20260508221803 | 10 | 2 | 1.6 | 3.2 | 0.00 | 0.00 | 0.00 | 92 | 1008.5 |
| 20260508221703 | 10 | 3 | 1.6 | 3.2 | 0.00 | 0.00 | 0.00 | 92 | 1008.4 |
| 20260508221624 | 10 | 4 | 1.6 | 3.2 | 0.00 | 0.00 | 0.00 | 92 | 1008.4 |
| 20260508221503 | 10 | 3 | 1.6 | 3.2 | 0.00 | 0.00 | 0.00 | 92 | 1008.2 |
| 20260508221403 | 10 | 5 | 1.6 | 3.2 | 0.00 | 0.00 | 0.00 | 92 | 1008.3 |
| 20260508221324 | 10 | 6 | 1.6 | 3.2 | 0.00 | 0.00 | 0.00 | 91 | 1008.0 |
| 20260508221203 | 10 | 7 | 1.6 | 3.2 | 0.00 | 0.00 | 0.00 | 91 | 1008.3 |
| 20260508221103 | 10 | 9 | 1.6 | 3.2 | 0.00 | 0.00 | 0.00 | 91 | 1008.3 |
| 20260508221003 | 10 | 11 | 1.6 | 3.2 | 0.00 | 0.00 | 0.00 | 91 | 1008.3 |
| 20260508220903 | 10 | 10 | 1.6 | 3.2 | 0.00 | 0.00 | 0.00 | 91 | 1008.0 |
| 20260508220824 | 10 | 10 | 1.6 | 3.2 | 0.00 | 0.00 | 0.00 | 91 | 1008.3 |
| 20260508220703 | 10 | 10 | 1.6 | 3.2 | 0.00 | 0.00 | 0.00 | 91 | 1008.3 |
| 20260508220603 | 10 | 10 | 1.6 | 3.2 | 0.00 | 0.00 | 0.00 | 91 | 1008.3 |
| 20260508220503 | 10 | 10 | 1.6 | 3.2 | 0.00 | 0.00 | 0.00 | 91 | 1008.2 |
| 20260508220403 | 10 | 10 | 1.6 | 3.2 | 0.00 | 0.00 | 0.00 | 91 | 1008.2 |
| 20260508220303 | 10 | 11 | 1.6 | 3.2 | 0.00 | 0.00 | 0.00 | 90 | 1008.3 |
| 20260508220203 | 10 | 11 | 1.6 | 3.2 | 0.00 | 0.00 | 0.00 | 90 | 1008.2 |
| 20260508220124 | 10 | 12 | 1.6 | 3.2 | 0.00 | 0.00 | 0.00 | 90 | 1008.2 |
| 20260508220024 | 10 | 11 | 1.6 | 3.2 | 0.00 | 0.00 | 0.00 | 90 | 1008.2 |
| 20260508215903 | 10 | 13 | 1.6 | 3.2 | 0.00 | 0.00 | 0.00 | 90 | 1008.1 |
| 20260508215803 | 10 | 13 | 1.6 | 3.2 | 0.00 | 0.00 | 0.00 | 90 | 1008.0 |
| 20260508215703 | 10 | 13 | 1.6 | 3.2 | 0.00 | 0.00 | 0.00 | 90 | 1008.1 |
| 20260508215603 | 10 | 13 | 1.6 | 3.2 | 0.00 | 0.00 | 0.00 | 90 | 1008.0 |
| 20260508215503 | 10 | 13 | 1.6 | 3.2 | 0.00 | 0.00 | 0.00 | 90 | 1008.1 |
| 20260508215403 | 10 | 14 | 1.6 | 3.2 | 0.00 | 0.00 | 0.00 | 90 | 1008.1 |
| 20260508215306 | 10 | 14 | 1.6 | 3.2 | 0.00 | 0.00 | 0.00 | 90 | 1008.0 |
| 20260508215203 | 10 | 14 | 0.0 | 3.2 | 0.00 | 0.00 | 0.00 | 91 | 1008.0 |
| 20260508215124 | 10 | 14 | 0.0 | 3.2 | 0.00 | 0.00 | 0.00 | 91 | 1008.0 |
| 20260508215003 | 10 | 14 | 0.0 | 1.6 | 0.00 | 0.00 | 0.00 | 91 | 1008.0 |
| 20260508214903 | 10 | 14 | 0.0 | 1.6 | 0.00 | 0.00 | 0.00 | 91 | 1007.8 |
| 20260508214824 | 10 | 14 | 0.0 | 1.6 | 0.00 | 0.00 | 0.00 | 91 | 1007.8 |
| 20260508214724 | 10 | 14 | 0.0 | 1.6 | 0.00 | 0.00 | 0.00 | 92 | 1007.9 |
| 20260508214603 | 10 | 14 | 0.0 | 3.2 | 0.00 | 0.00 | 0.00 | 92 | 1008.0 |
| 20260508214503 | 10 | 14 | 0.0 | 3.2 | 0.00 | 0.00 | 0.00 | 92 | 1008.1 |
| 20260508214403 | 10 | 14 | 0.0 | 3.2 | 0.00 | 0.00 | 0.00 | 92 | 1008.1 |
| 20260508214303 | 10 | 14 | 0.0 | 3.2 | 0.00 | 0.00 | 0.00 | 92 | 1008.0 |
| 20260508214203 | 10 | 14 | 1.6 | 3.2 | 0.00 | 0.00 | 0.00 | 92 | 1008.1 |
| 20260508214124 | 10 | 14 | 1.6 | 3.2 | 0.00 | 0.00 | 0.00 | 92 | 1008.1 |
| 20260508214003 | 10 | 14 | 1.6 | 3.2 | 0.00 | 0.00 | 0.00 | 92 | 1008.1 |
| 20260508213903 | 10 | 14 | 1.6 | 3.2 | 0.00 | 0.00 | 0.00 | 93 | 1008.1 |
| 20260508213824 | 10 | 14 | 1.6 | 3.2 | 0.00 | 0.00 | 0.00 | 93 | 1008.3 |
| 20260508213703 | 10 | 14 | 1.6 | 3.2 | 0.00 | 0.00 | 0.00 | 93 | 1008.2 |
| 20260508213603 | 10 | 14 | 1.6 | 3.2 | 0.00 | 0.00 | 0.00 | 93 | 1008.0 |
| 20260508213503 | 9 | 14 | 0.0 | 3.2 | 0.00 | 0.00 | 0.00 | 93 | 1008.1 |
| 20260508213403 | 9 | 14 | 0.0 | 3.2 | 0.00 | 0.00 | 0.00 | 94 | 1007.9 |
| 20260508213324 | 9 | 14 | 0.0 | 3.2 | 0.00 | 0.00 | 0.00 | 94 | 1008.1 |
| 20260508213203 | 10 | 14 | 0.0 | 1.6 | 0.00 | 0.00 | 0.00 | 94 | 1007.9 |
| 20260508213103 | 10 | 14 | 0.0 | 3.2 | 0.00 | 0.00 | 0.00 | 94 | 1007.9 |
| 20260508213003 | 10 | 14 | 0.0 | 3.2 | 0.00 | 0.00 | 0.00 | 94 | 1008.0 |
| 20260508212903 | 10 | 14 | 0.0 | 3.2 | 0.00 | 0.00 | 0.00 | 94 | 1008.0 |
| 20260508212803 | 10 | 14 | 1.6 | 3.2 | 0.00 | 0.00 | 0.00 | 94 | 1008.0 |
| 20260508212703 | 10 | 14 | 1.6 | 3.2 | 0.00 | 0.00 | 0.00 | 94 | 1007.9 |
| 20260508212603 | 10 | 14 | 1.6 | 3.2 | 0.00 | 0.00 | 0.00 | 94 | 1007.9 |
| 20260508212503 | 10 | 14 | 1.6 | 3.2 | 0.00 | 0.00 | 0.00 | 94 | 1007.8 |
| 20260508212403 | 10 | 14 | 1.6 | 3.2 | 0.00 | 0.00 | 0.00 | 94 | 1007.9 |
| 20260508212306 | 10 | 14 | 1.6 | 3.2 | 0.00 | 0.00 | 0.00 | 94 | 1007.9 |
| 20260508212203 | 10 | 14 | 1.6 | 3.2 | 0.00 | 0.00 | 0.00 | 94 | 1008.0 |
| 20260508212103 | 10 | 13 | 1.6 | 3.2 | 0.00 | 0.00 | 0.00 | 94 | 1007.9 |
| 20260508212003 | 10 | 12 | 1.6 | 3.2 | 0.00 | 0.00 | 0.00 | 94 | 1008.0 |
| 20260508211903 | 10 | 11 | 1.6 | 3.2 | 0.00 | 0.00 | 0.00 | 94 | 1008.0 |
| 20260508211803 | 10 | 11 | 1.6 | 3.2 | 0.00 | 0.00 | 0.00 | 94 | 1007.8 |
| 20260508211704 | 10 | 10 | 1.6 | 3.2 | 0.00 | 0.00 | 0.00 | 94 | 1008.0 |
| 20260508211604 | 10 | 9 | 1.6 | 3.2 | 0.00 | 0.00 | 0.00 | 94 | 1008.0 |
| 20260508211525 | 10 | 8 | 1.6 | 3.2 | 0.00 | 0.00 | 0.00 | 93 | 1008.0 |
| 20260508211404 | 10 | 6 | 1.6 | 3.2 | 0.00 | 0.00 | 0.00 | 93 | 1007.8 |
| 20260508211304 | 10 | 5 | 1.6 | 3.2 | 0.00 | 0.00 | 0.00 | 93 | 1008.0 |
| 20260508211204 | 10 | 4 | 1.6 | 3.2 | 0.00 | 0.00 | 0.00 | 93 | 1007.9 |
| 20260508211104 | 10 | 3 | 1.6 | 3.2 | 0.00 | 0.00 | 0.00 | 92 | 1008.0 |
| 20260508211004 | 10 | 2 | 1.6 | 3.2 | 0.00 | 0.00 | 0.00 | 92 | 1007.9 |
| 20260508210925 | 10 | 2 | 1.6 | 3.2 | 0.00 | 0.00 | 0.00 | 92 | 1007.9 |
| 20260508210804 | 10 | 1 | 1.6 | 3.2 | 0.00 | 0.00 | 0.00 | 91 | 1007.9 |
| 20260508210704 | 10 | 360 | 1.6 | 3.2 | 0.00 | 0.00 | 0.00 | 91 | 1008.0 |
| 20260508210605 | 10 | 358 | 1.6 | 3.2 | 0.00 | 0.00 | 0.00 | 90 | 1007.9 |
| 20260508210504 | 10 | 358 | 1.6 | 3.2 | 0.00 | 0.00 | 0.00 | 89 | 1007.8 |
| 20260508210404 | 10 | 358 | 0.0 | 1.6 | 0.00 | 0.00 | 0.00 | 89 | 1007.9 |
| 20260508210305 | 10 | 358 | 0.0 | 1.6 | 0.00 | 0.00 | 0.00 | 88 | 1007.9 |
| 20260508210204 | 10 | 358 | 0.0 | 1.6 | 0.00 | 0.00 | 0.00 | 88 | 1007.8 |
| 20260508210105 | 10 | 358 | 0.0 | 1.6 | 0.00 | 0.00 | 0.00 | 88 | 1007.9 |
| 20260508210025 | 10 | 358 | 0.0 | 1.6 | 0.00 | 0.00 | 0.00 | 88 | 1007.9 |
| 20260508205904 | 10 | 358 | 0.0 | 3.2 | 0.00 | 0.00 | 0.00 | 88 | 1007.7 |
| 20260508205825 | 10 | 358 | 0.0 | 3.2 | 0.00 | 0.00 | 0.00 | 88 | 1008.0 |
| 20260508205725 | 10 | 358 | 0.0 | 3.2 | 0.00 | 0.00 | 0.00 | 88 | 1008.0 |
| 20260508205626 | 10 | 358 | 1.6 | 3.2 | 0.00 | 0.00 | 0.00 | 88 | 1008.0 |
| 20260508205504 | 10 | 358 | 1.6 | 3.2 | 0.00 | 0.00 | 0.00 | 88 | 1007.9 |
| 20260508205404 | 10 | 358 | 1.6 | 3.2 | 0.00 | 0.00 | 0.00 | 88 | 1007.7 |
| 20260508205325 | 10 | 358 | 1.6 | 3.2 | 0.00 | 0.00 | 0.00 | 88 | 1007.9 |
| 20260508205225 | 10 | 358 | 1.6 | 3.2 | 0.00 | 0.00 | 0.00 | 87 | 1007.6 |
| 20260508205105 | 10 | 358 | 1.6 | 3.2 | 0.00 | 0.00 | 0.00 | 87 | 1007.9 |
| 20260508205004 | 10 | 358 | 1.6 | 3.2 | 0.00 | 0.00 | 0.00 | 86 | 1007.9 |
| 20260508204904 | 10 | 358 | 1.6 | 3.2 | 0.00 | 0.00 | 0.00 | 86 | 1007.8 |
| 20260508204804 | 10 | 358 | 1.6 | 3.2 | 0.00 | 0.00 | 0.00 | 85 | 1007.6 |
| 20260508204704 | 10 | 358 | 0.0 | 3.2 | 0.00 | 0.00 | 0.00 | 85 | 1007.6 |
| 20260508204604 | 11 | 358 | 0.0 | 3.2 | 0.00 | 0.00 | 0.00 | 84 | 1007.7 |
| 20260508204525 | 11 | 358 | 0.0 | 3.2 | 0.00 | 0.00 | 0.00 | 84 | 1007.6 |
| 20260508204404 | 11 | 358 | 1.6 | 3.2 | 0.00 | 0.00 | 0.00 | 84 | 1007.8 |
| 20260508204304 | 11 | 358 | 1.6 | 3.2 | 0.00 | 0.00 | 0.00 | 84 | 1007.7 |
| 20260508204226 | 11 | 358 | 1.6 | 3.2 | 0.00 | 0.00 | 0.00 | 84 | 1007.9 |
| 20260508204104 | 11 | 358 | 1.6 | 3.2 | 0.00 | 0.00 | 0.00 | 84 | 1007.8 |
| 20260508204026 | 11 | 358 | 1.6 | 3.2 | 0.00 | 0.00 | 0.00 | 84 | 1007.7 |
| 20260508203904 | 11 | 359 | 1.6 | 3.2 | 0.00 | 0.00 | 0.00 | 84 | 1007.7 |
| 20260508203804 | 11 | 359 | 1.6 | 3.2 | 0.00 | 0.00 | 0.00 | 84 | 1007.7 |
| 20260508203704 | 11 | 1 | 1.6 | 3.2 | 0.00 | 0.00 | 0.00 | 84 | 1007.6 |
| 20260508203604 | 11 | 2 | 1.6 | 3.2 | 0.00 | 0.00 | 0.00 | 83 | 1007.8 |
| 20260508203504 | 11 | 3 | 1.6 | 3.2 | 0.00 | 0.00 | 0.00 | 83 | 1007.5 |
| 20260508203404 | 11 | 4 | 1.6 | 3.2 | 0.00 | 0.00 | 0.00 | 83 | 1007.6 |
| 20260508203305 | 11 | 5 | 1.6 | 3.2 | 0.00 | 0.00 | 0.00 | 83 | 1007.5 |
| 20260508203204 | 11 | 6 | 1.6 | 3.2 | 0.00 | 0.00 | 0.00 | 83 | 1007.8 |
| 20260508203105 | 11 | 8 | 1.6 | 3.2 | 0.00 | 0.00 | 0.00 | 83 | 1007.5 |
| 20260508203004 | 11 | 9 | 0.0 | 3.2 | 0.00 | 0.00 | 0.00 | 83 | 1007.6 |
| 20260508202925 | 11 | 10 | 0.0 | 3.2 | 0.00 | 0.00 | 0.00 | 83 | 1007.5 |
| 20260508202804 | 11 | 11 | 0.0 | 3.2 | 0.00 | 0.00 | 0.00 | 83 | 1007.6 |
| 20260508202704 | 11 | 11 | 0.0 | 3.2 | 0.00 | 0.00 | 0.00 | 83 | 1007.6 |
| 20260508202626 | 11 | 11 | 0.0 | 3.2 | 0.00 | 0.00 | 0.00 | 83 | 1007.6 |
| 20260508202504 | 11 | 10 | 0.0 | 3.2 | 0.00 | 0.00 | 0.00 | 83 | 1007.6 |
| 20260508202405 | 11 | 10 | 0.0 | 3.2 | 0.00 | 0.00 | 0.00 | 83 | 1007.5 |
| 20260508202307 | 11 | 9 | 0.0 | 3.2 | 0.00 | 0.00 | 0.00 | 83 | 1007.6 |
| 20260508202204 | 11 | 9 | 1.6 | 3.2 | 0.00 | 0.00 | 0.00 | 83 | 1007.5 |
| 20260508202104 | 11 | 9 | 1.6 | 3.2 | 0.00 | 0.00 | 0.00 | 83 | 1007.6 |
| 20260508202004 | 11 | 8 | 1.6 | 3.2 | 0.00 | 0.00 | 0.00 | 83 | 1007.6 |
| 20260508201904 | 11 | 8 | 1.6 | 3.2 | 0.00 | 0.00 | 0.00 | 83 | 1007.6 |
| 20260508201825 | 11 | 7 | 1.6 | 3.2 | 0.00 | 0.00 | 0.00 | 83 | 1007.6 |
| 20260508201726 | 11 | 6 | 1.6 | 3.2 | 0.00 | 0.00 | 0.00 | 83 | 1007.6 |
| 20260508201604 | 11 | 5 | 1.6 | 3.2 | 0.00 | 0.00 | 0.00 | 83 | 1007.6 |
| 20260508201505 | 11 | 5 | 1.6 | 3.2 | 0.00 | 0.00 | 0.00 | 83 | 1007.5 |
| 20260508201404 | 11 | 4 | 1.6 | 3.2 | 0.00 | 0.00 | 0.00 | 83 | 1007.5 |
| 20260508201305 | 11 | 4 | 1.6 | 3.2 | 0.00 | 0.00 | 0.00 | 83 | 1007.6 |
| 20260508201225 | 11 | 3 | 1.6 | 3.2 | 0.00 | 0.00 | 0.00 | 83 | 1007.5 |
| 20260508201104 | 11 | 3 | 1.6 | 3.2 | 0.00 | 0.00 | 0.00 | 83 | 1007.4 |
| 20260508201004 | 11 | 3 | 1.6 | 3.2 | 0.00 | 0.00 | 0.00 | 83 | 1007.6 |
| 20260508200905 | 11 | 4 | 1.6 | 3.2 | 0.00 | 0.00 | 0.00 | 83 | 1007.5 |
| 20260508200804 | 11 | 5 | 1.6 | 3.2 | 0.00 | 0.00 | 0.00 | 83 | 1007.4 |
| 20260508200704 | 11 | 6 | 1.6 | 3.2 | 0.00 | 0.00 | 0.00 | 84 | 1007.7 |
| 20260508200604 | 11 | 6 | 1.6 | 3.2 | 0.00 | 0.00 | 0.00 | 84 | 1007.3 |
| 20260508200504 | 11 | 6 | 1.6 | 3.2 | 0.00 | 0.00 | 0.00 | 84 | 1007.4 |
| 20260508200404 | 11 | 6 | 1.6 | 3.2 | 0.00 | 0.00 | 0.00 | 84 | 1007.5 |
| 20260508200304 | 11 | 6 | 0.0 | 3.2 | 0.00 | 0.00 | 0.00 | 85 | 1007.4 |
| 20260508200225 | 10 | 6 | 0.0 | 3.2 | 0.00 | 0.00 | 0.00 | 85 | 1007.4 |
| 20260508200104 | 10 | 6 | 0.0 | 3.2 | 0.00 | 0.00 | 0.00 | 85 | 1007.6 |
| 20260508200005 | 10 | 6 | 0.0 | 3.2 | 0.00 | 0.00 | 0.00 | 86 | 1007.1 |
| 20260508195904 | 11 | 0 | 0.0 | 0.0 | 0.00 | 0.00 | 0.00 | 86 | 1007.4 |
| 20260508195804 | 11 | 0 | 0.0 | 0.0 | 0.00 | 0.00 | 0.00 | 86 | 1007.5 |
| 20260508195704 | 11 | 0 | 0.0 | 0.0 | 0.00 | 0.00 | 0.00 | 86 | 1007.1 |
| 20260508195604 | 11 | 0 | 0.0 | 0.0 | 0.00 | 0.00 | 0.00 | 87 | 1007.1 |
| 20260508195505 | 10 | 357 | 0.0 | 1.6 | 0.00 | 0.00 | 0.00 | 87 | 1007.4 |
| 20260508195404 | 10 | 357 | 0.0 | 1.6 | 0.00 | 0.00 | 0.00 | 87 | 1007.2 |
| 20260508195306 | 11 | 357 | 0.0 | 1.6 | 0.00 | 0.00 | 0.00 | 87 | 1007.4 |
| 20260508195204 | 11 | 357 | 0.0 | 1.6 | 0.00 | 0.00 | 0.00 | 87 | 1007.3 |
| 20260508195104 | 11 | 357 | 0.0 | 1.6 | 0.00 | 0.00 | 0.00 | 87 | 1007.5 |
| 20260508195005 | 10 | 357 | 0.0 | 1.6 | 0.00 | 0.00 | 0.00 | 87 | 1007.3 |
| 20260508194904 | 10 | 357 | 0.0 | 1.6 | 0.00 | 0.00 | 0.00 | 87 | 1007.3 |
| 20260508194805 | 10 | 357 | 0.0 | 1.6 | 0.00 | 0.00 | 0.00 | 87 | 1007.4 |
| 20260508194725 | 10 | 357 | 0.0 | 1.6 | 0.00 | 0.00 | 0.00 | 87 | 1007.4 |
| 20260508194626 | 10 | 357 | 0.0 | 1.6 | 0.00 | 0.00 | 0.00 | 87 | 1007.2 |
| 20260508194504 | 10 | 358 | 0.0 | 1.6 | 0.00 | 0.00 | 0.00 | 87 | 1007.2 |
| 20260508194405 | 10 | 358 | 0.0 | 1.6 | 0.00 | 0.00 | 0.00 | 87 | 1007.4 |
| 20260508194304 | 10 | 359 | 0.0 | 1.6 | 0.00 | 0.00 | 0.00 | 87 | 1007.5 |
| 20260508194204 | 10 | 359 | 0.0 | 1.6 | 0.00 | 0.00 | 0.00 | 87 | 1007.4 |
| 20260508194004 | 10 | 359 | 0.0 | 1.6 | 0.00 | 0.00 | 0.00 | 87 | 1007.3 |
| 20260508193904 | 10 | 359 | 0.0 | 1.6 | 0.00 | 0.00 | 0.00 | 86 | 1007.3 |
| 20260508193804 | 10 | 359 | 0.0 | 1.6 | 0.00 | 0.00 | 0.00 | 86 | 1007.2 |
| 20260508193704 | 10 | 359 | 0.0 | 1.6 | 0.00 | 0.00 | 0.00 | 86 | 1007.0 |
| 20260508193605 | 10 | 359 | 0.0 | 1.6 | 0.00 | 0.00 | 0.00 | 86 | 1007.4 |
| 20260508193504 | 10 | 359 | 0.0 | 1.6 | 0.00 | 0.00 | 0.00 | 86 | 1007.3 |
| 20260508193405 | 10 | 359 | 0.0 | 1.6 | 0.00 | 0.00 | 0.00 | 86 | 1007.0 |
| 20260508193304 | 10 | 359 | 0.0 | 1.6 | 0.00 | 0.00 | 0.00 | 86 | 1007.1 |
| 20260508193225 | 10 | 359 | 0.0 | 1.6 | 0.00 | 0.00 | 0.00 | 86 | 1007.2 |
| 20260508193125 | 10 | 359 | 0.0 | 1.6 | 0.00 | 0.00 | 0.00 | 85 | 1007.0 |
| 20260508193004 | 10 | 359 | 0.0 | 6.4 | 0.00 | 0.00 | 0.00 | 85 | 1007.1 |
| 20260508192904 | 11 | 359 | 0.0 | 6.4 | 0.00 | 0.00 | 0.00 | 85 | 1007.3 |
| 20260508192804 | 11 | 2 | 0.0 | 6.4 | 0.00 | 0.00 | 0.00 | 85 | 1007.2 |
| 20260508192704 | 11 | 3 | 0.0 | 6.4 | 0.00 | 0.00 | 0.00 | 84 | 1007.0 |
| 20260508192604 | 11 | 4 | 1.6 | 6.4 | 0.00 | 0.00 | 0.00 | 84 | 1007.1 |
| 20260508192504 | 11 | 4 | 1.6 | 6.4 | 0.00 | 0.00 | 0.00 | 84 | 1007.3 |
| 20260508192404 | 11 | 4 | 1.6 | 6.4 | 0.00 | 0.00 | 0.00 | 84 | 1007.1 |
| 20260508192306 | 11 | 5 | 1.6 | 6.4 | 0.00 | 0.00 | 0.00 | 84 | 1007.1 |
| 20260508192204 | 11 | 6 | 1.6 | 6.4 | 0.00 | 0.00 | 0.00 | 84 | 1006.9 |
| 20260508192125 | 11 | 7 | 1.6 | 6.4 | 0.00 | 0.00 | 0.00 | 84 | 1007.2 |
| 20260508192004 | 11 | 9 | 1.6 | 6.4 | 0.00 | 0.00 | 0.00 | 84 | 1007.0 |
| 20260508191904 | 11 | 10 | 1.6 | 6.4 | 0.00 | 0.00 | 0.00 | 84 | 1007.0 |
| 20260508191804 | 11 | 8 | 1.6 | 4.8 | 0.00 | 0.00 | 0.00 | 83 | 1007.1 |
| 20260508191725 | 11 | 6 | 1.6 | 4.8 | 0.00 | 0.00 | 0.00 | 83 | 1007.0 |
| 20260508191604 | 11 | 355 | 1.6 | 6.4 | 0.00 | 0.00 | 0.00 | 83 | 1006.9 |
| 20260508191504 | 11 | 359 | 1.6 | 6.4 | 0.00 | 0.00 | 0.00 | 83 | 1007.0 |
| 20260508191404 | 11 | 360 | 1.6 | 6.4 | 0.00 | 0.00 | 0.00 | 83 | 1006.9 |
| 20260508191304 | 11 | 360 | 1.6 | 6.4 | 0.00 | 0.00 | 0.00 | 83 | 1006.9 |
| 20260508191204 | 11 | 1 | 1.6 | 6.4 | 0.00 | 0.00 | 0.00 | 83 | 1006.8 |
| 20260508191125 | 11 | 1 | 1.6 | 6.4 | 0.00 | 0.00 | 0.00 | 83 | 1006.8 |
| 20260508191004 | 11 | 359 | 1.6 | 6.4 | 0.00 | 0.00 | 0.00 | 82 | 1006.9 |
| 20260508190904 | 11 | 360 | 1.6 | 6.4 | 0.00 | 0.00 | 0.00 | 82 | 1006.9 |
| 20260508190804 | 11 | 2 | 3.2 | 6.4 | 0.00 | 0.00 | 0.00 | 82 | 1007.0 |
| 20260508190704 | 11 | 5 | 3.2 | 6.4 | 0.00 | 0.00 | 0.00 | 82 | 1006.9 |
| 20260508190604 | 11 | 9 | 3.2 | 6.4 | 0.00 | 0.00 | 0.00 | 82 | 1007.2 |
| 20260508190504 | 11 | 8 | 3.2 | 6.4 | 0.00 | 0.00 | 0.00 | 82 | 1006.9 |
| 20260508190425 | 11 | 9 | 3.2 | 6.4 | 0.00 | 0.00 | 0.00 | 82 | 1006.8 |
| 20260508190304 | 11 | 9 | 1.6 | 6.4 | 0.00 | 0.00 | 0.00 | 82 | 1006.7 |
| 20260508190204 | 11 | 9 | 3.2 | 6.4 | 0.00 | 0.00 | 0.00 | 82 | 1006.9 |
| 20260508190125 | 11 | 10 | 3.2 | 6.4 | 0.00 | 0.00 | 0.00 | 81 | 1006.9 |
| 20260508190025 | 11 | 10 | 3.2 | 6.4 | 0.00 | 0.00 | 0.00 | 81 | 1006.9 |
| 20260508185925 | 11 | 10 | 3.2 | 6.4 | 0.00 | 0.00 | 0.00 | 82 | 1006.9 |
| 20260508185805 | 12 | 9 | 3.2 | 6.4 | 0.00 | 0.00 | 0.00 | 82 | 1006.8 |
| 20260508185704 | 12 | 8 | 3.2 | 6.4 | 0.00 | 0.00 | 0.00 | 83 | 1006.9 |
| 20260508185604 | 12 | 6 | 3.2 | 6.4 | 0.00 | 0.00 | 0.00 | 83 | 1006.9 |
| 20260508185504 | 12 | 4 | 3.2 | 6.4 | 0.00 | 0.00 | 0.00 | 83 | 1006.8 |
| 20260508185404 | 12 | 360 | 3.2 | 6.4 | 0.00 | 0.00 | 0.00 | 82 | 1006.9 |
| 20260508185306 | 12 | 349 | 1.6 | 6.4 | 0.00 | 0.00 | 0.00 | 82 | 1006.9 |
| 20260508185204 | 12 | 337 | 1.6 | 6.4 | 0.00 | 0.00 | 0.00 | 81 | 1006.9 |
| 20260508185104 | 12 | 324 | 1.6 | 4.8 | 0.00 | 0.00 | 0.00 | 81 | 1007.0 |
| 20260508185004 | 12 | 314 | 1.6 | 4.8 | 0.00 | 0.00 | 0.00 | 80 | 1006.8 |
| 20260508184904 | 12 | 306 | 1.6 | 4.8 | 0.00 | 0.00 | 0.00 | 80 | 1006.8 |
| 20260508184805 | 12 | 300 | 1.6 | 4.8 | 0.00 | 0.00 | 0.00 | 80 | 1006.6 |
| 20260508184705 | 12 | 294 | 1.6 | 4.8 | 0.00 | 0.00 | 0.00 | 79 | 1006.8 |
| 20260508184625 | 12 | 293 | 1.6 | 4.8 | 0.00 | 0.00 | 0.00 | 79 | 1006.6 |
| 20260508184504 | 12 | 292 | 1.6 | 4.8 | 0.00 | 0.00 | 0.00 | 79 | 1006.7 |
| 20260508184404 | 12 | 291 | 3.2 | 4.8 | 0.00 | 0.00 | 0.00 | 79 | 1006.8 |
| 20260508184304 | 12 | 291 | 3.2 | 4.8 | 0.00 | 0.00 | 0.00 | 79 | 1006.8 |
| 20260508184204 | 12 | 292 | 1.6 | 4.8 | 0.00 | 0.00 | 0.00 | 79 | 1007.0 |
| 20260508184104 | 12 | 292 | 1.6 | 4.8 | 0.00 | 0.00 | 0.00 | 79 | 1006.6 |
| 20260508184004 | 12 | 292 | 1.6 | 4.8 | 0.00 | 0.00 | 0.00 | 78 | 1006.6 |
| 20260508183904 | 12 | 292 | 1.6 | 4.8 | 0.00 | 0.00 | 0.00 | 78 | 1006.7 |
| 20260508183804 | 12 | 291 | 1.6 | 4.8 | 0.00 | 0.00 | 0.00 | 78 | 1006.5 |
| 20260508183704 | 12 | 291 | 1.6 | 4.8 | 0.00 | 0.00 | 0.00 | 78 | 1006.8 |
| 20260508183604 | 12 | 290 | 1.6 | 3.2 | 0.00 | 0.00 | 0.00 | 77 | 1006.6 |
| 20260508183504 | 12 | 289 | 1.6 | 3.2 | 0.00 | 0.00 | 0.00 | 76 | 1006.6 |
| 20260508183425 | 12 | 288 | 1.6 | 3.2 | 0.00 | 0.00 | 0.00 | 76 | 1006.7 |
| 20260508183304 | 12 | 287 | 1.6 | 3.2 | 0.00 | 0.00 | 0.00 | 77 | 1006.3 |
| 20260508183204 | 12 | 286 | 1.6 | 3.2 | 0.00 | 0.00 | 0.00 | 77 | 1006.5 |
| 20260508183104 | 12 | 284 | 1.6 | 4.8 | 0.00 | 0.00 | 0.00 | 78 | 1006.4 |
| 20260508183004 | 12 | 285 | 1.6 | 4.8 | 0.00 | 0.00 | 0.00 | 78 | 1006.5 |
| 20260508182925 | 12 | 285 | 1.6 | 4.8 | 0.00 | 0.00 | 0.00 | 78 | 1006.7 |
| 20260508182804 | 12 | 285 | 1.6 | 4.8 | 0.00 | 0.00 | 0.00 | 78 | 1006.6 |
| 20260508182726 | 12 | 285 | 1.6 | 4.8 | 0.00 | 0.00 | 0.00 | 78 | 1006.5 |
| 20260508182604 | 12 | 285 | 1.6 | 4.8 | 0.00 | 0.00 | 0.00 | 78 | 1006.5 |
| 20260508182505 | 12 | 285 | 1.6 | 4.8 | 0.00 | 0.00 | 0.00 | 79 | 1006.5 |
| 20260508182404 | 12 | 285 | 1.6 | 4.8 | 0.00 | 0.00 | 0.00 | 80 | 1006.5 |
| 20260508182306 | 12 | 286 | 1.6 | 4.8 | 0.00 | 0.00 | 0.00 | 79 | 1006.4 |
| 20260508182204 | 12 | 286 | 1.6 | 4.8 | 0.00 | 0.00 | 0.00 | 78 | 1006.4 |
| 20260508182125 | 12 | 286 | 1.6 | 4.8 | 0.00 | 0.00 | 0.00 | 79 | 1006.4 |
| 20260508182004 | 12 | 286 | 3.2 | 4.8 | 0.00 | 0.00 | 0.00 | 79 | 1006.5 |
| 20260508181904 | 12 | 286 | 3.2 | 4.8 | 0.00 | 0.00 | 0.00 | 80 | 1006.4 |
| 20260508181825 | 12 | 287 | 3.2 | 4.8 | 0.00 | 0.00 | 0.00 | 80 | 1006.5 |
| 20260508181704 | 12 | 288 | 3.2 | 4.8 | 0.00 | 0.00 | 0.00 | 79 | 1006.6 |
| 20260508181625 | 12 | 289 | 3.2 | 4.8 | 0.00 | 0.00 | 0.00 | 80 | 1006.5 |
| 20260508181504 | 12 | 288 | 3.2 | 4.8 | 0.00 | 0.00 | 0.00 | 80 | 1006.5 |
| 20260508181404 | 12 | 288 | 3.2 | 4.8 | 0.00 | 0.00 | 0.00 | 80 | 1006.4 |
| 20260508181304 | 12 | 288 | 3.2 | 4.8 | 0.00 | 0.00 | 0.00 | 80 | 1006.5 |
| 20260508181204 | 12 | 289 | 3.2 | 4.8 | 0.00 | 0.00 | 0.00 | 79 | 1006.2 |
| 20260508181104 | 12 | 289 | 3.2 | 4.8 | 0.00 | 0.00 | 0.00 | 79 | 1006.6 |
| 20260508181004 | 12 | 290 | 3.2 | 4.8 | 0.00 | 0.00 | 0.00 | 80 | 1006.5 |
| 20260508180904 | 12 | 289 | 3.2 | 4.8 | 0.00 | 0.00 | 0.00 | 79 | 1006.5 |
| 20260508180825 | 12 | 289 | 3.2 | 4.8 | 0.00 | 0.00 | 0.00 | 79 | 1006.4 |
| 20260508180705 | 12 | 289 | 3.2 | 4.8 | 0.00 | 0.00 | 0.00 | 80 | 1006.5 |
| 20260508180604 | 12 | 289 | 3.2 | 4.8 | 0.00 | 0.00 | 0.00 | 80 | 1006.5 |
| 20260508180525 | 12 | 289 | 3.2 | 4.8 | 0.00 | 0.00 | 0.00 | 80 | 1006.3 |
| 20260508180404 | 12 | 290 | 3.2 | 4.8 | 0.00 | 0.00 | 0.00 | 79 | 1006.4 |
| 20260508180304 | 12 | 290 | 3.2 | 4.8 | 0.00 | 0.00 | 0.00 | 79 | 1006.6 |
| 20260508180204 | 12 | 290 | 3.2 | 4.8 | 0.00 | 0.00 | 0.00 | 79 | 1006.3 |
| 20260508180104 | 12 | 290 | 3.2 | 4.8 | 0.00 | 0.00 | 0.00 | 78 | 1006.5 |
| 20260508180025 | 12 | 290 | 3.2 | 4.8 | 0.00 | 0.00 | 0.00 | 78 | 1006.3 |
| 20260508175904 | 12 | 290 | 3.2 | 4.8 | 0.00 | 0.00 | 0.00 | 77 | 1006.4 |
| 20260508175805 | 12 | 294 | 3.2 | 4.8 | 0.00 | 0.00 | 0.00 | 77 | 1006.5 |
| 20260508175725 | 12 | 297 | 3.2 | 4.8 | 0.00 | 0.00 | 0.00 | 77 | 1006.7 |
| 20260508175604 | 12 | 302 | 3.2 | 4.8 | 0.00 | 0.00 | 0.00 | 78 | 1006.4 |
| 20260508175504 | 12 | 302 | 3.2 | 4.8 | 0.00 | 0.00 | 0.00 | 78 | 1006.3 |
| 20260508175404 | 12 | 301 | 3.2 | 4.8 | 0.00 | 0.00 | 0.00 | 77 | 1006.2 |
| 20260508175306 | 12 | 301 | 1.6 | 4.8 | 0.00 | 0.00 | 0.00 | 77 | 1006.3 |
| 20260508175204 | 13 | 300 | 1.6 | 4.8 | 0.00 | 0.00 | 0.00 | 77 | 1006.4 |
| 20260508175104 | 13 | 300 | 1.6 | 4.8 | 0.00 | 0.00 | 0.00 | 76 | 1006.4 |
| 20260508175004 | 13 | 303 | 1.6 | 4.8 | 0.00 | 0.00 | 0.00 | 76 | 1006.4 |
| 20260508174904 | 13 | 310 | 1.6 | 4.8 | 0.00 | 0.00 | 0.00 | 76 | 1006.4 |
| 20260508174804 | 13 | 306 | 1.6 | 4.8 | 0.00 | 0.00 | 0.00 | 75 | 1006.3 |
| 20260508174725 | 13 | 301 | 1.6 | 6.4 | 0.00 | 0.00 | 0.00 | 75 | 1006.3 |
| 20260508174604 | 13 | 294 | 1.6 | 6.4 | 0.00 | 0.00 | 0.00 | 75 | 1006.3 |
| 20260508174504 | 13 | 295 | 1.6 | 6.4 | 0.00 | 0.00 | 0.00 | 74 | 1006.2 |
| 20260508174404 | 13 | 293 | 3.2 | 6.4 | 0.00 | 0.00 | 0.00 | 78 | 1006.5 |
| 20260508174305 | 13 | 291 | 3.2 | 6.4 | 0.00 | 0.00 | 0.00 | 78 | 1006.2 |
| 20260508174204 | 13 | 291 | 3.2 | 6.4 | 0.00 | 0.00 | 0.00 | 77 | 1006.4 |
| 20260508174104 | 13 | 290 | 3.2 | 6.4 | 0.00 | 0.00 | 0.00 | 77 | 1006.4 |
| 20260508174004 | 13 | 287 | 3.2 | 6.4 | 0.00 | 0.00 | 0.00 | 77 | 1006.2 |
| 20260508173904 | 12 | 283 | 3.2 | 6.4 | 0.00 | 0.00 | 0.00 | 77 | 1006.1 |
| 20260508173804 | 12 | 281 | 3.2 | 6.4 | 0.00 | 0.00 | 0.00 | 77 | 1006.2 |
| 20260508173704 | 12 | 281 | 3.2 | 6.4 | 0.00 | 0.00 | 0.00 | 77 | 1006.3 |
| 20260508173604 | 12 | 283 | 3.2 | 6.4 | 0.00 | 0.00 | 0.00 | 77 | 1006.3 |
| 20260508173504 | 12 | 281 | 3.2 | 6.4 | 0.00 | 0.00 | 0.00 | 78 | 1006.4 |
| 20260508173404 | 12 | 283 | 3.2 | 6.4 | 0.00 | 0.00 | 0.00 | 77 | 1006.3 |
| 20260508173304 | 12 | 284 | 3.2 | 6.4 | 0.00 | 0.00 | 0.00 | 76 | 1006.0 |
| 20260508173204 | 12 | 284 | 3.2 | 6.4 | 0.00 | 0.00 | 0.00 | 76 | 1006.2 |
| 20260508173104 | 12 | 286 | 3.2 | 6.4 | 0.00 | 0.00 | 0.00 | 76 | 1006.1 |
| 20260508173004 | 12 | 288 | 3.2 | 6.4 | 0.00 | 0.00 | 0.00 | 76 | 1006.2 |
| 20260508172904 | 12 | 289 | 3.2 | 6.4 | 0.00 | 0.00 | 0.00 | 76 | 1006.0 |
| 20260508172825 | 12 | 289 | 4.8 | 6.4 | 0.00 | 0.00 | 0.00 | 76 | 1006.1 |
| 20260508172704 | 12 | 289 | 4.8 | 6.4 | 0.00 | 0.00 | 0.00 | 77 | 1005.9 |
| 20260508172604 | 12 | 288 | 4.8 | 6.4 | 0.00 | 0.00 | 0.00 | 77 | 1006.2 |
| 20260508172504 | 12 | 288 | 4.8 | 6.4 | 0.00 | 0.00 | 0.00 | 77 | 1005.9 |
| 20260508172404 | 12 | 288 | 4.8 | 6.4 | 0.00 | 0.00 | 0.00 | 78 | 1006.2 |
| 20260508172307 | 12 | 288 | 4.8 | 6.4 | 0.00 | 0.00 | 0.00 | 79 | 1006.2 |
| 20260508172204 | 12 | 288 | 4.8 | 6.4 | 0.00 | 0.00 | 0.00 | 78 | 1006.1 |
| 20260508172104 | 12 | 287 | 4.8 | 6.4 | 0.00 | 0.00 | 0.00 | 78 | 1006.3 |
| 20260508172004 | 12 | 287 | 4.8 | 6.4 | 0.00 | 0.00 | 0.00 | 78 | 1006.2 |
| 20260508171904 | 12 | 287 | 4.8 | 6.4 | 0.00 | 0.00 | 0.00 | 78 | 1006.3 |
| 20260508171825 | 12 | 287 | 4.8 | 6.4 | 0.00 | 0.00 | 0.00 | 78 | 1006.2 |
| 20260508171704 | 12 | 285 | 4.8 | 6.4 | 0.00 | 0.00 | 0.00 | 78 | 1006.3 |
| 20260508171625 | 12 | 286 | 4.8 | 6.4 | 0.00 | 0.00 | 0.00 | 77 | 1006.3 |
| 20260508171504 | 12 | 285 | 4.8 | 6.4 | 0.00 | 0.00 | 0.00 | 79 | 1006.1 |
| 20260508171404 | 12 | 285 | 4.8 | 6.4 | 0.00 | 0.00 | 0.00 | 79 | 1006.2 |
| 20260508171304 | 12 | 286 | 4.8 | 6.4 | 0.00 | 0.00 | 0.00 | 80 | 1006.1 |
| 20260508171204 | 12 | 286 | 4.8 | 6.4 | 0.00 | 0.00 | 0.00 | 80 | 1006.4 |
| 20260508171125 | 12 | 286 | 4.8 | 9.7 | 0.00 | 0.00 | 0.00 | 80 | 1006.1 |
| 20260508171005 | 12 | 284 | 4.8 | 9.7 | 0.00 | 0.00 | 0.00 | 80 | 1006.2 |
| 20260508170904 | 12 | 283 | 4.8 | 9.7 | 0.00 | 0.00 | 0.00 | 80 | 1006.1 |
| 20260508170804 | 12 | 281 | 4.8 | 9.7 | 0.00 | 0.00 | 0.00 | 81 | 1006.0 |
| 20260508170725 | 12 | 282 | 3.2 | 9.7 | 0.00 | 0.00 | 0.00 | 81 | 1006.1 |
| 20260508170604 | 12 | 280 | 4.8 | 9.7 | 0.00 | 0.00 | 0.00 | 82 | 1006.1 |
| 20260508170504 | 12 | 280 | 4.8 | 9.7 | 0.00 | 0.00 | 0.00 | 81 | 1006.0 |
| 20260508170404 | 12 | 281 | 4.8 | 9.7 | 0.00 | 0.00 | 0.00 | 82 | 1006.0 |
| 20260508170304 | 12 | 280 | 4.8 | 9.7 | 0.00 | 0.00 | 0.00 | 82 | 1006.1 |
| 20260508170204 | 12 | 280 | 4.8 | 9.7 | 0.00 | 0.00 | 0.00 | 81 | 1006.0 |
| 20260508170104 | 12 | 280 | 4.8 | 9.7 | 0.00 | 0.00 | 0.00 | 82 | 1005.9 |
| 20260508170005 | 12 | 280 | 4.8 | 9.7 | 0.00 | 0.00 | 0.00 | 81 | 1006.2 |
| 20260508165904 | 12 | 280 | 4.8 | 9.7 | 0.00 | 0.00 | 0.00 | 81 | 1006.0 |
| 20260508165804 | 12 | 280 | 4.8 | 9.7 | 0.00 | 0.00 | 0.00 | 80 | 1005.9 |
| 20260508165704 | 12 | 281 | 4.8 | 9.7 | 0.00 | 0.00 | 0.00 | 81 | 1006.0 |
| 20260508165604 | 12 | 282 | 4.8 | 9.7 | 0.00 | 0.00 | 0.00 | 81 | 1005.8 |
| 20260508165504 | 12 | 283 | 4.8 | 9.7 | 0.00 | 0.00 | 0.00 | 81 | 1006.1 |
| 20260508165404 | 12 | 283 | 4.8 | 9.7 | 0.00 | 0.00 | 0.00 | 82 | 1006.1 |
| 20260508165306 | 12 | 284 | 4.8 | 9.7 | 0.00 | 0.00 | 0.00 | 82 | 1005.9 |
| 20260508165225 | 12 | 283 | 4.8 | 9.7 | 0.00 | 0.00 | 0.00 | 81 | 1006.2 |
| 20260508165104 | 12 | 284 | 3.2 | 9.7 | 0.00 | 0.00 | 0.00 | 81 | 1006.1 |
| 20260508165005 | 12 | 285 | 3.2 | 9.7 | 0.00 | 0.00 | 0.00 | 81 | 1005.9 |
| 20260508164904 | 12 | 291 | 3.2 | 6.4 | 0.00 | 0.00 | 0.00 | 81 | 1006.1 |
| 20260508164825 | 13 | 293 | 3.2 | 6.4 | 0.00 | 0.00 | 0.00 | 81 | 1006.1 |
| 20260508164725 | 13 | 296 | 3.2 | 6.4 | 0.00 | 0.00 | 0.00 | 80 | 1006.1 |
| 20260508164625 | 13 | 299 | 3.2 | 6.4 | 0.00 | 0.00 | 0.00 | 79 | 1006.1 |
| 20260508164504 | 13 | 296 | 3.2 | 9.7 | 0.00 | 0.00 | 0.00 | 79 | 1006.1 |
| 20260508164404 | 13 | 298 | 3.2 | 9.7 | 0.00 | 0.00 | 0.00 | 78 | 1006.0 |
| 20260508164304 | 13 | 301 | 3.2 | 9.7 | 0.00 | 0.00 | 0.00 | 78 | 1006.1 |
| 20260508164225 | 13 | 301 | 1.6 | 9.7 | 0.00 | 0.00 | 0.00 | 79 | 1006.1 |
| 20260508164125 | 13 | 311 | 1.6 | 9.7 | 0.00 | 0.00 | 0.00 | 80 | 1005.9 |
| 20260508164004 | 13 | 311 | 1.6 | 9.7 | 0.00 | 0.00 | 0.00 | 80 | 1006.0 |
| 20260508163904 | 13 | 304 | 3.2 | 9.7 | 0.00 | 0.00 | 0.00 | 80 | 1005.9 |
| 20260508163804 | 13 | 302 | 3.2 | 9.7 | 0.00 | 0.00 | 0.00 | 80 | 1006.0 |
| 20260508163704 | 13 | 300 | 3.2 | 9.7 | 0.00 | 0.00 | 0.00 | 80 | 1005.8 |
| 20260508163604 | 13 | 300 | 3.2 | 9.7 | 0.00 | 0.00 | 0.00 | 80 | 1006.0 |
| 20260508163504 | 13 | 302 | 3.2 | 9.7 | 0.00 | 0.00 | 0.00 | 79 | 1006.0 |
| 20260508163404 | 13 | 302 | 3.2 | 9.7 | 0.00 | 0.00 | 0.00 | 80 | 1006.0 |
| 20260508163304 | 13 | 302 | 3.2 | 9.7 | 0.00 | 0.00 | 0.00 | 81 | 1005.8 |
| 20260508163225 | 13 | 305 | 3.2 | 9.7 | 0.00 | 0.00 | 0.00 | 81 | 1006.1 |
| 20260508163104 | 13 | 299 | 3.2 | 9.7 | 0.00 | 0.00 | 0.00 | 82 | 1006.0 |
| 20260508163004 | 13 | 298 | 3.2 | 9.7 | 0.00 | 0.00 | 0.00 | 81 | 1005.9 |
| 20260508162904 | 13 | 299 | 3.2 | 9.7 | 0.00 | 0.00 | 0.00 | 81 | 1005.8 |
| 20260508162804 | 13 | 300 | 3.2 | 9.7 | 0.00 | 0.00 | 0.00 | 80 | 1006.0 |
| 20260508162704 | 13 | 300 | 3.2 | 9.7 | 0.00 | 0.00 | 0.00 | 79 | 1005.9 |
| 20260508162604 | 13 | 306 | 3.2 | 9.7 | 0.00 | 0.00 | 0.00 | 80 | 1005.9 |
| 20260508162504 | 13 | 311 | 3.2 | 9.7 | 0.00 | 0.00 | 0.00 | 81 | 1005.9 |
| 20260508162404 | 13 | 316 | 3.2 | 9.7 | 0.00 | 0.00 | 0.00 | 81 | 1005.9 |
| 20260508162306 | 12 | 308 | 3.2 | 9.7 | 0.00 | 0.00 | 0.00 | 80 | 1005.9 |
| 20260508162204 | 12 | 305 | 3.2 | 9.7 | 0.00 | 0.00 | 0.00 | 81 | 1005.8 |
| 20260508162104 | 13 | 311 | 3.2 | 9.7 | 0.00 | 0.00 | 0.00 | 81 | 1005.8 |
| 20260508162004 | 13 | 321 | 3.2 | 9.7 | 0.00 | 0.00 | 0.00 | 80 | 1005.9 |
| 20260508161905 | 13 | 332 | 3.2 | 6.4 | 0.00 | 0.00 | 0.00 | 80 | 1005.9 |
| 20260508161804 | 13 | 336 | 3.2 | 6.4 | 0.00 | 0.00 | 0.00 | 79 | 1005.9 |
| 20260508161704 | 13 | 336 | 3.2 | 6.4 | 0.00 | 0.00 | 0.00 | 80 | 1006.1 |
| 20260508161604 | 13 | 317 | 3.2 | 9.7 | 0.00 | 0.00 | 0.00 | 79 | 1006.0 |
| 20260508161504 | 13 | 302 | 3.2 | 9.7 | 0.00 | 0.00 | 0.00 | 79 | 1005.9 |
| 20260508161404 | 13 | 294 | 3.2 | 12.9 | 0.00 | 0.00 | 0.00 | 79 | 1005.9 |
| 20260508161325 | 13 | 292 | 3.2 | 12.9 | 0.00 | 0.00 | 0.00 | 79 | 1006.0 |
| 20260508161204 | 13 | 300 | 3.2 | 12.9 | 0.00 | 0.00 | 0.00 | 78 | 1005.9 |
| 20260508161104 | 13 | 302 | 3.2 | 12.9 | 0.00 | 0.00 | 0.00 | 79 | 1006.0 |
| 20260508161004 | 13 | 293 | 3.2 | 12.9 | 0.00 | 0.00 | 0.00 | 79 | 1006.0 |
| 20260508160904 | 13 | 287 | 3.2 | 12.9 | 0.00 | 0.00 | 0.00 | 80 | 1006.1 |
| 20260508160804 | 13 | 284 | 4.8 | 12.9 | 0.00 | 0.00 | 0.00 | 80 | 1006.0 |
| 20260508160704 | 12 | 284 | 4.8 | 12.9 | 0.00 | 0.00 | 0.00 | 81 | 1006.0 |
| 20260508160604 | 12 | 287 | 4.8 | 12.9 | 0.00 | 0.00 | 0.00 | 82 | 1006.1 |
| 20260508160525 | 12 | 287 | 4.8 | 12.9 | 0.00 | 0.00 | 0.00 | 81 | 1006.1 |
| 20260508160404 | 12 | 285 | 4.8 | 12.9 | 0.00 | 0.00 | 0.00 | 81 | 1006.0 |
| 20260508160304 | 12 | 288 | 4.8 | 11.3 | 0.00 | 0.00 | 0.00 | 80 | 1005.9 |
| 20260508160204 | 12 | 284 | 4.8 | 11.3 | 0.00 | 0.00 | 0.00 | 81 | 1006.0 |
| 20260508160104 | 12 | 277 | 6.4 | 11.3 | 0.00 | 0.00 | 0.00 | 81 | 1005.7 |
| 20260508160004 | 12 | 275 | 6.4 | 11.3 | 0.00 | 0.00 | 0.00 | 81 | 1005.9 |
| 20260508155904 | 12 | 278 | 6.4 | 11.3 | 0.00 | 0.00 | 0.00 | 80 | 1006.2 |
| 20260508155804 | 12 | 278 | 6.4 | 11.3 | 0.00 | 0.00 | 0.00 | 80 | 1005.8 |
| 20260508155704 | 12 | 278 | 6.4 | 12.9 | 0.00 | 0.00 | 0.00 | 81 | 1005.9 |
| 20260508155604 | 12 | 277 | 6.4 | 12.9 | 0.00 | 0.00 | 0.00 | 81 | 1005.8 |
| 20260508155504 | 12 | 276 | 6.4 | 12.9 | 0.00 | 0.00 | 0.00 | 80 | 1005.8 |
| 20260508155404 | 12 | 275 | 6.4 | 12.9 | 0.00 | 0.00 | 0.00 | 80 | 1005.7 |
| 20260508155325 | 12 | 274 | 6.4 | 12.9 | 0.00 | 0.00 | 0.00 | 79 | 1006.0 |
| 20260508155204 | 12 | 274 | 6.4 | 12.9 | 0.00 | 0.00 | 0.00 | 80 | 1005.9 |
| 20260508155125 | 12 | 275 | 6.4 | 12.9 | 0.00 | 0.00 | 0.00 | 81 | 1005.9 |
| 20260508155004 | 12 | 274 | 6.4 | 12.9 | 0.00 | 0.00 | 0.00 | 79 | 1006.0 |
| 20260508154925 | 12 | 274 | 6.4 | 12.9 | 0.00 | 0.00 | 0.00 | 79 | 1005.8 |
| 20260508154825 | 12 | 272 | 6.4 | 12.9 | 0.00 | 0.00 | 0.00 | 79 | 1006.0 |
| 20260508154704 | 12 | 274 | 6.4 | 12.9 | 0.00 | 0.00 | 0.00 | 79 | 1006.0 |
| 20260508154604 | 12 | 273 | 6.4 | 12.9 | 0.00 | 0.00 | 0.00 | 80 | 1005.8 |
| 20260508154504 | 12 | 275 | 6.4 | 12.9 | 0.00 | 0.00 | 0.00 | 81 | 1005.8 |
| 20260508154425 | 12 | 274 | 6.4 | 12.9 | 0.00 | 0.00 | 0.00 | 80 | 1005.9 |
| 20260508154325 | 12 | 276 | 6.4 | 12.9 | 0.00 | 0.00 | 0.00 | 79 | 1006.0 |
| 20260508154204 | 12 | 272 | 6.4 | 12.9 | 0.00 | 0.00 | 0.00 | 77 | 1006.0 |
| 20260508154104 | 12 | 272 | 6.4 | 12.9 | 0.00 | 0.00 | 0.00 | 81 | 1005.9 |
| 20260508154025 | 12 | 272 | 6.4 | 12.9 | 0.00 | 0.00 | 0.00 | 80 | 1005.9 |
| 20260508153904 | 12 | 275 | 6.4 | 14.5 | 0.00 | 0.00 | 0.00 | 80 | 1005.9 |
| 20260508153804 | 12 | 277 | 6.4 | 14.5 | 0.00 | 0.00 | 0.00 | 79 | 1005.8 |
| 20260508153725 | 12 | 276 | 6.4 | 14.5 | 0.00 | 0.00 | 0.00 | 79 | 1006.0 |
| 20260508153604 | 12 | 273 | 6.4 | 14.5 | 0.00 | 0.00 | 0.00 | 80 | 1005.8 |
| 20260508153504 | 12 | 273 | 6.4 | 14.5 | 0.00 | 0.00 | 0.00 | 81 | 1005.8 |
| 20260508153404 | 12 | 276 | 6.4 | 14.5 | 0.00 | 0.00 | 0.00 | 83 | 1005.7 |
| 20260508153304 | 12 | 278 | 6.4 | 14.5 | 0.00 | 0.00 | 0.00 | 82 | 1005.8 |
| 20260508153204 | 12 | 278 | 8.0 | 14.5 | 0.00 | 0.00 | 0.00 | 82 | 1005.7 |
| 20260508153104 | 12 | 277 | 8.0 | 14.5 | 0.00 | 0.00 | 0.00 | 82 | 1005.8 |
| 20260508153004 | 12 | 277 | 6.4 | 14.5 | 0.00 | 0.00 | 0.00 | 83 | 1005.7 |
| 20260508152904 | 12 | 278 | 8.0 | 14.5 | 0.00 | 0.00 | 0.00 | 82 | 1005.8 |
| 20260508152825 | 12 | 279 | 6.4 | 12.9 | 0.00 | 0.00 | 0.00 | 83 | 1005.9 |
| 20260508152725 | 12 | 281 | 6.4 | 12.9 | 0.00 | 0.00 | 0.00 | 83 | 1005.7 |
| 20260508152604 | 12 | 283 | 6.4 | 12.9 | 0.00 | 0.00 | 0.00 | 82 | 1005.8 |
| 20260508152504 | 12 | 285 | 6.4 | 12.9 | 0.00 | 0.00 | 0.00 | 81 | 1005.7 |
| 20260508152404 | 12 | 283 | 6.4 | 12.9 | 0.00 | 0.00 | 0.00 | 81 | 1005.6 |
| 20260508152325 | 12 | 284 | 6.4 | 16.1 | 0.00 | 0.00 | 0.00 | 80 | 1005.9 |
| 20260508152204 | 13 | 285 | 6.4 | 16.1 | 0.00 | 0.00 | 0.00 | 81 | 1006.1 |
| 20260508152104 | 13 | 287 | 6.4 | 16.1 | 0.00 | 0.00 | 0.00 | 82 | 1006.0 |
| 20260508152004 | 13 | 287 | 6.4 | 16.1 | 0.00 | 0.00 | 0.00 | 82 | 1005.9 |
| 20260508151904 | 13 | 286 | 6.4 | 16.1 | 0.00 | 0.00 | 0.00 | 82 | 1005.9 |
| 20260508151825 | 13 | 285 | 6.4 | 16.1 | 0.00 | 0.00 | 0.00 | 82 | 1005.8 |
| 20260508151704 | 13 | 286 | 8.0 | 16.1 | 0.00 | 0.00 | 0.00 | 83 | 1005.8 |
| 20260508151604 | 12 | 285 | 8.0 | 16.1 | 0.00 | 0.00 | 0.00 | 83 | 1005.8 |
| 20260508151504 | 12 | 284 | 8.0 | 16.1 | 0.00 | 0.00 | 0.00 | 83 | 1005.8 |
| 20260508151404 | 12 | 284 | 8.0 | 16.1 | 0.00 | 0.00 | 0.00 | 83 | 1005.9 |
| 20260508151304 | 12 | 283 | 8.0 | 16.1 | 0.00 | 0.00 | 0.00 | 82 | 1005.9 |
| 20260508151204 | 12 | 285 | 8.0 | 14.5 | 0.00 | 0.00 | 0.00 | 81 | 1005.9 |
| 20260508151104 | 12 | 284 | 8.0 | 14.5 | 0.00 | 0.00 | 0.00 | 80 | 1005.8 |
| 20260508151004 | 12 | 284 | 8.0 | 14.5 | 0.00 | 0.00 | 0.00 | 80 | 1005.9 |
| 20260508150904 | 12 | 287 | 8.0 | 14.5 | 0.00 | 0.00 | 0.00 | 80 | 1005.9 |
| 20260508150804 | 12 | 290 | 6.4 | 14.5 | 0.00 | 0.00 | 0.00 | 81 | 1005.7 |
| 20260508150704 | 12 | 289 | 6.4 | 14.5 | 0.00 | 0.00 | 0.00 | 82 | 1005.8 |
| 20260508150604 | 12 | 291 | 6.4 | 14.5 | 0.00 | 0.00 | 0.00 | 82 | 1005.7 |
| 20260508150525 | 13 | 292 | 6.4 | 16.1 | 0.00 | 0.00 | 0.00 | 81 | 1006.1 |
| 20260508150404 | 13 | 293 | 8.0 | 16.1 | 0.00 | 0.00 | 0.00 | 81 | 1005.9 |
| 20260508150304 | 13 | 293 | 6.4 | 16.1 | 0.00 | 0.00 | 0.00 | 81 | 1005.9 |
| 20260508150225 | 13 | 291 | 6.4 | 16.1 | 0.00 | 0.00 | 0.00 | 81 | 1005.7 |
| 20260508150104 | 13 | 288 | 6.4 | 16.1 | 0.00 | 0.00 | 0.00 | 81 | 1006.0 |
| 20260508150005 | 13 | 287 | 6.4 | 16.1 | 0.00 | 0.00 | 0.00 | 81 | 1005.8 |
| 20260508145904 | 13 | 286 | 6.4 | 16.1 | 0.00 | 0.00 | 0.00 | 82 | 1005.9 |
| 20260508145825 | 13 | 284 | 8.0 | 16.1 | 0.00 | 0.00 | 0.00 | 82 | 1005.8 |
| 20260508145725 | 13 | 283 | 8.0 | 16.1 | 0.00 | 0.00 | 0.00 | 82 | 1005.8 |
| 20260508145604 | 13 | 281 | 8.0 | 16.1 | 0.00 | 0.00 | 0.00 | 82 | 1005.8 |
| 20260508145504 | 13 | 280 | 8.0 | 16.1 | 0.00 | 0.00 | 0.00 | 82 | 1005.8 |
| 20260508145404 | 13 | 281 | 8.0 | 14.5 | 0.00 | 0.00 | 0.00 | 81 | 1005.7 |
| 20260508145306 | 13 | 281 | 8.0 | 14.5 | 0.00 | 0.00 | 0.00 | 82 | 1005.8 |
| 20260508145204 | 12 | 286 | 8.0 | 14.5 | 0.00 | 0.00 | 0.00 | 82 | 1005.7 |
| 20260508145104 | 12 | 287 | 8.0 | 14.5 | 0.00 | 0.00 | 0.00 | 82 | 1005.9 |
| 20260508145004 | 12 | 287 | 8.0 | 14.5 | 0.00 | 0.00 | 0.00 | 82 | 1005.7 |
| 20260508144904 | 12 | 286 | 8.0 | 14.5 | 0.00 | 0.00 | 0.00 | 82 | 1005.7 |
| 20260508144804 | 12 | 286 | 8.0 | 12.9 | 0.00 | 0.00 | 0.00 | 82 | 1005.5 |
| 20260508144725 | 12 | 285 | 8.0 | 12.9 | 0.00 | 0.00 | 0.00 | 82 | 1005.9 |
| 20260508144604 | 12 | 286 | 8.0 | 12.9 | 0.00 | 0.00 | 0.00 | 82 | 1005.9 |
| 20260508144504 | 12 | 286 | 8.0 | 12.9 | 0.00 | 0.00 | 0.00 | 82 | 1005.9 |
| 20260508144404 | 12 | 284 | 8.0 | 14.5 | 0.00 | 0.00 | 0.00 | 82 | 1005.8 |
| 20260508144304 | 12 | 286 | 8.0 | 14.5 | 0.00 | 0.00 | 0.00 | 81 | 1005.9 |
| 20260508144204 | 12 | 287 | 8.0 | 14.5 | 0.00 | 0.00 | 0.00 | 82 | 1005.8 |
| 20260508144104 | 12 | 285 | 8.0 | 16.1 | 0.00 | 0.00 | 0.00 | 81 | 1005.7 |
| 20260508144025 | 12 | 286 | 8.0 | 16.1 | 0.00 | 0.00 | 0.00 | 81 | 1005.8 |
| 20260508143904 | 12 | 288 | 8.0 | 16.1 | 0.00 | 0.00 | 0.00 | 83 | 1005.8 |
| 20260508143804 | 12 | 288 | 8.0 | 20.9 | 0.00 | 0.00 | 0.00 | 81 | 1005.6 |
| 20260508143704 | 12 | 289 | 8.0 | 20.9 | 0.00 | 0.00 | 0.00 | 81 | 1005.7 |
| 20260508143625 | 12 | 289 | 8.0 | 20.9 | 0.00 | 0.00 | 0.00 | 81 | 1005.7 |
| 20260508143504 | 12 | 288 | 8.0 | 20.9 | 0.00 | 0.00 | 0.00 | 82 | 1005.7 |
| 20260508143425 | 12 | 291 | 8.0 | 20.9 | 0.00 | 0.00 | 0.00 | 82 | 1005.7 |
| 20260508143304 | 12 | 293 | 9.7 | 20.9 | 0.00 | 0.00 | 0.00 | 82 | 1005.8 |
| 20260508143225 | 12 | 291 | 9.7 | 20.9 | 0.00 | 0.00 | 0.00 | 82 | 1005.8 |
| 20260508143104 | 12 | 289 | 9.7 | 20.9 | 0.00 | 0.00 | 0.00 | 82 | 1005.8 |
| 20260508143004 | 12 | 288 | 9.7 | 20.9 | 0.00 | 0.00 | 0.00 | 82 | 1005.8 |
| 20260508142925 | 12 | 286 | 9.7 | 20.9 | 0.00 | 0.00 | 0.00 | 82 | 1006.0 |
| 20260508142804 | 12 | 284 | 9.7 | 20.9 | 0.00 | 0.00 | 0.00 | 82 | 1005.6 |
| 20260508142725 | 12 | 283 | 8.0 | 20.9 | 0.00 | 0.00 | 0.00 | 81 | 1005.9 |
| 20260508142604 | 12 | 280 | 8.0 | 17.7 | 0.00 | 0.00 | 0.00 | 81 | 1005.7 |
| 20260508142504 | 12 | 279 | 8.0 | 17.7 | 0.00 | 0.00 | 0.00 | 81 | 1005.9 |
| 20260508142425 | 12 | 277 | 8.0 | 17.7 | 0.00 | 0.00 | 0.00 | 82 | 1006.0 |
| 20260508142306 | 13 | 277 | 8.0 | 17.7 | 0.00 | 0.00 | 0.00 | 81 | 1005.9 |
| 20260508142204 | 13 | 278 | 8.0 | 17.7 | 0.00 | 0.00 | 0.00 | 82 | 1005.8 |
| 20260508142104 | 13 | 277 | 8.0 | 17.7 | 0.00 | 0.00 | 0.00 | 82 | 1005.8 |
| 20260508142004 | 13 | 276 | 8.0 | 17.7 | 0.00 | 0.00 | 0.00 | 82 | 1005.8 |
| 20260508141904 | 12 | 278 | 8.0 | 17.7 | 0.00 | 0.00 | 0.00 | 82 | 1005.8 |
| 20260508141804 | 12 | 279 | 8.0 | 17.7 | 0.00 | 0.00 | 0.00 | 82 | 1005.8 |
| 20260508141704 | 12 | 280 | 8.0 | 17.7 | 0.00 | 0.00 | 0.00 | 82 | 1005.8 |
| 20260508141604 | 12 | 281 | 8.0 | 17.7 | 0.00 | 0.00 | 0.00 | 80 | 1005.7 |
| 20260508141504 | 12 | 283 | 8.0 | 16.1 | 0.00 | 0.00 | 0.00 | 81 | 1005.9 |
| 20260508141404 | 13 | 283 | 8.0 | 16.1 | 0.00 | 0.00 | 0.00 | 80 | 1005.7 |
| 20260508141304 | 13 | 283 | 8.0 | 16.1 | 0.00 | 0.00 | 0.00 | 81 | 1005.7 |
| 20260508141204 | 13 | 280 | 8.0 | 16.1 | 0.00 | 0.00 | 0.00 | 81 | 1005.6 |
| 20260508141104 | 13 | 282 | 8.0 | 16.1 | 0.00 | 0.00 | 0.00 | 81 | 1005.8 |
| 20260508141004 | 13 | 285 | 8.0 | 16.1 | 0.00 | 0.00 | 0.00 | 80 | 1005.9 |
| 20260508140904 | 13 | 283 | 8.0 | 16.1 | 0.00 | 0.00 | 0.00 | 82 | 1005.5 |
| 20260508140804 | 13 | 284 | 9.7 | 16.1 | 0.00 | 0.00 | 0.00 | 81 | 1005.8 |
| 20260508140704 | 13 | 284 | 9.7 | 16.1 | 0.00 | 0.00 | 0.00 | 79 | 1005.6 |
| 20260508140604 | 13 | 287 | 9.7 | 16.1 | 0.00 | 0.00 | 0.00 | 80 | 1005.7 |
| 20260508140504 | 13 | 285 | 9.7 | 16.1 | 0.00 | 0.00 | 0.00 | 81 | 1005.8 |
| 20260508140404 | 13 | 285 | 9.7 | 16.1 | 0.00 | 0.00 | 0.00 | 81 | 1005.6 |
| 20260508140304 | 13 | 284 | 9.7 | 16.1 | 0.00 | 0.00 | 0.00 | 80 | 1005.5 |
| 20260508140204 | 13 | 283 | 8.0 | 16.1 | 0.00 | 0.00 | 0.00 | 79 | 1005.6 |
| 20260508140104 | 13 | 280 | 8.0 | 16.1 | 0.00 | 0.00 | 0.00 | 79 | 1005.7 |
| 20260508140004 | 13 | 282 | 8.0 | 16.1 | 0.00 | 0.00 | 0.00 | 78 | 1005.7 |
| 20260508135904 | 13 | 279 | 8.0 | 16.1 | 0.00 | 0.00 | 0.00 | 78 | 1005.6 |
| 20260508135804 | 13 | 279 | 8.0 | 16.1 | 0.00 | 0.00 | 0.00 | 77 | 1005.6 |
| 20260508135704 | 13 | 279 | 8.0 | 17.7 | 0.00 | 0.00 | 0.00 | 76 | 1005.6 |
| 20260508135604 | 13 | 278 | 8.0 | 17.7 | 0.00 | 0.00 | 0.00 | 79 | 1005.6 |
| 20260508135504 | 13 | 278 | 8.0 | 17.7 | 0.00 | 0.00 | 0.00 | 78 | 1005.7 |
| 20260508135404 | 13 | 281 | 9.7 | 17.7 | 0.00 | 0.00 | 0.00 | 78 | 1005.6 |
| 20260508135306 | 13 | 283 | 9.7 | 17.7 | 0.00 | 0.00 | 0.00 | 76 | 1005.7 |
| 20260508135204 | 13 | 283 | 9.7 | 17.7 | 0.00 | 0.00 | 0.00 | 77 | 1005.6 |
| 20260508135125 | 13 | 284 | 9.7 | 17.7 | 0.00 | 0.00 | 0.00 | 75 | 1005.6 |
| 20260508135004 | 13 | 284 | 9.7 | 17.7 | 0.00 | 0.00 | 0.00 | 76 | 1005.7 |
| 20260508134925 | 13 | 284 | 8.0 | 17.7 | 0.00 | 0.00 | 0.00 | 77 | 1005.6 |
| 20260508134804 | 13 | 285 | 8.0 | 17.7 | 0.00 | 0.00 | 0.00 | 75 | 1005.5 |
| 20260508134704 | 13 | 284 | 8.0 | 17.7 | 0.00 | 0.00 | 0.00 | 74 | 1005.5 |
| 20260508134604 | 13 | 284 | 8.0 | 14.5 | 0.00 | 0.00 | 0.00 | 75 | 1005.5 |
| 20260508134504 | 13 | 283 | 8.0 | 16.1 | 0.00 | 0.00 | 0.00 | 76 | 1005.6 |
| 20260508134404 | 13 | 279 | 8.0 | 16.1 | 0.00 | 0.00 | 0.00 | 75 | 1005.6 |
| 20260508134325 | 13 | 279 | 8.0 | 16.1 | 0.00 | 0.00 | 0.00 | 77 | 1005.7 |
| 20260508134204 | 13 | 280 | 8.0 | 16.1 | 0.00 | 0.00 | 0.00 | 77 | 1005.6 |
| 20260508134125 | 13 | 282 | 8.0 | 16.1 | 0.00 | 0.00 | 0.00 | 78 | 1005.6 |
| 20260508134004 | 13 | 282 | 8.0 | 16.1 | 0.00 | 0.00 | 0.00 | 75 | 1005.5 |
| 20260508133904 | 13 | 280 | 9.7 | 17.7 | 0.00 | 0.00 | 0.00 | 76 | 1005.3 |
| 20260508133804 | 13 | 276 | 9.7 | 17.7 | 0.00 | 0.00 | 0.00 | 76 | 1005.7 |
| 20260508133704 | 13 | 274 | 9.7 | 17.7 | 0.00 | 0.00 | 0.00 | 76 | 1005.5 |
| 20260508133604 | 13 | 271 | 9.7 | 17.7 | 0.00 | 0.00 | 0.00 | 75 | 1005.6 |
| 20260508133504 | 13 | 268 | 9.7 | 17.7 | 0.00 | 0.00 | 0.00 | 78 | 1005.5 |
| 20260508133425 | 13 | 270 | 11.3 | 17.7 | 0.00 | 0.00 | 0.00 | 76 | 1005.6 |
| 20260508133304 | 13 | 267 | 11.3 | 17.7 | 0.00 | 0.00 | 0.00 | 76 | 1005.5 |
| 20260508133225 | 13 | 267 | 11.3 | 17.7 | 0.00 | 0.00 | 0.00 | 77 | 1005.7 |
| 20260508133104 | 13 | 264 | 11.3 | 17.7 | 0.00 | 0.00 | 0.00 | 76 | 1005.4 |
| 20260508133004 | 13 | 262 | 11.3 | 17.7 | 0.00 | 0.00 | 0.00 | 77 | 1005.6 |
| 20260508132925 | 13 | 261 | 11.3 | 17.7 | 0.00 | 0.00 | 0.00 | 76 | 1005.4 |
| 20260508132804 | 13 | 270 | 9.7 | 17.7 | 0.00 | 0.00 | 0.00 | 73 | 1005.7 |
| 20260508132704 | 13 | 275 | 9.7 | 17.7 | 0.00 | 0.00 | 0.00 | 74 | 1005.7 |
| 20260508132604 | 13 | 278 | 9.7 | 17.7 | 0.00 | 0.00 | 0.00 | 77 | 1005.7 |
| 20260508132504 | 13 | 282 | 9.7 | 17.7 | 0.00 | 0.00 | 0.00 | 76 | 1005.6 |
| 20260508132404 | 13 | 284 | 9.7 | 17.7 | 0.00 | 0.00 | 0.00 | 77 | 1005.7 |
| 20260508132325 | 13 | 284 | 9.7 | 17.7 | 0.00 | 0.00 | 0.00 | 76 | 1005.5 |
| 20260508132204 | 13 | 288 | 9.7 | 17.7 | 0.00 | 0.00 | 0.00 | 76 | 1005.8 |
| 20260508132104 | 13 | 288 | 8.0 | 17.7 | 0.00 | 0.00 | 0.00 | 76 | 1005.7 |
| 20260508132004 | 13 | 290 | 8.0 | 17.7 | 0.00 | 0.00 | 0.00 | 75 | 1005.4 |
| 20260508131925 | 13 | 290 | 9.7 | 17.7 | 0.00 | 0.00 | 0.00 | 75 | 1005.7 |
| 20260508131804 | 13 | 287 | 9.7 | 17.7 | 0.00 | 0.00 | 0.00 | 75 | 1005.5 |
| 20260508131704 | 13 | 283 | 9.7 | 17.7 | 0.00 | 0.00 | 0.00 | 76 | 1005.2 |
| 20260508131625 | 13 | 285 | 9.7 | 17.7 | 0.00 | 0.00 | 0.00 | 75 | 1005.4 |
| 20260508131504 | 13 | 283 | 8.0 | 17.7 | 0.00 | 0.00 | 0.00 | 76 | 1005.6 |
| 20260508131404 | 13 | 279 | 8.0 | 16.1 | 0.00 | 0.00 | 0.00 | 76 | 1005.6 |
| 20260508131304 | 13 | 279 | 9.7 | 16.1 | 0.00 | 0.00 | 0.00 | 76 | 1005.6 |
| 20260508131204 | 13 | 280 | 8.0 | 16.1 | 0.00 | 0.00 | 0.00 | 77 | 1005.6 |
| 20260508131104 | 13 | 279 | 9.7 | 16.1 | 0.00 | 0.00 | 0.00 | 74 | 1005.6 |
| 20260508131004 | 13 | 280 | 9.7 | 16.1 | 0.00 | 0.00 | 0.00 | 68 | 1005.5 |
| 20260508130925 | 13 | 282 | 9.7 | 16.1 | 0.00 | 0.00 | 0.00 | 76 | 1005.5 |
| 20260508130804 | 13 | 280 | 8.0 | 16.1 | 0.00 | 0.00 | 0.00 | 77 | 1005.7 |
| 20260508130704 | 13 | 277 | 8.0 | 17.7 | 0.00 | 0.00 | 0.00 | 76 | 1005.7 |
| 20260508130604 | 13 | 274 | 8.0 | 17.7 | 0.00 | 0.00 | 0.00 | 75 | 1005.5 |
| 20260508130504 | 13 | 270 | 8.0 | 17.7 | 0.00 | 0.00 | 0.00 | 76 | 1005.6 |
| 20260508130425 | 13 | 272 | 8.0 | 17.7 | 0.00 | 0.00 | 0.00 | 74 | 1005.4 |
| 20260508130304 | 13 | 271 | 8.0 | 17.7 | 0.00 | 0.00 | 0.00 | 75 | 1005.6 |
| 20260508130204 | 13 | 265 | 8.0 | 17.7 | 0.00 | 0.00 | 0.00 | 75 | 1005.4 |
| 20260508130104 | 13 | 267 | 8.0 | 17.7 | 0.00 | 0.00 | 0.00 | 72 | 1005.6 |
| 20260508130004 | 13 | 269 | 8.0 | 17.7 | 0.00 | 0.00 | 0.00 | 73 | 1005.6 |
| 20260508125904 | 13 | 264 | 8.0 | 17.7 | 0.00 | 0.00 | 0.00 | 74 | 1005.4 |
| 20260508125804 | 13 | 265 | 8.0 | 17.7 | 0.00 | 0.00 | 0.00 | 72 | 1005.7 |
| 20260508125704 | 13 | 268 | 9.7 | 17.7 | 0.00 | 0.00 | 0.00 | 72 | 1005.5 |
| 20260508125604 | 13 | 269 | 9.7 | 17.7 | 0.00 | 0.00 | 0.00 | 74 | 1005.5 |
| 20260508125504 | 13 | 269 | 9.7 | 16.1 | 0.00 | 0.00 | 0.00 | 74 | 1005.5 |
| 20260508125404 | 13 | 268 | 9.7 | 17.7 | 0.00 | 0.00 | 0.00 | 74 | 1005.5 |
| 20260508125306 | 13 | 265 | 9.7 | 17.7 | 0.00 | 0.00 | 0.00 | 75 | 1005.5 |
| 20260508125204 | 13 | 268 | 9.7 | 17.7 | 0.00 | 0.00 | 0.00 | 73 | 1005.2 |
| 20260508125104 | 13 | 266 | 9.7 | 17.7 | 0.00 | 0.00 | 0.00 | 72 | 1005.5 |
| 20260508125004 | 13 | 266 | 9.7 | 17.7 | 0.00 | 0.00 | 0.00 | 74 | 1005.4 |
| 20260508124925 | 13 | 268 | 9.7 | 17.7 | 0.00 | 0.00 | 0.00 | 72 | 1005.3 |
| 20260508124804 | 13 | 267 | 9.7 | 17.7 | 0.00 | 0.00 | 0.00 | 72 | 1005.3 |
| 20260508124725 | 13 | 265 | 9.7 | 17.7 | 0.00 | 0.00 | 0.00 | 72 | 1005.4 |
| 20260508124625 | 13 | 266 | 9.7 | 17.7 | 0.00 | 0.00 | 0.00 | 71 | 1005.4 |
| 20260508124525 | 13 | 268 | 9.7 | 17.7 | 0.00 | 0.00 | 0.00 | 73 | 1005.6 |
| 20260508124404 | 13 | 269 | 9.7 | 17.7 | 0.00 | 0.00 | 0.00 | 71 | 1005.3 |
| 20260508124304 | 13 | 272 | 8.0 | 17.7 | 0.00 | 0.00 | 0.00 | 69 | 1005.4 |
| 20260508124204 | 13 | 272 | 8.0 | 16.1 | 0.00 | 0.00 | 0.00 | 70 | 1005.3 |
| 20260508124104 | 13 | 272 | 8.0 | 16.1 | 0.00 | 0.00 | 0.00 | 71 | 1005.1 |
| 20260508124004 | 13 | 273 | 8.0 | 16.1 | 0.00 | 0.00 | 0.00 | 71 | 1005.5 |
| 20260508123925 | 13 | 271 | 8.0 | 16.1 | 0.00 | 0.00 | 0.00 | 71 | 1005.4 |
| 20260508123804 | 13 | 274 | 9.7 | 17.7 | 0.00 | 0.00 | 0.00 | 71 | 1005.4 |
| 20260508123704 | 13 | 277 | 9.7 | 17.7 | 0.00 | 0.00 | 0.00 | 71 | 1005.4 |
| 20260508123604 | 13 | 279 | 9.7 | 17.7 | 0.00 | 0.00 | 0.00 | 70 | 1005.2 |
| 20260508123504 | 13 | 277 | 9.7 | 20.9 | 0.00 | 0.00 | 0.00 | 71 | 1005.4 |
| 20260508123404 | 13 | 278 | 11.3 | 20.9 | 0.00 | 0.00 | 0.00 | 72 | 1005.5 |
| 20260508123304 | 13 | 279 | 11.3 | 20.9 | 0.00 | 0.00 | 0.00 | 69 | 1005.4 |
| 20260508123225 | 13 | 280 | 11.3 | 20.9 | 0.00 | 0.00 | 0.00 | 72 | 1005.5 |
| 20260508123104 | 13 | 279 | 11.3 | 20.9 | 0.00 | 0.00 | 0.00 | 70 | 1005.5 |
| 20260508123004 | 13 | 276 | 11.3 | 22.5 | 0.00 | 0.00 | 0.00 | 71 | 1005.3 |
| 20260508122904 | 13 | 274 | 12.9 | 22.5 | 0.00 | 0.00 | 0.00 | 70 | 1005.5 |
| 20260508122804 | 13 | 275 | 12.9 | 22.5 | 0.00 | 0.00 | 0.00 | 72 | 1005.2 |
| 20260508122704 | 13 | 275 | 11.3 | 22.5 | 0.00 | 0.00 | 0.00 | 72 | 1005.5 |
| 20260508122625 | 13 | 274 | 11.3 | 22.5 | 0.00 | 0.00 | 0.00 | 70 | 1005.5 |
| 20260508122525 | 13 | 274 | 11.3 | 22.5 | 0.00 | 0.00 | 0.00 | 71 | 1005.4 |
| 20260508122425 | 13 | 270 | 11.3 | 22.5 | 0.00 | 0.00 | 0.00 | 72 | 1005.3 |
| 20260508122307 | 13 | 266 | 11.3 | 22.5 | 0.00 | 0.00 | 0.00 | 73 | 1005.4 |
| 20260508122204 | 13 | 265 | 11.3 | 22.5 | 0.00 | 0.00 | 0.00 | 74 | 1005.4 |
| 20260508122104 | 13 | 264 | 11.3 | 22.5 | 0.00 | 0.00 | 0.00 | 74 | 1005.3 |
| 20260508122025 | 13 | 265 | 11.3 | 22.5 | 0.00 | 0.00 | 0.00 | 74 | 1005.3 |
| 20260508121904 | 13 | 269 | 11.3 | 22.5 | 0.00 | 0.00 | 0.00 | 73 | 1005.4 |
| 20260508121804 | 13 | 269 | 11.3 | 20.9 | 0.00 | 0.00 | 0.00 | 73 | 1005.2 |
| 20260508121704 | 13 | 266 | 11.3 | 20.9 | 0.00 | 0.00 | 0.00 | 75 | 1005.4 |
| 20260508121604 | 13 | 266 | 11.3 | 20.9 | 0.00 | 0.00 | 0.00 | 75 | 1005.3 |
| 20260508121504 | 13 | 264 | 11.3 | 20.9 | 0.00 | 0.00 | 0.00 | 75 | 1005.3 |
| 20260508121404 | 13 | 263 | 11.3 | 20.9 | 0.00 | 0.00 | 0.00 | 76 | 1005.4 |
| 20260508121325 | 13 | 267 | 11.3 | 20.9 | 0.00 | 0.00 | 0.00 | 75 | 1005.2 |
| 20260508121204 | 13 | 269 | 12.9 | 20.9 | 0.00 | 0.00 | 0.00 | 77 | 1005.3 |
| 20260508121104 | 13 | 270 | 12.9 | 22.5 | 0.00 | 0.00 | 0.00 | 76 | 1005.3 |
| 20260508121004 | 13 | 268 | 12.9 | 22.5 | 0.00 | 0.00 | 0.00 | 77 | 1005.3 |
| 20260508120904 | 13 | 264 | 12.9 | 22.5 | 0.00 | 0.00 | 0.00 | 78 | 1005.3 |
| 20260508120804 | 13 | 263 | 12.9 | 22.5 | 0.00 | 0.00 | 0.00 | 77 | 1005.3 |
| 20260508120725 | 13 | 266 | 12.9 | 22.5 | 0.00 | 0.00 | 0.00 | 79 | 1005.3 |
| 20260508120604 | 13 | 267 | 12.9 | 22.5 | 0.00 | 0.00 | 0.00 | 80 | 1005.3 |
| 20260508120504 | 12 | 268 | 12.9 | 22.5 | 0.00 | 0.00 | 0.00 | 80 | 1005.2 |
| 20260508120425 | 12 | 270 | 12.9 | 22.5 | 0.00 | 0.00 | 0.00 | 80 | 1005.2 |
| 20260508120304 | 12 | 267 | 11.3 | 22.5 | 0.00 | 0.00 | 0.00 | 80 | 1005.3 |
| 20260508120204 | 13 | 265 | 11.3 | 22.5 | 0.00 | 0.00 | 0.00 | 80 | 1005.3 |
| 20260508120104 | 13 | 264 | 11.3 | 22.5 | 0.00 | 0.00 | 0.00 | 81 | 1005.3 |
| 20260508120025 | 13 | 265 | 9.7 | 22.5 | 0.00 | 0.00 | 0.00 | 82 | 1005.4 |
| 20260508115904 | 13 | 269 | 9.7 | 20.9 | 0.00 | 0.00 | 0.00 | 80 | 1005.4 |
| 20260508115804 | 13 | 268 | 9.7 | 20.9 | 0.00 | 0.00 | 0.00 | 80 | 1005.3 |
| 20260508115725 | 13 | 269 | 9.7 | 20.9 | 0.00 | 0.00 | 0.00 | 81 | 1005.2 |
| 20260508115604 | 13 | 266 | 9.7 | 20.9 | 0.00 | 0.00 | 0.00 | 81 | 1005.2 |
| 20260508115504 | 13 | 264 | 9.7 | 17.7 | 0.00 | 0.00 | 0.00 | 82 | 1005.2 |
| 20260508115404 | 13 | 263 | 8.0 | 17.7 | 0.00 | 0.00 | 0.00 | 82 | 1005.4 |
| 20260508115306 | 13 | 266 | 8.0 | 17.7 | 0.00 | 0.00 | 0.00 | 82 | 1005.3 |
| 20260508115204 | 13 | 268 | 8.0 | 20.9 | 0.00 | 0.00 | 0.00 | 81 | 1005.1 |
| 20260508115104 | 13 | 266 | 8.0 | 20.9 | 0.00 | 0.00 | 0.00 | 81 | 1005.1 |
| 20260508115004 | 13 | 268 | 9.7 | 20.9 | 0.00 | 0.00 | 0.00 | 80 | 1005.2 |
| 20260508114904 | 13 | 268 | 9.7 | 20.9 | 0.00 | 0.00 | 0.00 | 82 | 1005.1 |
| 20260508114804 | 13 | 270 | 9.7 | 20.9 | 0.00 | 0.00 | 0.00 | 82 | 1005.1 |
| 20260508114725 | 13 | 267 | 9.7 | 20.9 | 0.00 | 0.00 | 0.00 | 82 | 1005.2 |
| 20260508114604 | 13 | 268 | 11.3 | 20.9 | 0.00 | 0.00 | 0.00 | 81 | 1005.2 |
| 20260508114504 | 13 | 269 | 9.7 | 20.9 | 0.00 | 0.00 | 0.00 | 81 | 1005.1 |
| 20260508114425 | 13 | 271 | 11.3 | 20.9 | 0.00 | 0.00 | 0.00 | 82 | 1005.3 |
| 20260508114304 | 13 | 274 | 11.3 | 20.9 | 0.00 | 0.00 | 0.00 | 82 | 1005.1 |
| 20260508114225 | 13 | 273 | 11.3 | 20.9 | 0.00 | 0.00 | 0.00 | 83 | 1005.1 |
| 20260508114104 | 13 | 272 | 12.9 | 20.9 | 0.00 | 0.00 | 0.00 | 81 | 1005.3 |
| 20260508114004 | 13 | 271 | 12.9 | 20.9 | 0.00 | 0.00 | 0.00 | 80 | 1005.0 |
| 20260508113925 | 13 | 269 | 12.9 | 20.9 | 0.00 | 0.00 | 0.00 | 81 | 1005.1 |
| 20260508113804 | 13 | 268 | 11.3 | 20.9 | 0.00 | 0.00 | 0.00 | 81 | 1005.3 |
| 20260508113704 | 13 | 272 | 11.3 | 20.9 | 0.00 | 0.00 | 0.00 | 81 | 1005.4 |
| 20260508113625 | 13 | 274 | 11.3 | 20.9 | 0.00 | 0.00 | 0.00 | 81 | 1005.2 |
| 20260508113525 | 13 | 274 | 11.3 | 20.9 | 0.00 | 0.00 | 0.00 | 80 | 1005.1 |
| 20260508113404 | 13 | 272 | 11.3 | 20.9 | 0.00 | 0.00 | 0.00 | 80 | 1005.3 |
| 20260508113304 | 13 | 269 | 11.3 | 20.9 | 0.00 | 0.00 | 0.00 | 81 | 1005.3 |
| 20260508113225 | 13 | 270 | 11.3 | 20.9 | 0.00 | 0.00 | 0.00 | 80 | 1005.2 |
| 20260508113104 | 13 | 270 | 11.3 | 20.9 | 0.00 | 0.00 | 0.00 | 80 | 1005.4 |
| 20260508113004 | 13 | 270 | 11.3 | 20.9 | 0.00 | 0.00 | 0.00 | 82 | 1005.1 |
| 20260508112925 | 13 | 270 | 11.3 | 20.9 | 0.00 | 0.00 | 0.00 | 82 | 1005.1 |
| 20260508112804 | 13 | 269 | 11.3 | 20.9 | 0.00 | 0.00 | 0.00 | 83 | 1005.0 |
| 20260508112725 | 12 | 270 | 11.3 | 20.9 | 0.00 | 0.00 | 0.00 | 83 | 1005.0 |
| 20260508112604 | 12 | 270 | 11.3 | 20.9 | 0.00 | 0.00 | 0.00 | 82 | 1005.1 |
| 20260508112525 | 13 | 269 | 11.3 | 20.9 | 0.00 | 0.00 | 0.00 | 81 | 1005.1 |
| 20260508112404 | 13 | 269 | 11.3 | 20.9 | 0.00 | 0.00 | 0.00 | 80 | 1005.0 |
| 20260508112306 | 13 | 271 | 9.7 | 20.9 | 0.00 | 0.00 | 0.00 | 79 | 1005.2 |
| 20260508112204 | 13 | 272 | 9.7 | 20.9 | 0.00 | 0.00 | 0.00 | 78 | 1005.2 |
| 20260508112104 | 13 | 270 | 9.7 | 20.9 | 0.00 | 0.00 | 0.00 | 80 | 1005.3 |
| 20260508112025 | 13 | 268 | 9.7 | 20.9 | 0.00 | 0.00 | 0.00 | 79 | 1005.0 |
| 20260508111904 | 13 | 269 | 9.7 | 17.7 | 0.00 | 0.00 | 0.00 | 80 | 1005.2 |
| 20260508111825 | 13 | 270 | 9.7 | 17.7 | 0.00 | 0.00 | 0.00 | 78 | 1005.0 |
| 20260508111704 | 13 | 263 | 9.7 | 17.7 | 0.00 | 0.00 | 0.00 | 78 | 1004.9 |
| 20260508111604 | 13 | 255 | 9.7 | 17.7 | 0.00 | 0.00 | 0.00 | 79 | 1005.1 |
| 20260508111504 | 13 | 251 | 9.7 | 17.7 | 0.00 | 0.00 | 0.00 | 77 | 1005.0 |
| 20260508111425 | 13 | 248 | 9.7 | 17.7 | 0.00 | 0.00 | 0.00 | 77 | 1005.0 |
| 20260508111304 | 13 | 244 | 11.3 | 17.7 | 0.00 | 0.00 | 0.00 | 80 | 1005.0 |
| 20260508111204 | 13 | 241 | 11.3 | 17.7 | 0.00 | 0.00 | 0.00 | 79 | 1005.0 |
| 20260508111104 | 14 | 241 | 11.3 | 22.5 | 0.00 | 0.00 | 0.00 | 81 | 1005.2 |
| 20260508111004 | 14 | 241 | 11.3 | 22.5 | 0.00 | 0.00 | 0.00 | 77 | 1004.9 |
| 20260508110904 | 14 | 240 | 11.3 | 24.1 | 0.00 | 0.00 | 0.00 | 69 | 1005.1 |
| 20260508110825 | 14 | 236 | 12.9 | 24.1 | 0.00 | 0.00 | 0.00 | 67 | 1004.9 |
| 20260508110704 | 13 | 241 | 11.3 | 24.1 | 0.00 | 0.00 | 0.00 | 67 | 1005.0 |
| 20260508110604 | 13 | 247 | 12.9 | 24.1 | 0.00 | 0.00 | 0.00 | 67 | 1005.1 |
| 20260508110504 | 14 | 248 | 12.9 | 24.1 | 0.00 | 0.00 | 0.00 | 63 | 1005.2 |
| 20260508110404 | 14 | 249 | 12.9 | 24.1 | 0.00 | 0.00 | 0.00 | 67 | 1005.0 |
| 20260508110325 | 13 | 250 | 12.9 | 24.1 | 0.00 | 0.00 | 0.00 | 67 | 1005.0 |
| 20260508110204 | 13 | 248 | 12.9 | 24.1 | 0.00 | 0.00 | 0.00 | 68 | 1004.9 |
| 20260508110125 | 13 | 246 | 14.5 | 25.7 | 0.00 | 0.00 | 0.00 | 67 | 1005.0 |
| 20260508110025 | 13 | 245 | 12.9 | 25.7 | 0.00 | 0.00 | 0.00 | 66 | 1004.9 |
| 20260508105925 | 13 | 240 | 12.9 | 25.7 | 0.00 | 0.00 | 0.00 | 69 | 1005.0 |
| 20260508105804 | 13 | 239 | 12.9 | 25.7 | 0.00 | 0.00 | 0.00 | 68 | 1005.1 |
| 20260508105725 | 13 | 237 | 12.9 | 25.7 | 0.00 | 0.00 | 0.00 | 69 | 1005.0 |
| 20260508105625 | 13 | 227 | 12.9 | 25.7 | 0.00 | 0.00 | 0.00 | 66 | 1005.0 |
| 20260508105504 | 13 | 226 | 12.9 | 25.7 | 0.00 | 0.00 | 0.00 | 68 | 1005.1 |
| 20260508105404 | 13 | 226 | 12.9 | 25.7 | 0.00 | 0.00 | 0.00 | 67 | 1004.9 |
| 20260508105306 | 13 | 223 | 11.3 | 25.7 | 0.00 | 0.00 | 0.00 | 67 | 1005.1 |
| 20260508105204 | 13 | 222 | 11.3 | 25.7 | 0.00 | 0.00 | 0.00 | 67 | 1005.0 |
| 20260508105104 | 13 | 222 | 11.3 | 25.7 | 0.00 | 0.00 | 0.00 | 67 | 1005.0 |
| 20260508105025 | 13 | 223 | 11.3 | 25.7 | 0.00 | 0.00 | 0.00 | 66 | 1005.0 |
| 20260508104904 | 13 | 226 | 11.3 | 24.1 | 0.00 | 0.00 | 0.00 | 68 | 1004.8 |
| 20260508104804 | 14 | 225 | 11.3 | 17.7 | 0.00 | 0.00 | 0.00 | 68 | 1005.1 |
| 20260508104725 | 14 | 225 | 11.3 | 17.7 | 0.00 | 0.00 | 0.00 | 67 | 1004.9 |
| 20260508104604 | 13 | 231 | 11.3 | 17.7 | 0.00 | 0.00 | 0.00 | 68 | 1004.8 |
| 20260508104504 | 13 | 229 | 9.7 | 17.7 | 0.00 | 0.00 | 0.00 | 67 | 1005.0 |
| 20260508104404 | 14 | 228 | 9.7 | 17.7 | 0.00 | 0.00 | 0.00 | 67 | 1004.9 |
| 20260508104304 | 14 | 232 | 9.7 | 17.7 | 0.00 | 0.00 | 0.00 | 65 | 1004.7 |
| 20260508104204 | 13 | 234 | 11.3 | 17.7 | 0.00 | 0.00 | 0.00 | 69 | 1004.9 |
| 20260508104104 | 13 | 233 | 11.3 | 20.9 | 0.00 | 0.00 | 0.00 | 71 | 1004.7 |
| 20260508104004 | 13 | 234 | 11.3 | 20.9 | 0.00 | 0.00 | 0.00 | 71 | 1004.7 |
| 20260508103904 | 13 | 238 | 11.3 | 20.9 | 0.00 | 0.00 | 0.00 | 67 | 1004.9 |
| 20260508103804 | 13 | 237 | 11.3 | 20.9 | 0.00 | 0.00 | 0.00 | 68 | 1004.9 |
| 20260508103725 | 13 | 238 | 11.3 | 20.9 | 0.00 | 0.00 | 0.00 | 66 | 1005.1 |
| 20260508103604 | 13 | 239 | 11.3 | 20.9 | 0.00 | 0.00 | 0.00 | 69 | 1004.7 |
| 20260508103504 | 13 | 243 | 11.3 | 20.9 | 0.00 | 0.00 | 0.00 | 66 | 1005.0 |
| 20260508103404 | 13 | 240 | 12.9 | 20.9 | 0.00 | 0.00 | 0.00 | 68 | 1005.0 |
| 20260508103304 | 13 | 243 | 11.3 | 20.9 | 0.00 | 0.00 | 0.00 | 66 | 1004.9 |
| 20260508103204 | 13 | 244 | 12.9 | 20.9 | 0.00 | 0.00 | 0.00 | 69 | 1005.0 |
| 20260508103104 | 13 | 246 | 12.9 | 20.9 | 0.00 | 0.00 | 0.00 | 66 | 1005.0 |
| 20260508103004 | 13 | 244 | 12.9 | 20.9 | 0.00 | 0.00 | 0.00 | 65 | 1004.7 |
| 20260508102904 | 13 | 243 | 12.9 | 20.9 | 0.00 | 0.00 | 0.00 | 66 | 1004.7 |
| 20260508102804 | 13 | 245 | 12.9 | 20.9 | 0.00 | 0.00 | 0.00 | 70 | 1004.8 |
| 20260508102704 | 13 | 246 | 12.9 | 20.9 | 0.00 | 0.00 | 0.00 | 71 | 1004.8 |
| 20260508102604 | 13 | 247 | 12.9 | 20.9 | 0.00 | 0.00 | 0.00 | 70 | 1004.8 |
| 20260508102503 | 13 | 244 | 11.3 | 20.9 | 0.00 | 0.00 | 0.00 | 71 | 1004.9 |
| 20260508102404 | 13 | 245 | 11.3 | 20.9 | 0.00 | 0.00 | 0.00 | 71 | 1004.9 |
| 20260508102306 | 13 | 243 | 11.3 | 20.9 | 0.00 | 0.00 | 0.00 | 72 | 1004.8 |
| 20260508102204 | 13 | 241 | 11.3 | 20.9 | 0.00 | 0.00 | 0.00 | 70 | 1004.9 |
| 20260508102125 | 13 | 242 | 11.3 | 20.9 | 0.00 | 0.00 | 0.00 | 74 | 1004.8 |
| 20260508102025 | 13 | 242 | 11.3 | 20.9 | 0.00 | 0.00 | 0.00 | 69 | 1004.8 |
| 20260508101904 | 13 | 245 | 11.3 | 20.9 | 0.00 | 0.00 | 0.00 | 70 | 1004.5 |
| 20260508101804 | 13 | 247 | 11.3 | 20.9 | 0.00 | 0.00 | 0.00 | 73 | 1004.9 |
| 20260508101704 | 13 | 248 | 11.3 | 20.9 | 0.00 | 0.00 | 0.00 | 77 | 1004.9 |
| 20260508101604 | 13 | 247 | 11.3 | 20.9 | 0.00 | 0.00 | 0.00 | 76 | 1004.6 |
| 20260508101504 | 13 | 248 | 11.3 | 20.9 | 0.00 | 0.00 | 0.00 | 76 | 1005.1 |
| 20260508101404 | 13 | 251 | 11.3 | 20.9 | 0.00 | 0.00 | 0.00 | 75 | 1004.9 |
| 20260508101304 | 13 | 248 | 9.7 | 20.9 | 0.00 | 0.00 | 0.00 | 76 | 1005.0 |
| 20260508101204 | 13 | 249 | 9.7 | 20.9 | 0.00 | 0.00 | 0.00 | 74 | 1005.0 |
| 20260508101104 | 13 | 248 | 9.7 | 20.9 | 0.00 | 0.00 | 0.00 | 76 | 1004.9 |
| 20260508101004 | 13 | 245 | 9.7 | 20.9 | 0.00 | 0.00 | 0.00 | 76 | 1004.9 |
| 20260508100925 | 13 | 242 | 9.7 | 20.9 | 0.00 | 0.00 | 0.00 | 77 | 1004.9 |
| 20260508100804 | 13 | 239 | 9.7 | 20.9 | 0.00 | 0.00 | 0.00 | 78 | 1004.9 |
| 20260508100704 | 13 | 241 | 9.7 | 20.9 | 0.00 | 0.00 | 0.00 | 75 | 1005.1 |
| 20260508100603 | 13 | 242 | 9.7 | 20.9 | 0.00 | 0.00 | 0.00 | 76 | 1004.8 |
| 20260508100504 | 13 | 242 | 9.7 | 20.9 | 0.00 | 0.00 | 0.00 | 76 | 1004.8 |
| 20260508100404 | 13 | 244 | 11.3 | 22.5 | 0.00 | 0.00 | 0.00 | 73 | 1004.7 |
| 20260508100304 | 13 | 248 | 11.3 | 22.5 | 0.00 | 0.00 | 0.00 | 77 | 1005.0 |
| 20260508100204 | 13 | 245 | 11.3 | 22.5 | 0.00 | 0.00 | 0.00 | 78 | 1004.9 |
| 20260508100104 | 12 | 244 | 12.9 | 22.5 | 0.00 | 0.00 | 0.00 | 80 | 1004.9 |
| 20260508100004 | 12 | 243 | 12.9 | 22.5 | 0.00 | 0.00 | 0.00 | 79 | 1004.8 |
| 20260508095904 | 12 | 244 | 12.9 | 22.5 | 0.00 | 0.00 | 0.00 | 76 | 1004.8 |
| 20260508095804 | 13 | 246 | 12.9 | 22.5 | 0.00 | 0.00 | 0.00 | 77 | 1004.8 |
| 20260508095704 | 13 | 246 | 12.9 | 22.5 | 0.00 | 0.00 | 0.00 | 78 | 1004.8 |
| 20260508095604 | 12 | 244 | 12.9 | 22.5 | 0.00 | 0.00 | 0.00 | 77 | 1004.7 |
| 20260508095504 | 12 | 242 | 14.5 | 22.5 | 0.00 | 0.00 | 0.00 | 76 | 1005.0 |
| 20260508095404 | 12 | 239 | 14.5 | 22.5 | 0.00 | 0.00 | 0.00 | 78 | 1005.0 |
| 20260508095325 | 12 | 236 | 14.5 | 22.5 | 0.00 | 0.00 | 0.00 | 77 | 1004.8 |
| 20260508095204 | 12 | 237 | 14.5 | 22.5 | 0.00 | 0.00 | 0.00 | 77 | 1004.8 |
| 20260508095104 | 12 | 240 | 14.5 | 24.1 | 0.00 | 0.00 | 0.00 | 78 | 1004.9 |
| 20260508095004 | 12 | 242 | 14.5 | 24.1 | 0.00 | 0.00 | 0.00 | 77 | 1004.9 |
| 20260508094925 | 12 | 242 | 14.5 | 24.1 | 0.00 | 0.00 | 0.00 | 77 | 1004.7 |
| 20260508094825 | 12 | 241 | 14.5 | 24.1 | 0.00 | 0.00 | 0.00 | 78 | 1004.9 |
| 20260508094704 | 12 | 240 | 14.5 | 24.1 | 0.00 | 0.00 | 0.00 | 79 | 1004.9 |
| 20260508094604 | 12 | 240 | 12.9 | 24.1 | 0.00 | 0.00 | 0.00 | 80 | 1004.8 |
| 20260508094504 | 12 | 239 | 12.9 | 24.1 | 0.00 | 0.00 | 0.00 | 79 | 1005.1 |
| 20260508094404 | 12 | 241 | 12.9 | 24.1 | 0.00 | 0.00 | 0.00 | 79 | 1004.9 |
| 20260508094304 | 12 | 242 | 11.3 | 24.1 | 0.00 | 0.00 | 0.00 | 78 | 1004.9 |
| 20260508094204 | 12 | 240 | 11.3 | 24.1 | 0.00 | 0.00 | 0.00 | 78 | 1004.7 |
| 20260508094104 | 12 | 239 | 11.3 | 24.1 | 0.00 | 0.00 | 0.00 | 79 | 1004.7 |
| 20260508094004 | 12 | 236 | 11.3 | 24.1 | 0.00 | 0.00 | 0.00 | 77 | 1005.0 |
| 20260508093904 | 13 | 233 | 9.7 | 20.9 | 0.00 | 0.00 | 0.00 | 80 | 1004.9 |
| 20260508093804 | 13 | 232 | 9.7 | 16.1 | 0.00 | 0.00 | 0.00 | 80 | 1004.9 |
| 20260508093704 | 12 | 235 | 9.7 | 20.9 | 0.00 | 0.00 | 0.00 | 80 | 1004.8 |
| 20260508093604 | 12 | 239 | 9.7 | 20.9 | 0.00 | 0.00 | 0.00 | 81 | 1004.7 |
| 20260508093504 | 12 | 241 | 9.7 | 20.9 | 0.00 | 0.00 | 0.00 | 80 | 1004.8 |
| 20260508093404 | 12 | 240 | 9.7 | 20.9 | 0.00 | 0.00 | 0.00 | 82 | 1004.8 |
| 20260508093304 | 12 | 239 | 9.7 | 20.9 | 0.00 | 0.00 | 0.00 | 81 | 1005.0 |
| 20260508093204 | 12 | 241 | 9.7 | 20.9 | 0.00 | 0.00 | 0.00 | 79 | 1004.8 |
| 20260508093104 | 12 | 241 | 9.7 | 20.9 | 0.00 | 0.00 | 0.00 | 81 | 1005.0 |
| 20260508093004 | 12 | 240 | 9.7 | 20.9 | 0.00 | 0.00 | 0.00 | 81 | 1004.9 |
| 20260508092904 | 12 | 241 | 9.7 | 20.9 | 0.00 | 0.00 | 0.00 | 80 | 1004.9 |
| 20260508092804 | 12 | 243 | 9.7 | 20.9 | 0.00 | 0.00 | 0.00 | 82 | 1004.7 |
| 20260508092704 | 12 | 239 | 9.7 | 20.9 | 0.00 | 0.00 | 0.00 | 82 | 1004.7 |
| 20260508092625 | 12 | 235 | 9.7 | 20.9 | 0.00 | 0.00 | 0.00 | 82 | 1004.8 |
| 20260508092504 | 12 | 237 | 9.7 | 16.1 | 0.00 | 0.00 | 0.00 | 83 | 1004.9 |
| 20260508092404 | 12 | 243 | 9.7 | 22.5 | 0.00 | 0.00 | 0.00 | 83 | 1004.6 |
| 20260508092312 | 12 | 242 | 9.7 | 22.5 | 0.00 | 0.00 | 0.00 | 83 | 1004.9 |
| 20260508092204 | 12 | 244 | 9.7 | 22.5 | 0.00 | 0.00 | 0.00 | 83 | 1004.9 |
| 20260508092104 | 12 | 244 | 11.3 | 22.5 | 0.00 | 0.00 | 0.00 | 82 | 1004.7 |
| 20260508092004 | 12 | 245 | 11.3 | 22.5 | 0.00 | 0.00 | 0.00 | 81 | 1004.7 |
| 20260508091904 | 12 | 245 | 11.3 | 22.5 | 0.00 | 0.00 | 0.00 | 82 | 1004.9 |
| 20260508091803 | 12 | 246 | 11.3 | 22.5 | 0.00 | 0.00 | 0.00 | 83 | 1004.8 |
| 20260508091704 | 12 | 247 | 11.3 | 22.5 | 0.00 | 0.00 | 0.00 | 82 | 1004.7 |
| 20260508091625 | 12 | 248 | 11.3 | 22.5 | 0.00 | 0.00 | 0.00 | 82 | 1004.7 |
| 20260508091504 | 11 | 247 | 11.3 | 22.5 | 0.00 | 0.00 | 0.00 | 82 | 1004.7 |
| 20260508091403 | 11 | 246 | 11.3 | 22.5 | 0.00 | 0.00 | 0.00 | 83 | 1004.6 |
| 20260508091304 | 12 | 247 | 11.3 | 22.5 | 0.00 | 0.00 | 0.00 | 82 | 1004.6 |
| 20260508091203 | 12 | 248 | 9.7 | 22.5 | 0.00 | 0.00 | 0.00 | 82 | 1004.9 |
| 20260508091104 | 12 | 249 | 9.7 | 17.7 | 0.00 | 0.00 | 0.00 | 83 | 1004.6 |
| 20260508091003 | 12 | 251 | 9.7 | 17.7 | 0.00 | 0.00 | 0.00 | 83 | 1004.7 |
| 20260508090904 | 12 | 253 | 9.7 | 17.7 | 0.00 | 0.00 | 0.00 | 83 | 1004.8 |
| 20260508090804 | 12 | 255 | 8.0 | 16.1 | 0.00 | 0.00 | 0.00 | 84 | 1004.8 |
| 20260508090704 | 12 | 255 | 8.0 | 16.1 | 0.00 | 0.00 | 0.00 | 83 | 1004.6 |
| 20260508090604 | 12 | 255 | 8.0 | 16.1 | 0.00 | 0.00 | 0.00 | 84 | 1004.7 |
| 20260508090525 | 12 | 257 | 8.0 | 16.1 | 0.00 | 0.00 | 0.00 | 85 | 1004.7 |
| 20260508090425 | 11 | 257 | 8.0 | 16.1 | 0.00 | 0.00 | 0.00 | 84 | 1004.7 |
| 20260508090304 | 11 | 258 | 8.0 | 16.1 | 0.00 | 0.00 | 0.00 | 86 | 1004.6 |
| 20260508090204 | 11 | 256 | 9.7 | 16.1 | 0.00 | 0.00 | 0.00 | 85 | 1004.6 |
| 20260508090125 | 11 | 254 | 9.7 | 16.1 | 0.00 | 0.00 | 0.00 | 85 | 1004.7 |
| 20260508090004 | 12 | 253 | 9.7 | 16.1 | 0.00 | 0.00 | 0.00 | 85 | 1004.8 |
| 20260508085904 | 12 | 253 | 9.7 | 16.1 | 0.00 | 0.00 | 0.00 | 85 | 1004.7 |
| 20260508085804 | 12 | 254 | 9.7 | 16.1 | 0.00 | 0.00 | 0.00 | 86 | 1004.3 |
| 20260508085704 | 12 | 254 | 9.7 | 16.1 | 0.00 | 0.00 | 0.00 | 86 | 1004.6 |
| 20260508085603 | 11 | 257 | 9.7 | 17.7 | 0.00 | 0.00 | 0.00 | 86 | 1004.5 |
| 20260508085525 | 11 | 256 | 9.7 | 17.7 | 0.00 | 0.00 | 0.00 | 86 | 1004.6 |
| 20260508085403 | 11 | 255 | 9.7 | 17.7 | 0.00 | 0.00 | 0.00 | 85 | 1004.7 |
| 20260508085306 | 11 | 256 | 9.7 | 17.7 | 0.00 | 0.00 | 0.00 | 86 | 1004.7 |
| 20260508085204 | 11 | 255 | 9.7 | 17.7 | 0.00 | 0.00 | 0.00 | 86 | 1004.6 |
| 20260508085125 | 11 | 256 | 9.7 | 17.7 | 0.00 | 0.00 | 0.00 | 86 | 1004.7 |
| 20260508085004 | 11 | 259 | 9.7 | 17.7 | 0.00 | 0.00 | 0.00 | 87 | 1004.5 |
| 20260508084904 | 11 | 259 | 11.3 | 17.7 | 0.00 | 0.00 | 0.00 | 86 | 1004.7 |
| 20260508084804 | 11 | 258 | 11.3 | 17.7 | 0.00 | 0.00 | 0.00 | 86 | 1004.5 |
| 20260508084704 | 11 | 258 | 11.3 | 17.7 | 0.00 | 0.00 | 0.00 | 85 | 1004.5 |
| 20260508084604 | 11 | 255 | 11.3 | 17.7 | 0.00 | 0.00 | 0.00 | 85 | 1004.6 |
| 20260508084504 | 11 | 256 | 9.7 | 17.7 | 0.00 | 0.00 | 0.00 | 86 | 1004.5 |
| 20260508084404 | 11 | 257 | 9.7 | 17.7 | 0.00 | 0.00 | 0.00 | 86 | 1004.7 |
| 20260508084324 | 11 | 258 | 9.7 | 17.7 | 0.00 | 0.00 | 0.00 | 86 | 1004.7 |
| 20260508084204 | 11 | 258 | 9.7 | 17.7 | 0.00 | 0.00 | 0.00 | 86 | 1004.5 |
| 20260508084125 | 11 | 260 | 9.7 | 17.7 | 0.00 | 0.00 | 0.00 | 87 | 1004.6 |
| 20260508084004 | 11 | 260 | 9.7 | 17.7 | 0.00 | 0.00 | 0.00 | 87 | 1004.7 |
| 20260508083904 | 11 | 260 | 9.7 | 17.7 | 0.00 | 0.00 | 0.00 | 87 | 1004.5 |
| 20260508083825 | 11 | 258 | 9.7 | 17.7 | 0.00 | 0.00 | 0.00 | 88 | 1004.5 |
| 20260508083704 | 11 | 258 | 9.7 | 20.9 | 0.00 | 0.00 | 0.00 | 88 | 1004.5 |
| 20260508083604 | 11 | 257 | 11.3 | 20.9 | 0.00 | 0.00 | 0.00 | 89 | 1004.7 |
| 20260508083504 | 11 | 255 | 11.3 | 20.9 | 0.00 | 0.00 | 0.00 | 88 | 1004.5 |
| 20260508083403 | 11 | 259 | 11.3 | 20.9 | 0.00 | 0.00 | 0.00 | 89 | 1004.5 |
| 20260508083304 | 11 | 261 | 11.3 | 20.9 | 0.00 | 0.00 | 0.00 | 88 | 1004.7 |
| 20260508083204 | 10 | 261 | 11.3 | 20.9 | 0.00 | 0.00 | 0.00 | 89 | 1004.4 |
| 20260508083104 | 10 | 259 | 11.3 | 20.9 | 0.00 | 0.00 | 0.00 | 88 | 1004.6 |
| 20260508083004 | 10 | 259 | 11.3 | 20.9 | 0.00 | 0.00 | 0.00 | 88 | 1004.5 |
| 20260508082904 | 10 | 260 | 11.3 | 20.9 | 0.00 | 0.00 | 0.00 | 88 | 1004.7 |
| 20260508082804 | 10 | 264 | 11.3 | 20.9 | 0.00 | 0.00 | 0.00 | 88 | 1004.6 |
| 20260508082724 | 10 | 261 | 11.3 | 20.9 | 0.00 | 0.00 | 0.00 | 88 | 1004.6 |
| 20260508082604 | 10 | 265 | 11.3 | 17.7 | 0.00 | 0.00 | 0.00 | 87 | 1004.6 |
| 20260508082503 | 10 | 265 | 11.3 | 17.7 | 0.00 | 0.00 | 0.00 | 88 | 1004.6 |
| 20260508082404 | 10 | 259 | 11.3 | 20.9 | 0.00 | 0.00 | 0.00 | 88 | 1004.5 |
| 20260508082306 | 10 | 257 | 11.3 | 20.9 | 0.00 | 0.00 | 0.00 | 89 | 1004.4 |
| 20260508082204 | 11 | 255 | 11.3 | 20.9 | 0.00 | 0.00 | 0.00 | 89 | 1004.6 |
| 20260508082104 | 11 | 255 | 11.3 | 20.9 | 0.00 | 0.00 | 0.00 | 90 | 1004.5 |
| 20260508082004 | 11 | 253 | 11.3 | 22.5 | 0.00 | 0.00 | 0.00 | 89 | 1004.3 |
| 20260508081904 | 11 | 248 | 11.3 | 22.5 | 0.00 | 0.00 | 0.00 | 90 | 1004.6 |
| 20260508081804 | 11 | 247 | 12.9 | 22.5 | 0.00 | 0.00 | 0.00 | 89 | 1004.5 |
| 20260508081725 | 11 | 249 | 12.9 | 22.5 | 0.00 | 0.00 | 0.00 | 89 | 1004.4 |
| 20260508081604 | 11 | 248 | 12.9 | 22.5 | 0.00 | 0.00 | 0.00 | 89 | 1004.6 |
| 20260508081504 | 11 | 247 | 12.9 | 22.5 | 0.00 | 0.00 | 0.00 | 89 | 1004.4 |
| 20260508081404 | 11 | 249 | 12.9 | 22.5 | 0.00 | 0.00 | 0.00 | 89 | 1004.4 |
| 20260508081304 | 11 | 249 | 12.9 | 22.5 | 0.00 | 0.00 | 0.00 | 89 | 1004.4 |
| 20260508081203 | 10 | 246 | 12.9 | 22.5 | 0.00 | 0.00 | 0.00 | 89 | 1004.5 |
| 20260508081104 | 11 | 241 | 12.9 | 22.5 | 0.00 | 0.00 | 0.00 | 89 | 1004.6 |
| 20260508081004 | 11 | 240 | 12.9 | 22.5 | 0.00 | 0.00 | 0.00 | 89 | 1004.3 |
| 20260508080904 | 11 | 242 | 11.3 | 20.9 | 0.00 | 0.00 | 0.00 | 90 | 1004.5 |
| 20260508080803 | 11 | 239 | 11.3 | 20.9 | 0.00 | 0.00 | 0.00 | 89 | 1004.5 |
| 20260508080704 | 11 | 235 | 11.3 | 20.9 | 0.00 | 0.00 | 0.00 | 90 | 1004.5 |
| 20260508080604 | 11 | 234 | 9.7 | 16.1 | 0.00 | 0.00 | 0.00 | 90 | 1004.7 |
| 20260508080504 | 11 | 235 | 9.7 | 16.1 | 0.00 | 0.00 | 0.00 | 90 | 1004.4 |
| 20260508080425 | 11 | 235 | 9.7 | 16.1 | 0.00 | 0.00 | 0.00 | 91 | 1004.4 |
| 20260508080304 | 11 | 234 | 9.7 | 14.5 | 0.00 | 0.00 | 0.00 | 91 | 1004.4 |
| 20260508080204 | 11 | 237 | 9.7 | 14.5 | 0.00 | 0.00 | 0.00 | 90 | 1004.4 |
| 20260508080104 | 11 | 241 | 9.7 | 14.5 | 0.00 | 0.00 | 0.00 | 90 | 1004.5 |
| 20260508080004 | 11 | 246 | 9.7 | 14.5 | 0.00 | 0.00 | 0.00 | 91 | 1004.4 |
| 20260508075904 | 11 | 248 | 9.7 | 14.5 | 0.00 | 0.00 | 0.00 | 91 | 1004.5 |
| 20260508075804 | 11 | 250 | 9.7 | 16.1 | 0.00 | 0.00 | 0.00 | 92 | 1004.5 |
| 20260508075704 | 11 | 250 | 9.7 | 17.7 | 0.00 | 0.00 | 0.00 | 91 | 1004.4 |
| 20260508075604 | 11 | 253 | 9.7 | 17.7 | 0.00 | 0.00 | 0.00 | 92 | 1004.5 |
| 20260508075525 | 10 | 254 | 9.7 | 17.7 | 0.00 | 0.00 | 0.00 | 92 | 1004.5 |
| 20260508075404 | 10 | 253 | 11.3 | 17.7 | 0.00 | 0.00 | 0.00 | 92 | 1004.3 |
| 20260508075308 | 11 | 253 | 11.3 | 17.7 | 0.00 | 0.00 | 0.00 | 92 | 1004.3 |
| 20260508075204 | 11 | 252 | 9.7 | 17.7 | 0.00 | 0.00 | 0.00 | 92 | 1004.4 |
| 20260508075125 | 10 | 253 | 9.7 | 17.7 | 0.00 | 0.00 | 0.00 | 93 | 1004.3 |
| 20260508075024 | 10 | 254 | 9.7 | 17.7 | 0.00 | 0.00 | 0.00 | 93 | 1004.4 |
| 20260508074904 | 10 | 251 | 9.7 | 17.7 | 0.00 | 0.00 | 0.00 | 93 | 1004.3 |
| 20260508074804 | 10 | 251 | 9.7 | 17.7 | 0.00 | 0.00 | 0.00 | 93 | 1004.3 |
| 20260508074704 | 10 | 252 | 9.7 | 17.7 | 0.00 | 0.00 | 0.00 | 93 | 1004.3 |
| 20260508074604 | 10 | 250 | 9.7 | 17.7 | 0.00 | 0.00 | 0.00 | 94 | 1004.3 |
| 20260508074504 | 10 | 250 | 9.7 | 17.7 | 0.00 | 0.00 | 0.00 | 95 | 1004.4 |
| 20260508074404 | 10 | 248 | 9.7 | 17.7 | 0.00 | 0.00 | 0.00 | 95 | 1004.3 |
| 20260508074324 | 10 | 249 | 9.7 | 14.5 | 0.00 | 0.00 | 0.00 | 95 | 1004.2 |
| 20260508074204 | 10 | 247 | 9.7 | 14.5 | 0.00 | 0.00 | 0.00 | 95 | 1004.3 |
| 20260508074103 | 10 | 244 | 9.7 | 14.5 | 0.00 | 0.00 | 0.00 | 96 | 1004.3 |
| 20260508074004 | 10 | 243 | 9.7 | 17.7 | 0.00 | 0.00 | 0.00 | 96 | 1004.3 |
| 20260508073903 | 10 | 243 | 9.7 | 17.7 | 0.00 | 0.00 | 0.00 | 96 | 1004.3 |
| 20260508073804 | 10 | 243 | 9.7 | 17.7 | 0.00 | 0.00 | 0.00 | 96 | 1004.3 |
| 20260508073703 | 10 | 241 | 9.7 | 20.9 | 0.00 | 0.00 | 0.00 | 96 | 1004.7 |
| 20260508073604 | 10 | 239 | 9.7 | 20.9 | 0.00 | 0.00 | 0.00 | 96 | 1004.3 |
| 20260508073504 | 10 | 238 | 9.7 | 20.9 | 0.00 | 0.00 | 0.00 | 96 | 1004.4 |
| 20260508073425 | 10 | 237 | 9.7 | 20.9 | 0.00 | 0.00 | 0.00 | 96 | 1004.3 |
| 20260508073304 | 10 | 235 | 9.7 | 20.9 | 0.00 | 0.00 | 0.00 | 96 | 1004.5 |
| 20260508073203 | 10 | 237 | 9.7 | 20.9 | 0.00 | 0.00 | 0.00 | 96 | 1004.1 |
| 20260508073104 | 10 | 238 | 9.7 | 20.9 | 0.00 | 0.00 | 0.00 | 96 | 1004.2 |
| 20260508073024 | 10 | 240 | 9.7 | 20.9 | 0.00 | 0.00 | 0.00 | 96 | 1004.2 |
| 20260508072904 | 10 | 238 | 11.3 | 20.9 | 0.00 | 0.00 | 0.00 | 96 | 1004.1 |
| 20260508072803 | 10 | 236 | 11.3 | 20.9 | 0.00 | 0.00 | 0.00 | 96 | 1004.3 |
| 20260508072704 | 10 | 236 | 11.3 | 20.9 | 0.00 | 0.00 | 0.00 | 96 | 1004.4 |
| 20260508072603 | 10 | 238 | 11.3 | 20.9 | 0.00 | 0.00 | 0.00 | 96 | 1004.4 |
| 20260508072504 | 10 | 238 | 9.7 | 20.9 | 0.00 | 0.00 | 0.00 | 96 | 1004.4 |
| 20260508072424 | 10 | 239 | 9.7 | 20.9 | 0.00 | 0.00 | 0.00 | 96 | 1004.2 |
| 20260508072307 | 10 | 239 | 9.7 | 20.9 | 0.00 | 0.00 | 0.00 | 96 | 1004.1 |
| 20260508072224 | 10 | 236 | 9.7 | 20.9 | 0.00 | 0.00 | 0.00 | 96 | 1004.3 |
| 20260508072104 | 10 | 235 | 9.7 | 20.9 | 0.00 | 0.00 | 0.00 | 96 | 1004.2 |
| 20260508072004 | 10 | 234 | 9.7 | 17.7 | 0.00 | 0.00 | 0.00 | 96 | 1004.3 |
| 20260508071904 | 10 | 235 | 9.7 | 20.9 | 0.00 | 0.00 | 0.00 | 97 | 1004.1 |
| 20260508071804 | 10 | 238 | 8.0 | 20.9 | 0.00 | 0.00 | 0.00 | 97 | 1004.3 |
| 20260508071703 | 10 | 238 | 8.0 | 20.9 | 0.00 | 0.00 | 0.00 | 97 | 1004.2 |
| 20260508071604 | 10 | 238 | 8.0 | 20.9 | 0.00 | 0.00 | 0.00 | 97 | 1004.2 |
| 20260508071504 | 10 | 238 | 8.0 | 20.9 | 0.00 | 0.00 | 0.00 | 98 | 1004.1 |
| 20260508071404 | 10 | 238 | 8.0 | 20.9 | 0.00 | 0.00 | 0.00 | 98 | 1004.1 |
| 20260508071304 | 10 | 239 | 8.0 | 20.9 | 0.00 | 0.00 | 0.00 | 98 | 1004.1 |
| 20260508071204 | 10 | 241 | 8.0 | 20.9 | 0.00 | 0.00 | 0.00 | 98 | 1003.9 |
| 20260508071104 | 10 | 240 | 8.0 | 20.9 | 0.00 | 0.00 | 0.00 | 98 | 1004.2 |
| 20260508071004 | 10 | 241 | 8.0 | 20.9 | 0.00 | 0.00 | 0.00 | 98 | 1004.0 |
| 20260508070903 | 10 | 240 | 8.0 | 20.9 | 0.00 | 0.00 | 0.00 | 98 | 1004.1 |
| 20260508070804 | 10 | 238 | 6.4 | 20.9 | 0.00 | 0.00 | 0.00 | 98 | 1004.0 |
| 20260508070704 | 10 | 240 | 6.4 | 14.5 | 0.00 | 0.00 | 0.00 | 98 | 1004.0 |
| 20260508070604 | 10 | 235 | 6.4 | 14.5 | 0.00 | 0.00 | 0.00 | 99 | 1004.1 |
| 20260508070525 | 10 | 236 | 6.4 | 14.5 | 0.00 | 0.00 | 0.00 | 98 | 1004.0 |
| 20260508070404 | 10 | 232 | 6.4 | 11.3 | 0.00 | 0.00 | 0.00 | 98 | 1003.8 |
| 20260508070304 | 10 | 229 | 6.4 | 11.3 | 0.00 | 0.00 | 0.00 | 99 | 1003.8 |
| 20260508070224 | 10 | 230 | 6.4 | 11.3 | 0.00 | 0.00 | 0.00 | 99 | 1003.7 |
| 20260508070104 | 9 | 226 | 6.4 | 11.3 | 0.00 | 0.00 | 0.00 | 99 | 1003.9 |
| 20260508070004 | 9 | 226 | 6.4 | 11.3 | 0.00 | 0.00 | 0.00 | 99 | 1003.9 |
| 20260508065904 | 9 | 227 | 6.4 | 11.3 | 0.00 | 0.00 | 0.00 | 99 | 1003.9 |
| 20260508065824 | 9 | 229 | 6.4 | 11.3 | 0.00 | 0.00 | 0.00 | 99 | 1003.9 |
| 20260508065725 | 9 | 228 | 6.4 | 11.3 | 0.00 | 0.00 | 0.00 | 99 | 1004.0 |
| 20260508065604 | 9 | 228 | 6.4 | 11.3 | 0.00 | 0.00 | 0.00 | 99 | 1003.9 |
| 20260508065504 | 9 | 228 | 6.4 | 11.3 | 0.00 | 0.00 | 0.00 | 99 | 1004.1 |
| 20260508065404 | 9 | 229 | 6.4 | 11.3 | 0.00 | 0.00 | 0.00 | 99 | 1004.0 |
| 20260508065306 | 9 | 230 | 6.4 | 11.3 | 0.00 | 0.00 | 0.00 | 99 | 1003.8 |
| 20260508065225 | 8 | 230 | 6.4 | 11.3 | 0.00 | 0.00 | 0.00 | 99 | 1003.8 |
| 20260508065104 | 8 | 229 | 6.4 | 11.3 | 0.00 | 0.00 | 0.00 | 99 | 1003.8 |
| 20260508065004 | 8 | 229 | 6.4 | 11.3 | 0.00 | 0.00 | 0.00 | 99 | 1003.9 |
| 20260508064925 | 8 | 228 | 6.4 | 11.3 | 0.00 | 0.00 | 0.00 | 99 | 1004.1 |
| 20260508064804 | 8 | 227 | 6.4 | 11.3 | 0.00 | 0.00 | 0.00 | 99 | 1003.8 |
| 20260508064704 | 8 | 226 | 6.4 | 11.3 | 0.00 | 0.00 | 0.00 | 99 | 1003.8 |
| 20260508064625 | 8 | 226 | 6.4 | 11.3 | 0.00 | 0.00 | 0.00 | 99 | 1003.7 |
| 20260508064525 | 8 | 229 | 6.4 | 11.3 | 0.00 | 0.00 | 0.00 | 99 | 1003.8 |
| 20260508064403 | 8 | 230 | 6.4 | 11.3 | 0.00 | 0.00 | 0.00 | 99 | 1003.8 |
| 20260508064304 | 8 | 231 | 6.4 | 11.3 | 0.00 | 0.00 | 0.00 | 99 | 1003.8 |
| 20260508064203 | 8 | 231 | 6.4 | 11.3 | 0.00 | 0.00 | 0.00 | 99 | 1003.8 |
| 20260508064104 | 8 | 234 | 6.4 | 11.3 | 0.00 | 0.00 | 0.00 | 99 | 1003.7 |
| 20260508064004 | 8 | 232 | 6.4 | 11.3 | 0.00 | 0.00 | 0.00 | 99 | 1003.8 |
| 20260508063904 | 8 | 233 | 6.4 | 11.3 | 0.00 | 0.00 | 0.00 | 99 | 1003.8 |
| 20260508063804 | 8 | 232 | 6.4 | 11.3 | 0.00 | 0.00 | 0.00 | 99 | 1003.6 |
| 20260508063703 | 8 | 232 | 4.8 | 11.3 | 0.00 | 0.00 | 0.00 | 99 | 1003.7 |
| 20260508063604 | 8 | 233 | 4.8 | 9.7 | 0.00 | 0.00 | 0.00 | 99 | 1003.8 |
| 20260508063504 | 8 | 229 | 4.8 | 9.7 | 0.00 | 0.00 | 0.00 | 99 | 1003.8 |
| 20260508063404 | 8 | 226 | 4.8 | 11.3 | 0.00 | 0.00 | 0.00 | 99 | 1003.8 |
| 20260508063304 | 8 | 227 | 6.4 | 11.3 | 0.00 | 0.00 | 0.00 | 99 | 1003.8 |
| 20260508063204 | 8 | 228 | 6.4 | 11.3 | 0.00 | 0.00 | 0.00 | 99 | 1003.6 |
| 20260508063103 | 8 | 226 | 4.8 | 11.3 | 0.00 | 0.00 | 0.00 | 99 | 1003.5 |
| 20260508063004 | 8 | 227 | 6.4 | 11.3 | 0.00 | 0.00 | 0.00 | 99 | 1003.9 |
| 20260508062903 | 8 | 225 | 6.4 | 11.3 | 0.00 | 0.00 | 0.00 | 99 | 1003.9 |
| 20260508062804 | 8 | 226 | 6.4 | 11.3 | 0.00 | 0.00 | 0.00 | 99 | 1003.9 |
| 20260508062703 | 8 | 228 | 6.4 | 11.3 | 0.00 | 0.00 | 0.00 | 99 | 1003.7 |
| 20260508062604 | 8 | 228 | 6.4 | 11.3 | 0.00 | 0.00 | 0.00 | 99 | 1003.7 |
| 20260508062504 | 8 | 229 | 6.4 | 11.3 | 0.00 | 0.00 | 0.00 | 99 | 1003.8 |
| 20260508062404 | 8 | 232 | 6.4 | 11.3 | 0.00 | 0.00 | 0.00 | 99 | 1003.6 |
| 20260508062325 | 8 | 232 | 6.4 | 9.7 | 0.00 | 0.00 | 0.00 | 99 | 1003.5 |
| 20260508062204 | 8 | 231 | 4.8 | 9.7 | 0.00 | 0.00 | 0.00 | 99 | 1003.6 |
| 20260508062104 | 8 | 231 | 4.8 | 9.7 | 0.00 | 0.00 | 0.00 | 99 | 1003.7 |
| 20260508062025 | 8 | 231 | 4.8 | 9.7 | 0.00 | 0.00 | 0.00 | 99 | 1003.8 |
| 20260508061904 | 8 | 235 | 4.8 | 9.7 | 0.00 | 0.00 | 0.00 | 99 | 1003.8 |
| 20260508061804 | 8 | 235 | 4.8 | 9.7 | 0.00 | 0.00 | 0.00 | 99 | 1003.6 |
| 20260508061704 | 8 | 236 | 4.8 | 9.7 | 0.00 | 0.00 | 0.00 | 99 | 1003.6 |
| 20260508061603 | 8 | 237 | 4.8 | 9.7 | 0.00 | 0.00 | 0.00 | 99 | 1003.7 |
| 20260508061504 | 8 | 238 | 4.8 | 9.7 | 0.00 | 0.00 | 0.00 | 99 | 1003.8 |
| 20260508061403 | 8 | 238 | 4.8 | 9.7 | 0.00 | 0.00 | 0.00 | 99 | 1003.6 |
| 20260508061304 | 8 | 237 | 4.8 | 9.7 | 0.00 | 0.00 | 0.00 | 99 | 1003.6 |
| 20260508061203 | 8 | 241 | 4.8 | 9.7 | 0.00 | 0.00 | 0.00 | 99 | 1003.8 |
| 20260508061104 | 8 | 243 | 4.8 | 6.4 | 0.00 | 0.00 | 0.00 | 99 | 1003.6 |
| 20260508061003 | 8 | 245 | 4.8 | 6.4 | 0.00 | 0.00 | 0.00 | 99 | 1003.6 |
| 20260508060904 | 8 | 244 | 4.8 | 6.4 | 0.00 | 0.00 | 0.00 | 99 | 1003.6 |
| 20260508060803 | 8 | 245 | 4.8 | 6.4 | 0.00 | 0.00 | 0.00 | 99 | 1003.3 |
| 20260508060704 | 8 | 246 | 3.2 | 6.4 | 0.00 | 0.00 | 0.00 | 99 | 1003.8 |
| 20260508060604 | 8 | 249 | 3.2 | 6.4 | 0.00 | 0.00 | 0.00 | 99 | 1003.7 |
| 20260508060504 | 8 | 248 | 3.2 | 6.4 | 0.00 | 0.00 | 0.00 | 99 | 1003.6 |
| 20260508060404 | 8 | 249 | 3.2 | 6.4 | 0.00 | 0.00 | 0.00 | 99 | 1003.5 |
| 20260508060304 | 8 | 249 | 3.2 | 6.4 | 0.00 | 0.00 | 0.00 | 99 | 1003.6 |
| 20260508060204 | 8 | 247 | 3.2 | 11.3 | 0.00 | 0.00 | 0.00 | 99 | 1003.5 |
| 20260508060105 | 8 | 244 | 3.2 | 11.3 | 0.00 | 0.00 | 0.00 | 99 | 1003.5 |
| 20260508060004 | 8 | 244 | 4.8 | 11.3 | 0.00 | 0.00 | 0.00 | 99 | 1003.6 |
| 20260508055904 | 8 | 246 | 4.8 | 11.3 | 0.00 | 0.00 | 0.00 | 99 | 1003.7 |
| 20260508055803 | 8 | 244 | 4.8 | 11.3 | 0.00 | 0.00 | 0.00 | 99 | 1003.5 |
| 20260508055704 | 8 | 242 | 4.8 | 11.3 | 0.00 | 0.00 | 0.00 | 99 | 1003.6 |
| 20260508055604 | 8 | 241 | 4.8 | 11.3 | 0.00 | 0.00 | 0.00 | 99 | 1003.5 |
| 20260508055524 | 8 | 241 | 4.8 | 11.3 | 0.00 | 0.00 | 0.00 | 99 | 1003.5 |
| 20260508055404 | 8 | 243 | 6.4 | 16.1 | 0.00 | 0.00 | 0.00 | 99 | 1003.5 |
| 20260508055306 | 8 | 241 | 6.4 | 16.1 | 0.00 | 0.00 | 0.00 | 99 | 1003.6 |
| 20260508055225 | 8 | 240 | 6.4 | 16.1 | 0.00 | 0.00 | 0.00 | 99 | 1003.4 |
| 20260508055103 | 8 | 238 | 8.0 | 16.1 | 0.00 | 0.00 | 0.00 | 99 | 1003.4 |
| 20260508055004 | 8 | 236 | 8.0 | 16.1 | 0.00 | 0.00 | 0.00 | 99 | 1003.5 |
| 20260508054903 | 8 | 234 | 8.0 | 16.1 | 0.00 | 0.00 | 0.00 | 99 | 1003.2 |
| 20260508054804 | 8 | 233 | 8.0 | 16.1 | 0.00 | 0.00 | 0.00 | 99 | 1003.5 |
| 20260508054703 | 8 | 236 | 8.0 | 16.1 | 0.00 | 0.00 | 0.00 | 99 | 1003.6 |
| 20260508054603 | 8 | 236 | 8.0 | 16.1 | 0.00 | 0.00 | 0.00 | 99 | 1003.4 |
| 20260508054504 | 8 | 234 | 8.0 | 16.1 | 0.00 | 0.00 | 0.00 | 99 | 1003.4 |
| 20260508054404 | 8 | 231 | 8.0 | 16.1 | 0.00 | 0.00 | 0.00 | 99 | 1003.3 |
| 20260508054304 | 8 | 231 | 8.0 | 16.1 | 0.00 | 0.00 | 0.00 | 99 | 1003.5 |
| 20260508054203 | 8 | 231 | 8.0 | 12.9 | 0.00 | 0.00 | 0.00 | 99 | 1003.5 |
| 20260508054104 | 8 | 234 | 6.4 | 12.9 | 0.00 | 0.00 | 0.00 | 99 | 1003.4 |
| 20260508054003 | 8 | 236 | 6.4 | 12.9 | 0.00 | 0.00 | 0.00 | 99 | 1003.2 |
| 20260508053925 | 8 | 235 | 6.4 | 12.9 | 0.00 | 0.00 | 0.00 | 99 | 1003.5 |
| 20260508053803 | 8 | 237 | 6.4 | 12.9 | 0.00 | 0.00 | 0.00 | 99 | 1003.4 |
| 20260508053704 | 8 | 233 | 6.4 | 12.9 | 0.00 | 0.00 | 0.00 | 99 | 1003.3 |
| 20260508053603 | 8 | 232 | 6.4 | 12.9 | 0.00 | 0.00 | 0.00 | 99 | 1003.3 |
| 20260508053504 | 8 | 233 | 6.4 | 11.3 | 0.00 | 0.00 | 0.00 | 99 | 1003.4 |
| 20260508053403 | 8 | 235 | 6.4 | 11.3 | 0.00 | 0.00 | 0.00 | 99 | 1003.2 |
| 20260508053325 | 8 | 235 | 6.4 | 11.3 | 0.00 | 0.00 | 0.00 | 99 | 1003.3 |
| 20260508053203 | 8 | 237 | 6.4 | 11.3 | 0.00 | 0.00 | 0.00 | 99 | 1003.1 |
| 20260508053104 | 8 | 235 | 6.4 | 11.3 | 0.00 | 0.00 | 0.00 | 99 | 1003.4 |
| 20260508053003 | 8 | 234 | 6.4 | 11.3 | 0.00 | 0.00 | 0.00 | 99 | 1003.1 |
| 20260508052903 | 8 | 234 | 6.4 | 11.3 | 0.00 | 0.00 | 0.00 | 99 | 1003.1 |
| 20260508052804 | 8 | 234 | 6.4 | 12.9 | 0.00 | 0.00 | 0.00 | 99 | 1003.1 |
| 20260508052724 | 8 | 236 | 6.4 | 12.9 | 0.00 | 0.00 | 0.00 | 99 | 1003.1 |
| 20260508052604 | 8 | 239 | 8.0 | 12.9 | 0.00 | 0.00 | 0.00 | 99 | 1003.3 |
| 20260508052524 | 8 | 240 | 8.0 | 12.9 | 0.00 | 0.00 | 0.00 | 99 | 1003.1 |
| 20260508052404 | 8 | 239 | 8.0 | 12.9 | 0.00 | 0.00 | 0.00 | 99 | 1003.0 |
| 20260508052324 | 8 | 240 | 8.0 | 12.9 | 0.00 | 0.00 | 0.00 | 99 | 1003.1 |
| 20260508052204 | 8 | 240 | 8.0 | 17.7 | 0.00 | 0.00 | 0.00 | 99 | 1003.3 |
| 20260508052124 | 8 | 241 | 8.0 | 17.7 | 0.00 | 0.00 | 0.00 | 99 | 1003.0 |
| 20260508052024 | 8 | 243 | 8.0 | 17.7 | 0.00 | 0.00 | 0.00 | 99 | 1003.2 |
| 20260508051904 | 8 | 244 | 8.0 | 17.7 | 0.00 | 0.00 | 0.00 | 98 | 1002.9 |
| 20260508051803 | 8 | 245 | 8.0 | 17.7 | 0.00 | 0.00 | 0.00 | 98 | 1003.0 |
| 20260508051703 | 8 | 244 | 8.0 | 17.7 | 0.00 | 0.00 | 0.00 | 98 | 1002.9 |
| 20260508051603 | 8 | 242 | 8.0 | 17.7 | 0.00 | 0.00 | 0.00 | 98 | 1003.0 |
| 20260508051504 | 8 | 242 | 8.0 | 17.7 | 0.00 | 0.00 | 0.00 | 98 | 1003.0 |
| 20260508051404 | 8 | 241 | 8.0 | 17.7 | 0.00 | 0.00 | 0.00 | 98 | 1003.3 |
| 20260508051304 | 8 | 242 | 8.0 | 17.7 | 0.00 | 0.00 | 0.00 | 98 | 1002.9 |
| 20260508051203 | 8 | 241 | 8.0 | 17.7 | 0.00 | 0.00 | 0.00 | 97 | 1003.0 |
| 20260508051104 | 8 | 237 | 8.0 | 16.1 | 0.00 | 0.00 | 0.00 | 97 | 1002.9 |
| 20260508051003 | 8 | 239 | 8.0 | 16.1 | 0.00 | 0.00 | 0.00 | 97 | 1003.0 |
| 20260508050904 | 8 | 238 | 8.0 | 16.1 | 0.00 | 0.00 | 0.00 | 97 | 1002.9 |
| 20260508050825 | 8 | 239 | 8.0 | 16.1 | 0.00 | 0.00 | 0.00 | 97 | 1002.9 |
| 20260508050703 | 8 | 240 | 8.0 | 16.1 | 0.00 | 0.00 | 0.00 | 96 | 1003.1 |
| 20260508050603 | 8 | 239 | 8.0 | 16.1 | 0.00 | 0.00 | 0.00 | 96 | 1002.8 |
| 20260508050524 | 8 | 240 | 8.0 | 16.1 | 0.00 | 0.00 | 0.00 | 96 | 1003.0 |
| 20260508050404 | 8 | 242 | 8.0 | 16.1 | 0.00 | 0.00 | 0.00 | 96 | 1003.1 |
| 20260508050303 | 8 | 241 | 8.0 | 16.1 | 0.00 | 0.00 | 0.00 | 96 | 1002.8 |
| 20260508050204 | 8 | 241 | 8.0 | 16.1 | 0.00 | 0.00 | 0.00 | 95 | 1002.9 |
| 20260508050104 | 8 | 242 | 8.0 | 16.1 | 0.00 | 0.00 | 0.00 | 95 | 1002.8 |
| 20260508050003 | 8 | 242 | 8.0 | 16.1 | 0.00 | 0.00 | 0.00 | 95 | 1003.1 |
| 20260508045904 | 8 | 245 | 8.0 | 16.1 | 0.00 | 0.00 | 0.00 | 95 | 1002.7 |
| 20260508045803 | 8 | 246 | 8.0 | 17.7 | 0.00 | 0.00 | 0.00 | 95 | 1002.9 |
| 20260508045725 | 8 | 245 | 8.0 | 17.7 | 0.00 | 0.00 | 0.00 | 95 | 1002.9 |
| 20260508045603 | 8 | 244 | 8.0 | 17.7 | 0.00 | 0.00 | 0.00 | 95 | 1002.8 |
| 20260508045525 | 8 | 245 | 8.0 | 17.7 | 0.00 | 0.00 | 0.00 | 95 | 1002.8 |